[[{"header":{"parameterUnit":"m.s-1","parameterCategory":1,"la1":30.6,"la2":28.766,"lo1":-90.7593,"lo2":-88.6598,"dy":0.0162,"dx":0.0183,"nx":116,"ny":114,"refTime":"2023-03-26T06:00:00:Z","depth":0,"parameterNumber":2,"parameterNumberName":"U-component_of_WINDS"},"data":[0.0,0.0,0.0,0.0,0.0,0.0,0.0,0.0,0.0,0.0,0.0,0.0,0.0,0.0,0.0,0.0,0.0,0.0,0.0,0.0,0.0,0.0,0.0,0.0,0.0,0.0,0.0,0.0,0.0,0.0,0.0,0.0,0.0,0.0,0.0,0.0,0.0,0.0,0.0,0.0,0.0,0.0,0.0,0.0,0.0,0.0,0.0,0.0,0.0,0.0,0.0,0.0,0.0,0.0,0.0,0.0,0.0,0.0,0.0,0.0,0.0,0.0,0.0,0.0,0.0,0.0,0.0,0.0,0.0,0.0,0.0,0.0,0.0,0.0,0.0,0.0,0.0,0.0,0.0,0.0,0.0,0.0,0.0,0.0,0.0,0.0,0.0,0.0,0.0,0.0,0.0,0.0,0.0,0.0,0.0,0.0,0.0,0.0,0.0,0.0,0.0,0.0,0.0,0.0,0.0,0.0,0.0,0.0,0.0,0.0,0.0,0.0,0.0,0.0,0.0,0.0,0.0,0.0,0.0,0.0,0.0,0.0,0.0,0.0,0.0,0.0,0.0,0.0,0.0,0.0,0.0,0.0,0.0,0.0,0.0,0.0,0.0,0.0,0.0,0.0,0.0,0.0,0.0,0.0,0.0,0.0,0.0,0.0,0.0,0.0,0.0,0.0,0.0,0.0,0.0,0.0,0.0,0.0,0.0,0.0,0.0,0.0,0.0,0.0,0.0,0.0,0.0,0.0,0.0,0.0,0.0,0.0,0.0,0.0,0.0,0.0,0.0,0.0,0.0,0.0,0.0,0.0,0.0,0.0,0.0,0.0,0.0,0.0,0.0,0.0,0.0,0.0,0.0,0.0,0.0,0.0,0.0,0.0,0.0,0.0,0.0,0.0,0.0,0.0,0.0,0.0,0.0,0.0,0.0,0.0,0.0,0.0,0.0,0.0,0.0,0.0,0.0,0.0,0.0,0.0,0.0,0.0,0.0,0.0,0.0,0.0,0.0,0.0,0.0,0.0,0.0,0.0,0.0,0.0,0.0,0.0,0.0,0.0,0.0,0.0,0.0,0.0,0.0,0.0,0.0,0.0,0.0,0.0,0.0,0.0,0.0,0.0,0.0,0.0,0.0,0.0,0.0,0.0,0.0,0.0,0.0,0.0,0.0,0.0,0.0,0.0,0.0,0.0,0.0,0.0,0.0,0.0,0.0,0.0,0.0,0.0,0.0,0.0,0.0,0.0,0.0,0.0,0.0,0.0,0.0,0.0,0.0,0.0,0.0,0.0,0.0,0.0,0.0,0.0,0.0,0.0,0.0,0.0,0.0,0.0,0.0,0.0,0.0,0.0,0.0,0.0,0.0,0.0,0.0,0.0,0.0,0.0,0.0,0.0,0.0,0.0,0.0,0.0,0.0,0.0,0.0,0.0,0.0,0.0,0.0,0.0,0.0,0.0,0.0,0.0,0.0,0.0,0.0,0.0,0.0,0.0,0.0,0.0,0.0,0.0,0.0,0.0,0.0,0.0,0.0,0.0,0.0,0.0,0.0,0.0,0.0,0.0,0.0,0.0,0.0,0.0,0.0,0.0,0.0,0.0,0.0,0.0,0.0,0.0,0.0,0.0,0.0,0.0,0.0,0.0,0.0,0.0,0.0,0.0,0.0,0.0,0.0,0.0,0.0,0.0,0.0,0.0,0.0,0.0,0.0,0.0,0.0,0.0,0.0,0.0,0.0,0.0,0.0,0.0,0.0,0.0,0.0,0.0,0.0,0.0,0.0,0.0,0.0,0.0,0.0,0.0,0.0,0.0,0.0,0.0,0.0,0.0,0.0,0.0,0.0,0.0,0.0,0.0,0.0,0.0,0.0,0.0,0.0,0.0,0.0,0.0,0.0,0.0,0.0,0.0,0.0,0.0,0.0,0.0,0.0,0.0,0.0,0.0,0.0,0.0,0.0,0.0,0.0,0.0,0.0,0.0,0.0,0.0,0.0,0.0,0.0,0.0,0.0,0.0,0.0,0.0,0.0,0.0,0.0,0.0,0.0,0.0,0.0,0.0,0.0,0.0,0.0,0.0,0.0,0.0,0.0,0.0,0.0,0.0,0.0,0.0,0.0,0.0,0.0,0.0,0.0,0.0,0.0,0.0,0.0,0.0,0.0,0.0,0.0,0.0,0.0,0.0,0.0,0.0,0.0,0.0,0.0,0.0,0.0,0.0,0.0,0.0,0.0,0.0,0.0,0.0,0.0,0.0,0.0,0.0,0.0,0.0,0.0,0.0,0.0,0.0,0.0,0.0,0.0,0.0,0.0,0.0,0.0,0.0,0.0,0.0,0.0,0.0,0.0,0.0,0.0,0.0,0.0,0.0,0.0,0.0,0.0,0.0,0.0,0.0,0.0,0.0,0.0,0.0,0.0,0.0,0.0,0.0,0.0,0.0,0.0,0.0,0.0,0.0,0.0,0.0,0.0,0.0,0.0,0.0,0.0,0.0,0.0,0.0,0.0,0.0,0.0,0.0,0.0,0.0,0.0,0.0,0.0,0.0,0.0,0.0,0.0,0.0,0.0,0.0,0.0,0.0,0.0,0.0,0.0,0.0,0.0,0.0,0.0,0.0,0.0,0.0,0.0,0.0,0.0,0.0,0.0,0.0,0.0,0.0,0.0,0.0,0.0,0.0,0.0,0.0,0.0,0.0,0.0,0.0,0.0,0.0,0.0,0.0,0.0,0.0,0.0,0.0,0.0,0.0,0.0,0.0,0.0,0.0,0.0,0.0,0.0,0.0,0.0,0.0,0.0,0.0,0.0,0.0,0.0,0.0,0.0,0.0,0.0,0.0,0.0,0.0,0.0,0.0,0.0,0.0,0.0,0.0,0.0,0.0,0.0,0.0,0.0,0.0,0.0,0.0,0.0,0.0,0.0,0.0,0.0,0.0,0.0,0.0,0.0,0.0,0.0,0.0,0.0,0.0,0.0,0.0,0.0,0.0,0.0,0.0,0.0,0.0,0.0,0.0,0.0,0.0,0.0,0.0,0.0,0.0,0.0,0.0,0.0,0.0,0.0,0.0,0.0,0.0,0.0,0.0,0.0,0.0,0.0,0.0,0.0,0.0,0.0,0.0,0.0,0.0,0.0,0.0,0.0,0.0,0.0,0.0,0.0,0.0,0.0,0.0,0.0,0.0,0.0,0.0,0.0,0.0,0.0,0.0,0.0,0.0,0.0,0.0,0.0,0.0,0.0,0.0,0.0,0.0,0.0,0.0,0.0,0.0,0.0,0.0,0.0,0.0,0.0,0.0,0.0,0.0,0.0,0.0,0.0,0.0,0.0,0.0,0.0,0.0,0.0,0.0,0.0,0.0,0.0,0.0,0.0,0.0,0.0,0.0,0.0,0.0,0.0,0.0,0.0,0.0,0.0,0.0,0.0,0.0,0.0,0.0,0.0,0.0,0.0,0.0,0.0,0.0,0.0,0.0,0.0,0.0,0.0,0.0,0.0,0.0,0.0,0.0,0.0,0.0,0.0,0.0,0.0,0.0,0.0,0.0,0.0,0.0,0.0,0.0,0.0,0.0,0.0,0.0,0.0,0.0,0.0,0.0,0.0,0.0,0.0,0.0,0.0,0.0,0.0,0.0,0.0,0.0,0.0,0.0,0.0,0.0,0.0,0.0,0.0,0.0,0.0,0.0,0.0,0.0,0.0,0.0,0.0,0.0,0.0,0.0,0.0,0.0,0.0,0.0,0.0,0.0,0.0,0.0,0.0,0.0,0.0,0.0,0.0,0.0,0.0,0.0,0.0,0.0,0.0,0.0,0.0,0.0,0.0,0.0,0.0,0.0,0.0,0.0,0.0,0.0,0.0,0.0,0.0,0.0,0.0,0.0,0.0,0.0,0.0,0.0,0.0,0.0,0.0,0.0,0.0,0.0,0.0,0.0,0.0,0.0,0.0,0.0,0.0,0.0,0.0,0.0,0.0,0.0,0.0,0.0,0.0,0.0,0.0,0.0,0.0,0.0,0.0,0.0,0.0,0.0,0.0,0.0,0.0,0.0,0.0,0.0,0.0,0.0,0.0,0.0,0.0,0.0,0.0,0.0,0.0,0.0,0.0,0.0,0.0,0.0,0.0,0.0,0.0,0.0,0.0,0.0,0.0,0.0,0.0,0.0,0.0,0.0,0.0,0.0,0.0,0.0,0.0,0.0,0.0,0.0,0.0,0.0,0.0,0.0,0.0,0.0,0.0,0.0,0.0,0.0,0.0,0.0,0.0,0.0,0.0,0.0,0.0,0.0,0.0,0.0,0.0,0.0,0.0,0.0,0.0,0.0,0.0,0.0,0.0,0.0,0.0,0.0,0.0,0.0,0.0,0.0,0.0,0.0,0.0,0.0,0.0,0.0,0.0,0.0,0.0,0.0,0.0,0.0,0.0,0.0,0.0,0.0,0.0,0.0,0.0,0.0,0.0,0.0,0.0,0.0,0.0,0.0,0.0,0.0,0.0,0.0,0.0,0.0,0.0,0.0,0.0,0.0,0.0,0.0,0.0,0.0,0.0,0.0,0.0,0.0,0.0,0.0,0.0,0.0,0.0,0.0,0.0,0.0,0.0,0.0,0.0,0.0,0.0,0.0,0.0,0.0,0.0,0.0,0.0,0.0,0.0,0.0,0.0,0.0,0.0,0.0,0.0,0.0,0.0,0.0,0.0,0.0,0.0,0.0,0.0,0.0,0.0,0.0,0.0,0.0,0.0,0.0,0.0,0.0,0.0,0.0,0.0,0.0,0.0,0.0,0.0,0.0,0.0,0.0,0.0,0.0,0.0,0.0,0.0,0.0,0.0,0.0,0.0,0.0,0.0,0.0,0.0,0.0,0.0,0.0,0.0,0.0,0.0,0.0,0.0,0.0,0.0,0.0,0.0,0.0,0.0,0.0,0.0,0.0,0.0,0.0,0.0,0.0,0.0,0.0,0.0,0.0,0.0,0.0,0.0,0.0,0.0,0.0,0.0,0.0,0.0,0.0,0.0,0.0,0.0,0.0,0.0,0.0,0.0,0.0,0.0,0.0,0.0,0.0,0.0,0.0,0.0,0.0,0.0,0.0,0.0,0.0,0.0,0.0,0.0,0.0,0.0,0.0,0.0,0.0,0.0,0.0,0.0,0.0,0.0,0.0,0.0,0.0,0.0,0.0,0.0,0.0,0.0,0.0,0.0,0.0,0.0,0.0,0.0,0.0,0.0,0.0,0.0,0.0,0.0,0.0,0.0,0.0,0.0,0.0,0.0,0.0,0.0,0.0,0.0,0.0,0.0,0.0,0.0,0.0,0.0,0.0,0.0,0.0,0.0,0.0,0.0,0.0,0.0,0.0,0.0,0.0,0.0,0.0,0.0,0.0,0.0,0.0,0.0,0.0,0.0,0.0,0.0,0.0,0.0,0.0,0.0,0.0,0.0,0.0,0.0,0.0,0.0,0.0,0.0,0.0,0.0,0.0,0.0,0.0,0.0,0.0,0.0,0.0,0.0,0.0,0.0,0.0,0.0,0.0,0.0,0.0,0.0,0.0,0.0,0.0,0.0,0.0,0.0,0.0,0.0,0.0,0.0,0.0,0.0,0.0,0.0,0.0,0.0,0.0,0.0,0.0,0.0,0.0,0.0,0.0,0.0,0.0,0.0,0.0,0.0,0.0,0.0,0.0,0.0,0.0,0.0,0.0,0.0,0.0,0.0,0.0,0.0,0.0,0.0,0.0,0.0,0.0,0.0,0.0,0.0,0.0,0.0,0.0,0.0,0.0,0.0,0.0,0.0,0.0,0.0,0.0,0.0,0.0,0.0,0.0,0.0,0.0,0.0,0.0,0.0,0.0,0.0,0.0,0.0,0.0,0.0,0.0,0.0,0.0,0.0,0.0,0.0,0.0,0.0,0.0,0.0,0.0,0.0,0.0,0.0,0.0,0.0,0.0,0.0,0.0,0.0,0.0,0.0,0.0,0.0,0.0,0.0,0.0,0.0,0.0,0.0,0.0,0.0,0.0,0.0,0.0,0.0,0.0,0.0,0.0,0.0,0.0,0.0,0.0,0.0,0.0,0.0,0.0,0.0,0.0,0.0,0.0,0.0,0.0,0.2469,0.3425,0.0,0.0,0.0,0.0,0.0,0.0,0.0,0.0,0.0,0.0,0.0,0.0,0.0,0.0,0.0,0.0,0.0,0.0,0.0,0.0,0.0,0.0,0.0,0.0,0.0,0.0,0.0,0.0,0.0,0.0,0.0,0.0,0.0,0.0,0.0,0.0,0.0,0.0,-0.522,-0.5376,-0.5287,-0.5287,-0.4594,-0.3349,0.0,0.0,0.0,0.0,0.0,0.0,0.0,0.0,0.0,0.0,0.0,0.0,0.0,0.0,0.0,0.0,0.0,0.0,0.0,0.0,0.0,0.0,0.0,0.0,0.0,0.0,0.0,0.0,0.0,0.0,0.0,0.0,0.0,0.0,0.0,0.0,0.0,0.0,0.0,0.0,0.0,0.0,0.0,0.0,0.0,0.0,0.0,0.0,0.0,0.0,0.0,0.0,0.0,0.0,0.0,0.0,0.0,0.0,0.0,0.0,0.0,0.0,0.0,0.0,0.0,0.0,0.0,0.0,0.0,0.0,0.1185,0.1965,0.0,0.0,0.0,0.0,0.0,0.0,0.0,0.0,0.0,0.0,0.0,0.0,0.0,0.0,0.0,0.0,0.0,0.0,0.0,0.0,0.0,0.0,0.0,0.0,-0.1391,-0.1391,-0.1391,0.0,0.0,0.0,0.0,0.0,0.0,0.0,0.0,0.0,0.0,0.0,-0.6716,-0.7098,-0.7098,-0.7098,-0.6068,-0.4194,-0.4032,0.0,0.0,0.0,0.0,0.0,0.0,0.0,0.0,0.0,0.0,0.0,0.0,0.0,0.0,0.0,0.0,0.0,0.0,0.0,0.0,0.0,0.0,0.0,0.0,0.0,0.0,0.0,0.0,0.0,0.0,0.0,0.0,0.0,0.0,0.0,0.0,0.0,0.0,0.0,0.0,0.0,0.0,0.0,0.0,0.0,0.0,0.0,0.0,0.0,0.0,0.0,0.0,0.0,0.0,0.0,0.0,0.0,0.0,0.0,0.0,0.0,0.0,0.0,-0.0101,0.0,0.0,0.0,0.0,0.0,0.0,0.0506,0.1337,0.1512,0.0,0.0,0.0,0.0,0.0,0.0,0.0,0.0,0.0,0.0,0.0,0.0,0.0,0.0,0.0,0.0,0.0,0.0,0.0,0.0,0.0,-0.1391,-0.1391,-0.1391,-0.1391,-0.1391,0.0,0.0,0.0,0.0,0.0,0.0,0.0,-0.5159,-0.6096,-0.6922,-0.7032,-0.7098,-0.7098,-0.7098,-0.6937,-0.6605,-0.5732,-0.5205,-0.4945,0.0,0.0,0.0,0.0,0.0,0.0,0.0,0.0,0.0,0.0,0.0,0.0,0.0,0.0,0.0,0.0,0.0,0.0,0.0,0.0,0.0,0.0,0.0,0.0,0.0,0.0,0.0,0.0,0.0,0.0,0.0,0.0,0.0,0.0,0.0,0.0,0.0,0.0,0.0,0.0,0.0,-0.0707,-0.0732,0.0,0.0,0.0,0.0,0.0,0.0,0.0,0.0,0.0,0.0,0.0,0.0,0.0,-0.3852,-0.2796,-0.1865,-0.1387,-0.1387,-0.0454,0.0,0.0,0.0,0.0,0.0,0.0,0.0,0.0278,0.1211,0.0,0.0,0.0,0.0,0.0,0.0,0.0,0.0,0.0,0.0,0.0,0.0,0.0,0.0,0.0,0.0,0.0,0.0,0.0,0.0,0.0,-0.157,-0.1391,-0.1391,-0.1391,-0.1391,-0.1391,0.0,0.0,0.0,0.0,0.0,0.0,-0.4714,-0.5381,-0.6318,-0.6318,-0.6583,-0.7098,-0.7098,-0.7161,-0.7256,-0.6899,-0.6611,-0.6419,-0.622,0.0,0.0,0.0,0.0,0.0,0.0,0.0,0.0,0.0,0.0,0.0,0.0,0.0,0.0,0.0,0.0,0.0,0.0,0.0,0.0,0.0,0.0,0.0,0.0,0.0,0.0,0.0,0.0,0.0,0.0,0.0,0.0,0.0,0.0,0.0,0.0,0.0,0.0,0.0,-0.0858,-0.1237,-0.1841,-0.2869,-0.3773,0.0,0.0,0.0,0.0,0.0,0.0,0.0,0.0,0.0,-0.4834,-0.4207,-0.3374,-0.2318,-0.1236,-0.071,-0.0692,-0.0231,0.0,0.0,0.0,0.0,0.0,0.0,0.0,0.0026,0.0495,0.1066,0.1613,0.0,0.0,0.0,0.0,0.5859,0.7153,0.0,0.0,0.0,0.0,0.0,0.0,0.0,0.0,0.0,0.0,0.0,0.0,-0.2028,-0.1664,-0.1436,-0.1436,-0.1436,-0.1432,-0.1425,-0.1424,0.0,0.0,0.0,0.0,-0.3935,-0.4176,-0.4648,-0.5342,-0.5342,-0.5841,-0.6789,-0.6789,-0.7031,-0.7457,-0.759,-0.759,-0.7525,-0.776,-0.7844,0.0,0.0,0.0,0.0,0.0,0.0,0.0,0.0,0.0,0.0,0.0,0.0,0.0,0.0,0.0,0.0,0.0,0.0,0.0,0.0,0.0,0.0,0.0,0.0,0.0,0.0,0.0,0.0,0.0,0.0,0.0,0.0,0.0,0.0,0.0,0.0,0.0,0.0,-0.1187,-0.1691,-0.2771,-0.3601,-0.463,0.0,0.0,0.0,0.0,0.0,0.0,-0.7017,-0.6867,-0.6342,-0.5336,-0.4502,-0.3549,-0.2435,-0.1377,-0.0721,-0.0418,-0.0131,0.0,0.0,0.0,0.0,0.0,0.0,0.0,0.0,0.0,0.048,0.1198,0.1198,0.2394,0.4169,0.4487,0.5338,0.6373,0.0,0.0,0.0,0.0,0.0,0.0,0.0,0.0,0.0,0.0,0.0,-0.209,-0.1593,-0.1521,-0.1498,-0.1498,-0.1498,-0.1486,-0.1504,-0.1501,-0.1466,-0.1414,-0.2352,-0.2911,-0.2978,-0.3846,-0.4332,-0.4376,-0.4376,-0.4916,-0.5951,-0.5951,-0.6553,-0.7597,-0.774,-0.7794,-0.7801,-0.7939,-0.8,-0.7982,0.0,0.0,0.0,0.0,0.0,0.0,0.0,0.0,0.0,0.0,0.0,0.0,0.0,0.0,0.0,0.0,0.0,0.0,0.0,0.0,0.0,0.0,0.0,0.0,0.0,0.0,0.0,0.0,0.0,0.0,0.0,0.0,0.0,0.0,0.0,0.0,0.0,0.0,0.0,-0.3047,-0.3224,0.0,0.0,0.0,0.0,-0.7889,-0.7721,-0.7572,-0.7572,-0.7073,-0.6767,-0.6692,-0.6525,-0.5861,-0.4644,-0.37,-0.2651,-0.1515,-0.0479,0.0,0.0,0.0,0.0,0.0,0.0,0.0,0.0,0.0,0.0027,0.008,0.008,0.0773,0.1915,0.3056,0.4166,0.5259,0.0,0.0,0.0,0.0,0.0,0.0,0.0,0.0,0.0,-0.2758,-0.2728,-0.2549,-0.2004,-0.167,-0.1502,-0.1502,-0.1502,-0.1498,-0.151,-0.1491,-0.1499,-0.1466,-0.1761,-0.1962,-0.199,-0.2962,-0.3469,-0.3469,-0.4165,-0.499,-0.5984,-0.6665,-0.7261,-0.774,-0.7787,-0.7844,-0.7939,-0.7993,-0.7988,-0.7988,-0.7988,-0.7988,0.0,0.0,0.0,0.0,0.0,0.0,0.0,0.0,0.0,0.0,0.0,0.0,0.0,0.0,0.0,0.0,0.0,0.0,0.0,0.0,0.0,0.0,0.0,0.0,0.0,0.0,0.0,0.0,0.0,0.0,0.0,0.0,0.0,0.0,0.0,0.0,0.0,-0.3073,-0.3198,0.0,-0.5227,-0.5377,-0.5807,-0.6886,-0.7012,-0.7237,-0.7775,-0.6961,-0.6329,-0.5971,-0.4486,-0.3397,-0.2739,-0.1724,-0.0991,-0.0569,-0.019,0.0,0.0,0.0,0.0,0.0,0.0,0.0,0.0,0.0,0.0,0.0,0.0,0.1184,0.2941,0.3378,0.4748,0.6478,0.0,0.0,0.0,0.0,0.0,0.0,0.0,0.0,-0.3388,-0.2716,-0.2658,-0.2379,-0.1678,-0.1314,-0.1241,-0.1508,-0.1533,-0.1528,-0.1542,-0.1523,-0.153,-0.1497,-0.1453,-0.1452,-0.1495,-0.2153,-0.2502,-0.2502,-0.3213,-0.4241,-0.5603,-0.6328,-0.7092,-0.7864,-0.7864,-0.7918,-0.7988,-0.7988,-0.7988,-0.7988,-0.7988,-0.7988,-0.7982,0.0,0.0,0.0,0.0,0.0,0.0,0.0,0.0,0.0,0.0,0.0,0.0,0.0,0.0,0.0,0.0,0.0,0.0,0.0,0.0,0.0,0.0,0.0,0.0,0.0,0.0,0.0,0.0,0.0,0.0,0.0,0.0,0.0,0.0,-0.1592,-0.1994,-0.3073,-0.2888,-0.3253,-0.4694,-0.4518,-0.4737,-0.5813,-0.6004,-0.6329,-0.6852,-0.6039,-0.5444,-0.5179,-0.3556,-0.2388,-0.1771,-0.1081,-0.0491,0.0,0.0,0.0,0.0,0.0,0.0,0.0,0.0,0.0,0.0,0.0,0.0,0.0,0.0,0.1232,0.305,0.3441,0.4864,0.6654,0.0,0.0,0.0,0.0,0.0,0.0,0.0,-0.3001,-0.2745,-0.1961,-0.1917,-0.1536,-0.048,-0.0353,-0.0682,-0.1465,-0.1516,-0.1529,-0.155,-0.1572,-0.1534,-0.1503,-0.1479,-0.1479,-0.1503,-0.1504,-0.1504,-0.1504,-0.1528,-0.2647,-0.474,-0.4789,-0.59,-0.7889,-0.7889,-0.7889,-0.7914,-0.7939,-0.7939,-0.7963,-0.7988,-0.7988,-0.7988,0.0,0.0,0.0,0.0,0.0,0.0,0.0,0.0,0.0,0.0,0.0,0.0,0.0,0.0,0.0,0.0,0.0,0.0,0.0,0.0,0.0,0.0,0.0,0.0,0.0,0.0,0.0,0.0,0.0,0.0,0.0,0.0,0.0,-0.1593,-0.1593,-0.1996,-0.3027,-0.2286,-0.2518,-0.4604,-0.3867,-0.3695,-0.4778,-0.4862,-0.4862,-0.4888,-0.4362,-0.4179,-0.4418,-0.3949,-0.3166,-0.2048,-0.2111,-0.1429,0.0,0.0,0.0,0.0,0.0,0.0,0.0,0.0,0.0,0.0,0.0028,0.0056,0.0056,0.0056,0.0784,0.2015,0.3217,0.4418,0.5624,0.0,0.0,0.0,0.0,0.0,0.0,0.0,-0.1717,-0.1498,-0.09,-0.0829,-0.0504,0.0378,0.0479,0.0378,0.0151,0.0151,-0.0101,-0.0702,-0.0742,-0.0949,-0.1479,-0.0991,-0.0974,-0.1558,-0.158,-0.1567,-0.1567,-0.2359,-0.3034,-0.3645,-0.4441,-0.5126,-0.5677,-0.5677,-0.5677,-0.5727,-0.6512,-0.6836,-0.6911,-0.769,-0.7988,-0.7988,0.0,0.0,0.0,0.0,0.0,0.0,0.0,0.0,0.0,0.0,0.0,0.0,0.0,0.0,0.0,0.0,0.0,0.0,0.0,0.0,0.0,0.0,0.0,0.0,0.0,0.0,0.0,0.0,0.0,0.0,0.0,-0.1667,-0.1673,-0.1678,-0.1675,-0.1787,-0.207,-0.1871,-0.193,-0.2535,-0.2309,-0.258,-0.3669,-0.3817,-0.4138,-0.4735,-0.389,-0.3198,-0.284,-0.2108,-0.1335,-0.0584,-0.0783,-0.0588,0.0,0.0,0.0,0.0,0.0,0.0,0.0,0.0,0.0,0.0056,0.0953,0.1316,0.1316,0.1316,0.2043,0.3245,0.4446,0.5676,0.6765,0.0,0.0,0.0,0.0,0.0,0.0,0.0,-0.0604,-0.0378,0.005,0.0202,0.0529,0.1235,0.131,0.1159,0.0832,0.0806,0.0605,0.0126,0.01,-0.0099,-0.0513,-0.0123,-0.0124,-0.0596,-0.0602,-0.0757,-0.1086,-0.1715,-0.2418,-0.3224,-0.3848,-0.4375,-0.4797,-0.4797,-0.4797,-0.4851,-0.5452,-0.5732,-0.5782,-0.6406,-0.721,-0.7988,-0.7988,-0.7715,-0.7335,-0.7335,-0.7036,-0.6656,-0.6656,0.0,0.0,0.0,0.0,0.0,0.0,0.0,0.0,0.0,0.0,0.0,0.0,0.0,0.0,0.0,0.0,0.0,0.0,0.0,0.0,0.0,0.0,0.0,0.0,-0.1693,-0.1703,-0.1725,-0.1714,-0.1713,-0.1703,-0.1715,-0.175,-0.175,-0.1626,-0.1795,-0.242,-0.2524,-0.273,-0.3086,-0.2505,-0.2015,-0.1678,-0.1037,-0.0533,-0.0168,-0.0308,-0.0252,0.0,0.0,0.0,0.0,0.0,0.0,0.0,0.0,0.028,0.0812,0.1512,0.2099,0.2547,0.0,0.0,0.0,0.0,0.6599,0.721,0.0,0.0,0.0,0.0,0.0,0.0,0.0,0.0529,0.0756,0.0983,0.1235,0.1562,0.2068,0.2143,0.1841,0.1134,0.1058,0.1033,0.0932,0.0932,0.0907,0.0806,0.0882,0.0882,0.0806,0.0806,0.0454,-0.0252,-0.0353,-0.1261,-0.2897,-0.2972,-0.3525,-0.445,-0.445,-0.445,-0.445,-0.4576,-0.4622,-0.4626,-0.4751,-0.5952,-0.7633,-0.7633,-0.7036,-0.6207,-0.6207,-0.5607,-0.4797,-0.4797,0.0,0.0,0.0,0.0,0.0,0.0,0.0,0.0,0.0,0.0,0.0,0.0,0.0,0.0,0.0,0.0,0.0,0.0,0.0,0.0,0.0,0.0,0.0,0.0,-0.1712,-0.1723,-0.1805,-0.1758,-0.1714,-0.1714,-0.1765,-0.1809,-0.1809,-0.1501,-0.129,-0.129,-0.126,-0.1148,-0.0869,-0.084,0.0,0.0,0.0,-0.0393,-0.0364,-0.0393,-0.0252,0.0,0.0,0.0084,0.0196,0.0196,0.028,0.0392,0.0392,0.1009,0.2015,0.2155,0.291,0.3999,0.386,0.4529,0.5731,0.6793,0.721,0.721,0.0,0.0,0.0,0.0,0.0,0.0,0.0,0.2295,0.2345,0.2395,0.2446,0.2624,0.2927,0.2977,0.2901,0.275,0.2725,0.2471,0.1816,0.1765,0.1487,0.0832,0.1411,0.1462,0.0806,0.0806,0.0731,0.058,-0.0076,-0.0581,-0.0959,-0.1615,-0.2019,-0.2221,-0.2221,-0.2221,-0.2271,-0.3148,-0.35,-0.3572,-0.445,-0.5052,-0.5427,-0.5427,-0.5302,-0.5102,-0.5102,-0.4977,-0.4797,-0.4797,-0.4797,-0.4797,-0.4797,0.0,0.0,0.0,0.0,0.0,0.0,0.0,0.0,0.0,0.0,0.0,0.0,0.0,0.0,0.0,0.0,0.0,0.0,0.0,0.0,-0.1794,-0.1789,-0.1779,-0.1785,-0.178,-0.1778,-0.1778,-0.1783,-0.1786,-0.1786,-0.1484,-0.129,-0.129,-0.1108,-0.0829,-0.0504,-0.0499,-0.0387,-0.0168,-0.0308,-0.0308,-0.0084,-0.028,-0.0252,0.0,0.0,0.0,0.1456,0.1456,0.1987,0.291,0.291,0.305,0.3329,0.4306,0.5425,0.6399,0.5425,0.5787,0.6877,0.7127,0.721,0.721,0.0,0.0,0.0,0.0,0.0,0.0,0.0,0.4304,0.4203,0.3679,0.4178,0.4253,0.3305,0.3682,0.3783,0.3254,0.3682,0.3607,0.2675,0.31,0.2972,0.2043,0.2395,0.2421,0.2017,0.1992,0.1816,0.1411,0.1009,0.0605,0.0177,-0.0631,-0.1011,-0.1011,-0.1415,-0.1592,-0.1642,-0.217,-0.2395,-0.2446,-0.2972,-0.3198,-0.3324,-0.44,-0.4475,-0.3999,-0.3999,-0.3648,-0.3198,-0.3198,-0.3198,-0.3198,-0.3198,-0.3198,-0.3098,0.0,0.0,0.0,0.0,0.0,0.0,0.0,0.0,0.0,0.0,0.0,0.0,0.0,0.0,-0.1718,-0.1749,0.0,-0.1645,-0.1189,-0.1088,-0.0953,-0.0505,-0.0423,-0.0679,-0.146,-0.1711,-0.1683,-0.1374,-0.0593,-0.0312,-0.0824,-0.0142,0.0142,-0.0172,0.0285,0.0684,0.1005,0.1492,0.1806,0.195,0.1806,0.1806,0.195,0.195,0.2265,0.2838,0.2838,0.3181,0.3753,0.3753,0.4097,0.4757,0.5961,0.6793,0.7282,0.6679,0.6755,0.721,0.721,0.721,0.721,0.0,0.0,0.0,0.0,0.0,0.0,0.0,0.0,0.5777,0.4901,0.5727,0.5752,0.4006,0.4583,0.4759,0.3905,0.4609,0.4734,0.388,0.4634,0.4734,0.3855,0.383,0.383,0.383,0.3607,0.3204,0.2544,0.2169,0.1663,0.1008,0.0202,-0.0177,-0.0202,-0.101,-0.1364,-0.139,-0.1541,-0.1592,-0.1592,-0.1592,-0.1592,-0.1794,-0.3525,-0.3648,-0.2897,-0.2897,-0.2345,-0.1592,-0.1592,-0.1592,-0.1592,-0.1592,-0.1592,-0.1592,-0.1592,-0.1592,0.0,0.0,0.0,0.0,0.0,0.0,0.0,0.0,-0.1566,-0.1442,-0.144,-0.1311,-0.1211,-0.1259,-0.1263,-0.1021,-0.028,-0.0141,0.0113,0.0817,0.0971,0.0631,-0.0425,-0.0849,-0.0792,-0.0198,0.0886,0.1239,0.0433,0.1368,0.1612,0.0794,0.1524,0.2081,0.2351,0.3376,0.3901,0.3901,0.3901,0.3901,0.3901,0.3901,0.4018,0.4256,0.4256,0.4373,0.4607,0.4607,0.5163,0.6136,0.7105,0.7489,0.7489,0.7489,0.7514,0.7533,0.7337,0.7253,0.7281,0.0,0.0,0.0,0.0,0.0,0.0,0.0,0.0,0.0,0.6196,0.6296,0.6296,0.6071,0.6146,0.6176,0.6046,0.6146,0.6176,0.6046,0.6146,0.6176,0.6052,0.6052,0.6052,0.6052,0.5106,0.4583,0.4483,0.2821,0.1942,0.1841,0.1033,0.0655,0.063,-0.0177,-0.053,-0.0581,-0.1289,-0.1592,-0.1592,-0.1592,-0.1592,-0.1617,-0.1868,-0.1893,-0.1768,-0.1768,-0.1693,-0.1592,-0.1592,-0.1592,-0.1592,-0.1592,-0.1592,-0.1592,-0.1592,0.0,-0.1592,-0.1592,-0.1592,-0.1624,-0.1677,-0.1682,-0.1691,0.0,-0.1088,-0.0533,-0.0543,0.0082,0.0603,0.0613,0.0587,0.0643,0.0728,0.0794,0.0887,0.0973,0.1045,0.1347,0.1987,0.184,0.1898,0.2509,0.298,0.3189,0.3072,0.3417,0.3588,0.3459,0.3564,0.3648,0.3696,0.3813,0.3901,0.3901,0.3901,0.3901,0.3901,0.3901,0.4461,0.5489,0.5489,0.6073,0.7105,0.7105,0.7163,0.7314,0.7431,0.7489,0.7489,0.7489,0.802,0.8685,0.7794,0.7481,0.7591,0.0,0.0,0.0,0.0,0.0,0.0,0.0,0.0,0.0,0.0,0.7875,0.7794,0.6545,0.6396,0.6396,0.6396,0.6974,0.7074,0.6445,0.6974,0.7049,0.642,0.6396,0.6396,0.6396,0.5952,0.5727,0.5727,0.4329,0.3626,0.3601,0.2167,0.1487,0.1462,0.0656,0.0303,0.0277,-0.005,-0.0202,-0.0202,-0.0202,-0.0202,-0.0202,-0.0202,-0.0505,-0.096,-0.144,-0.1592,0.0,0.0,-0.1592,-0.1592,-0.1592,-0.1592,-0.1592,-0.1592,-0.1592,0.0,-0.1592,-0.1246,-0.0899,-0.088,-0.0915,-0.082,-0.0296,0.0108,0.0353,0.0359,0.0638,0.089,0.0896,0.0932,0.1137,0.162,0.2102,0.2589,0.3144,0.357,0.4112,0.4915,0.495,0.4521,0.3614,0.4231,0.44,0.3777,0.4565,0.4737,0.3949,0.4647,0.5066,0.5068,0.582,0.624,0.624,0.624,0.624,0.624,0.624,0.648,0.6965,0.6965,0.727,0.7725,0.7725,0.7725,0.7785,0.8324,0.8564,0.8594,0.9185,0.9692,0.9909,0.8793,0.8729,0.9252,0.0,0.0,0.0,0.0,0.0,0.0,0.0,0.0,0.0,0.0,0.9122,0.8998,0.7447,0.7273,0.7273,0.7273,0.8,0.8124,0.7322,0.8,0.8099,0.7322,0.7273,0.7273,0.7273,0.6999,0.6844,0.6844,0.5782,0.5231,0.5206,0.355,0.2771,0.272,0.1613,0.1134,0.1109,0.0882,0.0806,0.0806,0.0806,0.0806,0.0806,0.0806,0.0429,-0.0177,-0.0985,-0.1415,0.0,0.0,-0.1592,-0.1592,-0.1592,-0.144,-0.1263,-0.1263,-0.109,-0.0916,-0.0916,-0.0464,0.0,0.0026,0.0,0.0135,0.0768,0.1073,0.127,0.1258,0.149,0.1665,0.1665,0.1715,0.1966,0.2601,0.3311,0.4018,0.4679,0.5338,0.6013,0.6643,0.6788,0.6332,0.5064,0.5693,0.5836,0.5049,0.5898,0.6027,0.5042,0.5935,0.646,0.646,0.7378,0.7903,0.7903,0.7903,0.7903,0.7903,0.7903,0.7903,0.7903,0.8177,0.8299,0.8299,0.8574,0.869,0.8751,0.9427,0.97,0.9792,1.052,1.0967,1.1087,1.0192,1.0164,1.0544,0.0,0.0,0.0,0.0,0.0,0.0,0.0,0.0,0.0,0.0,0.0,0.0,0.0,0.9501,0.9501,0.9501,0.9525,0.9525,0.9501,0.9525,0.9525,0.9501,0.9501,0.9501,0.9501,0.8471,0.795,0.795,0.6874,0.6346,0.6321,0.5231,0.4709,0.4634,0.2796,0.1967,0.1917,0.1134,0.0806,0.0806,0.0806,0.0806,0.0806,0.0806,0.0781,0.0655,-0.0151,0.0,0.0,0.0,-0.1592,-0.1592,-0.1592,-0.1061,0.0,-0.0429,0.0153,0.0,0.0828,0.0892,0.0935,0.0869,0.0873,0.0878,0.0893,0.1567,0.2155,0.2155,0.2924,0.3618,0.3618,0.3667,0.3736,0.3736,0.4324,0.473,0.4719,0.5275,0.5894,0.6451,0.662,0.6921,0.7519,0.7735,0.7805,0.7775,0.7805,0.7811,0.778,0.7811,0.7841,0.7841,0.7872,0.7903,0.7903,0.7903,0.7903,0.7903,0.7903,0.7903,0.7933,0.8848,0.9244,0.9305,1.0308,1.0702,1.0694,1.0725,1.0755,1.0762,1.0785,1.136,1.2144,1.2135,1.1525,1.0921,0.0,0.0,0.0,0.0,0.0,0.0,0.0,0.0,0.0,0.0,0.0,0.0,0.0,0.0,0.0,0.0,0.9599,0.9599,0.9599,0.9599,0.9599,0.9599,0.9599,0.9599,0.9599,0.9253,0.9048,0.9048,0.8,0.7471,0.7447,0.6376,0.5482,0.4784,0.4131,0.3453,0.2775,0.2496,0.2395,0.2395,0.2395,0.2395,0.2395,0.2395,0.2068,0.1562,0.0,0.0,0.0,0.0,0.0,0.0,0.0,0.0,0.0,0.0461,0.0,0.0,0.1108,0.1363,0.1791,0.183,0.1792,0.1919,0.2547,0.2914,0.3148,0.3184,0.3805,0.438,0.4428,0.4821,0.5141,0.5141,0.5716,0.6168,0.6047,0.6598,0.7085,0.7288,0.7348,0.7491,0.7807,0.7881,0.7903,0.7903,0.7903,0.7903,0.7903,0.7903,0.7903,0.7903,0.7903,0.7903,0.7903,0.7903,0.8208,0.8848,0.9511,0.9815,0.9846,1.0149,1.0308,1.0308,1.0634,1.0785,1.0846,1.148,1.1722,1.1812,1.2444,1.2934,1.3204,1.3204,1.2994,1.2784,0.0,0.0,0.0,0.0,0.0,0.0,0.0,0.0,0.0,0.0,0.0,0.0,0.0,0.0,0.0,0.0,0.0,0.9599,0.9599,0.9599,0.9599,0.9599,0.9599,0.9599,0.9599,0.9599,0.9599,0.9599,0.8899,0.8577,0.8545,0.7471,0.66,0.5932,0.5532,0.478,0.3783,0.3783,0.3556,0.3206,0.3206,0.3206,0.3206,0.3206,0.2876,0.0,0.0,0.0,0.0,0.0,0.0,0.0,0.0,0.0,0.0,0.0,0.2199,0.2553,0.2041,0.2286,0.2703,0.2758,0.2723,0.2861,0.35,0.3647,0.3666,0.3726,0.428,0.475,0.4798,0.5376,0.5827,0.5827,0.642,0.6855,0.6725,0.728,0.7687,0.7644,0.7676,0.7731,0.7832,0.818,0.8269,0.7933,0.7903,0.7903,0.7903,0.7903,0.8055,0.8391,0.8391,0.8574,0.8934,0.8934,0.9238,0.9852,1.0482,1.0785,1.0815,1.1148,1.1299,1.1329,1.1692,1.185,1.1872,1.2483,1.2754,1.2814,1.3444,1.3693,1.3693,1.3693,1.3693,1.3693,0.0,0.0,0.0,0.0,0.0,0.0,0.0,0.0,0.0,0.0,0.0,0.0,0.0,0.0,0.0,0.0,0.0,0.0,0.9599,0.9599,0.9599,0.9632,0.9624,0.9624,0.9649,0.9649,0.9624,0.9624,0.9624,0.9607,0.9575,0.8545,0.8049,0.795,0.6949,0.5852,0.4809,0.4809,0.4182,0.3206,0.3206,0.3206,0.3206,0.3206,0.0,0.0,0.0,0.0,0.0,0.0,0.0,0.0934,0.0935,0.1511,0.2322,0.3159,0.3455,0.3501,0.3501,0.3542,0.3589,0.3591,0.3591,0.3636,0.3699,0.3713,0.3729,0.3819,0.4383,0.4851,0.4914,0.5517,0.6,0.6,0.6582,0.6977,0.6845,0.7429,0.7803,0.7687,0.7775,0.7853,0.7858,0.8775,0.9001,0.8116,0.8055,0.8055,0.8055,0.8055,0.8452,0.9335,0.9366,0.9822,1.0785,1.0846,1.0876,1.0876,1.0906,1.0936,1.0967,1.1872,1.2264,1.2324,1.3294,1.3693,1.3693,1.3693,1.3693,1.3693,1.3693,1.3693,1.3693,1.3693,1.3693,1.3693,0.0,0.0,0.0,0.0,0.0,0.0,0.0,0.0,0.0,0.0,0.0,0.0,0.0,0.0,0.0,0.0,0.0,0.0,0.9599,0.9599,0.9673,0.9895,0.9895,0.9994,0.0,0.0,0.0,0.9895,0.9895,0.9797,0.9599,0.9327,0.8775,0.8,0.772,0.6551,0.4809,0.4809,0.4182,0.3206,0.0,0.3206,0.3206,0.0,0.0,0.0,0.0,0.0,0.0,0.2737,0.2623,0.2658,0.2722,0.2925,0.3186,0.3417,0.3518,0.3564,0.3564,0.3575,0.36,0.3672,0.3683,0.3699,0.3762,0.3776,0.391,0.4449,0.5077,0.5708,0.6259,0.6935,0.7378,0.7378,0.8111,0.8648,0.8575,0.9295,0.9844,0.9802,0.9837,0.9907,0.9995,1.0249,1.0331,1.0088,1.0058,1.0058,1.0058,1.0058,1.0179,1.0399,1.0429,1.0543,1.0785,1.148,1.1842,1.1842,1.2595,1.2964,1.2964,1.3204,1.3324,1.3324,1.3594,1.3693,1.3693,1.3693,1.3693,1.3693,1.3693,1.3693,1.3693,1.3693,1.3693,1.3693,0.0,0.0,0.0,0.0,0.0,0.0,0.0,0.0,0.0,0.0,0.0,0.0,0.0,0.0,0.0,0.0,0.0,0.0,0.0,0.9895,1.0019,1.0167,1.0191,1.024,0.0,0.0,0.0,0.0,0.0,0.0,0.9772,0.9772,0.9402,0.8701,0.8701,0.7776,0.6207,0.6207,0.0,0.0,0.0,0.0,0.0,0.0,0.0,0.0,0.0,0.0,0.3334,0.3323,0.3328,0.3344,0.3431,0.3471,0.3501,0.3529,0.3561,0.3594,0.365,0.3655,0.3672,0.3732,0.3748,0.3937,0.4736,0.4897,0.5219,0.6323,0.6738,0.7034,0.7429,0.7714,0.8025,0.8452,0.897,0.9431,0.9857,1.0352,1.0681,1.0681,1.0681,1.0711,1.0778,1.1178,1.142,1.142,1.1027,1.0785,1.0785,1.0785,1.0997,1.139,1.142,1.1631,1.2062,1.2595,1.2874,1.2874,1.3414,1.3693,1.3693,1.3693,1.3693,1.3693,1.3693,1.3693,1.3693,1.3693,1.3693,1.3693,1.3693,1.4043,1.454,1.454,1.4867,1.5332,0.0,0.0,0.0,0.0,0.0,0.0,0.0,0.0,0.0,0.0,0.0,0.0,0.0,0.0,0.0,0.0,0.0,0.0,0.0,0.0,0.0,0.0,1.0462,1.0462,1.0511,1.0511,1.0487,1.0462,1.0462,0.0,0.0,0.0,0.0,0.0,0.0,0.0,0.0,0.0,0.0,0.0,0.0,0.0,0.0,0.0,0.0,0.0,0.0,0.385,0.3885,0.3787,0.3607,0.3433,0.3491,0.3507,0.3518,0.3572,0.3594,0.3639,0.3691,0.3713,0.3735,0.3795,0.3871,0.4355,0.5945,0.6386,0.692,0.8587,0.8708,0.8538,0.8629,0.8446,0.8543,0.9366,0.9609,1.0004,1.0846,1.1088,1.1178,1.1178,1.1178,1.1178,1.1178,1.1933,1.2384,1.2384,1.1631,1.1178,1.1178,1.1178,1.1571,1.2354,1.2384,1.2814,1.3684,1.3693,1.3693,1.3693,1.3693,1.3693,1.3693,1.3693,1.3693,1.3693,1.3693,1.3693,1.3693,1.3693,1.3803,1.3953,1.3953,1.4719,1.5836,1.5836,1.6503,1.7413,0.0,0.0,0.0,0.0,0.0,0.0,0.0,0.0,0.0,0.0,1.0531,0.9599,0.0,0.0,0.0,0.0,0.0,0.0,0.0,0.0,0.0,0.0,1.0732,1.083,1.1051,1.1076,1.0953,1.0732,1.0732,0.0,0.0,0.0,0.0,0.0,0.0,0.0,0.0,0.0,0.0,0.0,0.0,0.0,0.0,0.0,0.0,0.0,0.6413,0.6459,0.63,0.5399,0.4354,0.3493,0.3553,0.3572,0.3572,0.3583,0.3652,0.3694,0.3705,0.3743,0.3798,0.3858,0.4261,0.4938,0.6102,0.6825,0.7682,0.9279,0.9589,0.9717,1.027,1.0331,1.0361,1.052,1.1178,1.1752,1.1933,1.2664,1.3204,1.3204,1.3204,1.3204,1.3204,1.3354,1.3444,1.3444,1.3294,1.3204,1.3204,1.3204,1.3264,1.3414,1.3444,1.3504,1.3693,1.3693,1.3693,1.3693,1.3693,1.3693,1.3693,1.3693,1.3693,1.3693,1.3693,1.3693,1.3693,1.3693,1.4311,1.5273,1.5273,1.6013,1.7091,1.7091,1.7208,1.7413,0.0,0.0,0.0,0.0,0.0,0.0,0.0,1.2532,1.1971,1.2248,1.1149,1.0332,1.0332,1.0433,1.0474,0.0,0.0,0.0,0.0,0.0,0.0,0.0,0.0,0.0,0.0,1.1198,1.1149,1.1002,0.0,1.0609,1.0216,1.0068,0.9846,0.9599,0.9599,0.9303,0.0,0.0,0.0,0.0,0.0,0.0,0.0,0.0,0.0,0.0,0.0,0.7106,0.7007,0.6458,0.589,0.5281,0.4717,0.4536,0.4536,0.4536,0.4591,0.466,0.4724,0.4907,0.5283,0.6,0.6535,0.7241,0.8624,0.9188,0.9893,1.1503,1.1412,1.114,1.148,1.1118,1.0967,1.145,1.1903,1.2384,1.2904,1.3384,1.3693,1.3693,1.3693,1.3693,1.3693,1.3693,1.3693,1.3693,1.3693,1.3693,1.3693,1.3693,1.3693,1.3693,1.3693,1.3693,1.3693,1.3693,1.3693,1.3693,1.3693,1.3693,1.3693,1.3693,1.3693,1.3693,1.3693,1.4072,1.4689,1.4689,1.5421,1.6544,1.6544,1.7296,1.8389,1.8389,1.8797,1.939,0.0,0.0,0.0,0.0,0.0,0.0,0.0,1.3461,1.2838,1.3267,1.2092,1.1326,1.1657,1.1323,1.1034,0.0,0.0,0.0,0.0,0.0,0.0,0.0,0.0,0.0,0.0,0.0,0.0,1.1198,1.1002,0.0,0.0,0.0,0.0,0.0,0.9698,0.9673,0.9682,0.9665,0.0,0.0,0.0,0.8832,0.0,0.0,0.0,0.0,0.0,0.8023,0.794,0.7747,0.7692,0.7526,0.6616,0.6065,0.5791,0.5977,0.5973,0.5985,0.6278,0.6526,0.6985,0.8132,0.8702,0.9431,1.0952,1.1404,1.1924,1.3384,1.3084,1.2513,1.2513,1.1933,1.1661,1.2384,1.2513,1.2814,1.3594,1.3693,1.3693,1.3693,1.3693,1.3693,1.3693,1.3693,1.3693,1.3693,1.3693,1.3693,1.3693,1.3693,1.3693,1.3693,1.3693,1.3693,1.3693,1.3693,1.3693,1.3693,1.3693,1.3693,1.3693,1.3693,1.3693,1.3723,1.3983,1.4689,1.5628,1.5865,1.6709,1.7793,1.7793,1.8593,1.9708,1.9708,2.0357,2.1203,0.0,0.0,0.0,0.0,0.0,0.0,0.0,1.5349,1.4597,1.6412,1.3896,1.2434,1.3756,1.2381,1.1373,0.0,0.0,0.0,0.0,0.0,0.0,0.0,0.0,0.0,0.0,0.0,0.0,1.1198,1.1174,0.0,0.0,0.0,0.0,0.0,0.0,0.9969,0.9953,0.9895,0.0,0.0,0.0,0.0,0.0,0.0,0.0,0.0,0.0,1.0989,1.0598,0.9821,0.9546,0.9546,0.9436,0.8272,0.7076,0.7832,0.7703,0.7484,0.8213,0.8282,0.8235,0.8636,0.9219,0.9983,1.1072,1.1714,1.2414,1.3474,1.3624,1.3564,1.3564,1.3474,1.3444,1.3534,1.3564,1.3594,1.3684,1.3693,1.3693,1.3693,1.3693,1.3693,1.3693,1.3693,1.3693,1.3693,1.3693,1.3693,1.3693,1.3693,1.3693,1.3693,1.3693,1.3693,1.3693,1.3693,1.3693,1.3693,1.3693,1.3693,1.3693,1.3693,1.3693,1.3744,1.4927,1.548,1.5688,1.6768,1.7969,1.9116,1.9116,1.991,2.1031,2.1031,2.1089,2.1203,0.0,0.0,0.0,0.0,0.0,0.0,1.6755,1.5572,1.5238,1.6883,1.5476,1.4578,1.5152,1.3933,1.2743,1.1889,0.0,0.0,0.0,0.0,0.0,0.0,0.0,0.0,0.0,0.0,1.1567,1.1567,1.139,0.0,0.0,0.0,0.0,0.0,0.0,1.028,1.0136,1.0253,0.0,0.0,0.0,0.0,0.0,0.0,0.0,0.0,0.0,0.0,1.1345,1.1017,1.0872,1.0924,1.1234,1.0703,0.9902,0.9504,0.9357,0.9379,0.9794,1.0009,1.0309,1.1223,1.1804,1.2256,1.2655,1.2925,1.3204,1.3633,1.3693,1.3693,1.3693,1.3693,1.3693,1.3693,1.3693,1.3693,1.3693,1.3693,1.3693,1.3693,1.3693,1.3693,1.3693,1.3693,1.3693,1.3693,1.3693,1.3693,1.3693,1.3693,1.3693,1.3693,1.3693,1.3693,1.3693,1.3693,1.3693,1.3693,1.3693,1.4102,1.4838,1.4838,1.5254,1.5954,1.6444,1.712,1.7864,1.836,1.929,2.0443,2.0443,2.0744,2.1203,2.1203,2.1203,2.1203,0.0,0.0,0.0,0.0,0.0,1.5488,1.5861,1.5114,1.5034,1.6552,1.5648,1.5007,1.5355,1.4347,1.3271,1.2291,1.2202,0.0,0.0,0.0,0.0,0.0,0.0,0.0,0.0,0.0,1.1787,1.1787,1.1615,1.1537,0.0,0.0,1.1019,1.0837,0.0,0.0,0.0,0.0,0.0,0.0,0.0,0.0,0.0,0.0,0.0,0.0,0.0,0.0,0.0,0.0,0.0,1.19,1.2302,1.2356,1.2101,1.1313,1.107,1.116,1.1503,1.1736,1.2105,1.3114,1.3534,1.3693,1.3693,1.3693,1.3693,1.3693,1.3693,1.3693,1.3693,1.3693,1.3693,1.3693,1.3693,1.3693,1.3693,1.3693,1.3693,1.3693,1.3693,1.3693,1.3693,1.3693,1.3693,1.3693,1.3693,1.3863,1.4252,1.4252,1.4102,1.3723,1.3693,1.3893,1.4252,1.4252,1.4451,1.4778,1.4778,1.5243,1.6131,1.6131,1.6603,1.7413,1.7793,1.8477,1.9319,1.9708,2.0385,2.1203,2.1203,2.1203,2.1203,2.1203,2.1203,2.1203,0.0,0.0,0.0,0.0,0.0,0.0,1.4927,1.404,1.3932,1.5675,1.3879,1.2898,1.4089,1.3142,1.2409,1.2409,1.2409,0.0,0.0,0.0,0.0,0.0,0.0,0.0,0.0,0.0,1.1787,1.1787,1.1787,1.1787,1.1787,1.1537,1.1373,1.1373,0.0,0.0,0.0,0.0,0.0,0.0,0.0,0.0,0.0,0.0,0.0,0.0,0.0,0.0,0.0,0.0,0.0,0.0,0.0,1.2937,1.3136,0.0,1.2942,1.2663,1.3448,1.3414,1.3264,1.3594,1.3693,1.3693,1.3693,1.3693,1.3693,1.3693,1.3693,1.3693,1.3693,1.3693,1.3693,1.3693,1.3693,1.3693,1.3693,1.3693,1.3693,1.3693,1.3693,1.3693,1.3693,1.3693,1.3693,1.3693,1.3693,1.4252,1.551,1.5569,1.5016,1.3753,1.3693,1.4311,1.5569,1.5569,1.619,1.7355,1.7355,1.7355,1.7384,1.7384,1.7384,1.7472,1.8739,1.929,1.9419,2.0644,2.1175,2.1203,2.1203,2.1203,2.1203,2.1203,2.1203,2.1203,0.0,0.0,0.0,0.0,0.0,0.0,0.0,1.3528,1.3932,1.5675,1.5248,1.4927,1.5328,1.432,1.363,1.363,1.2871,0.0,0.0,0.0,0.0,0.0,0.0,0.0,0.0,0.0,1.2211,1.2211,1.2211,1.2104,1.1952,1.2024,1.1899,1.1549,1.1657,1.1433,0.0,0.0,0.0,0.0,0.0,0.0,1.1864,0.0,0.0,0.0,0.0,0.0,0.0,0.0,0.0,0.0,0.0,0.0,0.0,1.3515,1.347,1.337,1.3644,1.3633,1.3564,1.3663,1.3693,1.3693,1.3693,1.3693,1.3693,1.3693,1.3693,1.3693,1.3693,1.3693,1.3693,1.3693,1.3693,1.3693,1.3693,1.3693,1.3693,1.3693,1.4451,1.5016,1.5016,1.5747,1.6238,1.6238,1.6238,1.6385,1.6797,1.6827,1.665,1.6249,1.6238,1.6415,1.6827,1.6827,1.7003,1.7413,1.7413,1.7852,1.871,1.871,1.9174,2.0026,2.0414,2.0587,2.0615,2.1031,2.1203,2.1203,2.1203,2.1203,2.1203,2.1203,2.1203,2.1203,0.0,0.0,0.0,0.0,0.0,0.0,0.0,1.2671,1.3132,1.4417,1.4578,1.4578,1.4578,1.3943,1.3521,1.3521,1.2817,0.0,0.0,0.0,0.0,0.0,0.0,0.0,0.0,1.2409,1.2409,1.2409,1.2409,1.23,1.2137,1.2219,1.2055,1.1755,1.1819,1.17,0.0,0.0,0.0,0.0,0.0,0.0,1.2137,0.0,0.0,0.0,0.0,0.0,0.0,0.0,0.0,0.0,0.0,0.0,0.0,0.0,1.3693,1.3693,1.3693,1.3693,1.3693,1.3693,1.3693,1.3693,1.3693,1.3693,1.3693,1.3693,1.3693,1.3693,1.3693,1.3693,1.3693,1.3693,1.4102,1.4252,1.3773,1.451,1.5137,1.528,1.5967,1.6518,1.6639,1.7327,1.7774,1.7774,1.7774,1.7982,1.8458,1.8487,1.8707,1.921,1.8151,1.7836,1.8307,1.8437,1.8737,1.921,1.921,1.9623,2.0372,2.0372,2.0825,2.1584,2.1584,2.1584,0.0,2.1584,2.1584,2.1584,2.1584,2.1584,2.1584,2.1584,2.1584,2.1584,0.0,0.0,0.0,0.0,0.0,0.0,0.0,1.1591,1.1782,1.2327,1.2409,1.2409,1.2409,1.2409,1.2409,1.2409,0.0,0.0,0.0,0.0,0.0,0.0,0.0,0.0,0.0,1.2409,1.2409,1.2409,1.2409,1.2382,1.2355,1.2137,1.2028,1.2001,1.1755,1.1782,0.0,0.0,0.0,0.0,0.0,0.0,0.0,0.0,0.0,0.0,0.0,0.0,0.0,0.0,0.0,0.0,0.0,0.0,0.0,0.0,0.0,0.0,0.0,1.3693,1.3693,1.3693,1.3693,1.3693,1.3693,1.3693,0.0,1.3693,1.3773,1.3833,1.3833,1.3923,1.3953,1.3953,1.4957,1.5313,1.4152,1.5987,1.7599,1.7901,1.8027,1.8185,1.849,1.8606,1.8667,1.8667,1.8667,1.9198,2.0365,2.0426,2.0983,2.2154,1.9631,1.8788,1.9948,2.0291,2.1043,2.2214,2.2214,2.2214,2.2214,2.2214,2.2214,2.2214,2.2214,2.2214,2.2214,2.2214,2.2214,2.2214,2.2214,2.2214,2.2214,2.2214,2.2214,2.2214,0.0,0.0,0.0,0.0,0.0,0.0,0.0,0.0,0.0,0.0,1.2409,1.2409,1.2409,1.2409,1.2409,0.0,0.0,0.0,0.0,0.0,0.0,0.0,0.0,0.0,0.0,1.2409,1.2409,1.2409,1.2409,1.23,1.2082,1.2246,1.2191,1.2001,1.2137,1.2137,0.0,0.0,0.0,0.0,0.0,0.0,0.0,0.0,0.0,0.0,1.2409,1.2409,0.0,0.0,0.0,0.0,0.0,0.0,0.0,0.0,1.3693,1.3693,1.3693,0.0,1.3693,1.3693,1.3693,1.3693,0.0,1.3693,1.3693,1.3693,1.449,1.5165,1.5165,1.5924,1.6532,1.6532,1.6768,1.6955,1.6915,1.7624,1.8204,1.8264,1.9127,1.9771,1.9867,2.0728,2.1314,2.1314,2.1314,2.1449,2.1749,2.1749,2.1869,2.2184,2.1742,2.1548,2.1649,2.1721,2.1899,2.2214,2.2214,2.2214,2.2214,2.2214,2.2214,2.2214,2.2214,2.2214,2.2214,2.2214,2.2214,2.2214,2.2214,2.2214,2.2214,2.2214,2.2214,2.2214,0.0,0.0,0.0,0.0,0.0,0.0,0.0,0.0,0.0,0.0,0.0,1.2409,1.2409,1.2409,0.0,0.0,0.0,0.0,0.0,0.0,0.0,0.0,0.0,1.2409,1.2409,1.2409,1.2409,1.2409,1.2409,1.2327,1.2191,1.2327,1.2327,1.2191,1.2327,1.2246,0.0,0.0,0.0,0.0,1.2327,0.0,0.0,0.0,0.0,0.0,1.2409,1.2409,0.0,1.2409,1.2475,1.2644,0.0,0.0,0.0,0.0,1.3693,1.3693,1.3693,1.3693,1.3693,1.3693,1.3693,1.3693,1.3693,0.0,1.457,1.457,1.5569,1.6415,1.6415,1.6944,1.7449,1.7612,1.8138,1.883,1.9741,1.9533,1.9511,2.0221,2.095,2.1416,2.1555,2.2196,2.2608,2.2608,2.2608,2.2608,2.2608,2.2608,2.2608,2.2608,2.2754,2.2696,2.2389,2.2535,2.2608,2.2608,2.2608,2.2608,2.2608,2.2608,2.2608,2.2608,2.2608,2.2608,2.2608,2.2608,2.2608,2.2608,2.2608,2.2608,2.2608,2.2608,2.2608,2.2608,0.0,0.0,0.0,0.0,0.0,0.0,0.0,0.0,0.0,0.0,0.0,0.0,0.0,0.0,0.0,0.0,0.0,0.0,0.0,0.0,0.0,0.0,0.0,1.2409,1.2409,1.2409,1.2409,1.2409,1.2409,1.2409,1.2409,1.2409,1.2409,1.2409,1.2409,1.2273,0.0,0.0,0.0,0.0,1.2409,0.0,0.0,0.0,0.0,0.0,0.0,0.0,0.0,1.2409,1.2587,1.2833,1.3032,0.0,0.0,0.0,0.0,0.0,1.3923,1.3983,1.3983,1.3983,1.3983,1.4043,1.4222,0.0,1.5865,1.5865,1.6891,1.7767,1.7767,1.798,1.8239,1.8506,1.9509,2.0718,2.2063,2.1397,2.1205,2.2513,2.2665,2.2798,2.3076,2.3106,2.3106,2.3106,2.3106,2.3106,2.3106,2.3106,2.3106,2.3106,2.3106,2.2974,2.2665,2.2974,2.3106,2.3106,2.3106,2.3106,2.3106,2.3106,2.3106,2.3106,2.3106,2.3106,2.3106,2.3106,2.3106,2.3106,2.3106,2.3106,2.3106,2.3106,2.3106,2.3106,0.0,0.0,0.0,0.0,0.0,0.0,0.0,0.0,0.0,0.0,0.0,0.0,0.0,0.0,0.0,0.0,0.0,0.0,0.0,0.0,0.0,1.2055,1.2273,1.2409,1.2409,1.2409,1.2409,1.2409,1.2409,1.2409,1.2409,1.2409,1.2409,1.2409,1.2409,1.2382,1.2327,0.0,0.0,0.0,1.2409,0.0,0.0,0.0,0.0,0.0,0.0,0.0,0.0,1.2409,1.2587,1.2833,1.3032,0.0,0.0,0.0,0.0,0.0,1.5016,1.5302,1.5302,1.5302,1.5302,1.5569,1.6591,0.0,1.712,1.712,1.8332,1.9427,1.9427,2.0545,2.1471,2.1514,2.1879,2.2248,2.2519,2.2599,2.2757,2.3001,2.3032,2.3047,2.3106,2.3106,2.3106,2.3106,2.3106,2.3106,2.3106,2.3106,2.3106,2.3106,2.3106,2.3091,2.3032,2.3091,2.3106,2.3106,2.3106,2.3106,2.3106,2.3106,2.3106,2.3106,2.3106,2.3106,2.3106,2.3106,2.3106,2.3106,2.3106,2.3106,2.3106,2.3106,2.3106,2.3106,0.0,0.0,0.0,0.0,0.0,0.0,0.0,0.0,0.0,0.0,0.0,0.0,0.0,0.0,0.0,0.0,0.0,0.0,0.0,0.0,0.0,1.2001,1.211,1.2191,1.2191,1.2327,1.2409,1.2409,1.2409,1.2409,1.2409,1.2409,1.2409,1.2409,1.2409,1.2409,1.2409,1.2409,0.0,0.0,0.0,0.0,0.0,0.0,0.0,0.0,0.0,0.0,0.0,0.0,1.3849,1.4184,1.4247,0.0,0.0,0.0,0.0,0.0,1.6426,1.6573,1.6738,1.7425,1.7073,1.6709,1.7267,0.0,1.8694,1.8694,1.9978,2.1103,2.1103,2.1709,2.2242,2.2389,2.2681,2.2855,2.2855,2.3018,2.3106,2.3106,2.3106,2.3106,2.3106,2.3106,2.3106,2.3106,2.3106,2.3106,2.3106,2.3106,2.3106,2.3106,2.3106,2.3106,2.3106,2.3106,2.3106,2.3106,2.3106,2.3106,2.3106,2.3106,2.3106,2.3106,2.3106,2.3106,2.3106,2.3106,2.3106,2.3106,2.3106,2.3106,2.3106,2.3106,2.3106,2.3106,0.0,0.0,0.0,0.0,0.0,0.0,0.0,0.0,0.0,0.0,0.0,0.0,0.0,0.0,0.0,0.0,0.0,0.0,0.0,0.0,1.1973,1.1919,1.2028,1.2055,1.2001,1.2246,1.2409,1.2409,1.2409,1.2409,1.2409,1.2409,1.2409,1.2409,1.2409,1.2409,1.2409,1.2409,1.2409,0.0,0.0,0.0,0.0,0.0,0.0,0.0,0.0,0.0,0.0,0.0,0.0,0.0,0.0,0.0,0.0,1.622,1.668,1.7472,1.7764,1.7901,1.8273,1.9542,0.0,0.0,0.0,0.0,0.0,2.0356,2.1381,2.2286,2.2286,2.2345,2.2476,2.2665,2.2914,2.3106,2.3106,2.3106,2.3106,2.3106,2.3106,2.3106,2.3106,2.3106,2.3106,2.3106,2.3106,2.3106,2.3106,2.3106,2.3106,2.3106,2.3179,2.3223,2.3223,2.3296,2.3267,2.3106,2.3106,2.3106,2.3106,2.3106,2.3106,2.3106,2.3106,2.3106,2.3106,2.3106,2.3106,2.3106,2.3106,2.3106,2.3106,2.3106,2.3106,2.3106,0.0,0.0,0.0,0.0,0.0,0.0,0.0,0.0,0.0,0.0,0.0,0.0,0.0,0.0,0.0,0.0,0.0,0.0,0.0,0.0,1.1891,1.1646,1.211,1.2246,1.2001,1.2246,1.2409,1.2409,1.2409,1.2409,1.2409,1.2409,1.2409,1.2409,1.2409,1.2409,1.2409,1.2409,1.2409,1.2428,0.0,0.0,0.0,0.0,0.0,0.0,0.0,0.0,0.0,0.0,0.0,0.0,0.0,0.0,1.5924,1.6973,1.7325,1.7647,1.8855,1.9373,1.991,2.1203,2.0572,0.0,2.1115,2.1728,0.0,2.202,2.2313,2.2563,2.2563,2.2842,2.3047,2.3076,2.3091,2.3106,2.3106,2.3106,2.3106,2.3106,2.3106,2.3106,2.3106,2.3106,2.3106,2.3106,2.3106,2.3106,2.3106,2.3106,2.3106,2.3106,2.3398,2.3559,2.3559,2.3866,2.3706,2.3106,2.3106,2.3106,2.3106,2.3106,2.3106,2.3106,2.3106,2.3106,2.3106,2.3106,2.3106,2.3106,2.3106,2.3106,2.3106,2.3106,2.3106,2.3106,0.0,0.0,0.0,0.0,0.0,0.0,0.0,0.0,0.0,0.0,0.0,0.0,0.0,0.0,0.0,0.0,0.0,0.0,0.0,1.1755,1.17,1.1591,1.1946,1.211,1.2001,1.2246,1.2409,1.2409,1.2409,1.2409,1.2409,1.2409,1.2409,1.2409,1.2409,1.2484,1.2644,1.2644,1.272,1.2833,1.2946,0.0,0.0,0.0,0.0,0.0,0.0,0.0,0.0,0.0,1.7612,1.7877,1.8311,1.8764,1.9029,1.868,1.9277,2.017,2.0667,2.1054,2.1414,2.1875,2.1766,0.0,0.0,2.2242,2.2462,2.2462,2.271,2.2899,2.2899,2.3018,2.3106,2.3106,2.3106,2.3106,2.3106,2.3106,2.3106,2.3106,2.3106,2.3106,2.3106,2.3106,2.3106,2.3106,2.3296,2.3413,2.3413,2.3603,2.372,2.372,2.3837,2.3896,2.3896,2.406,2.3954,2.372,2.372,2.372,2.372,2.372,2.372,2.372,2.372,2.372,2.372,2.372,2.372,2.372,2.372,2.372,2.372,2.372,2.372,2.372,0.0,0.0,0.0,0.0,0.0,0.0,0.0,0.0,0.0,0.0,0.0,0.0,0.0,0.0,0.0,0.0,0.0,0.0,1.1455,1.1537,1.1537,1.1455,1.181,1.2001,1.2001,1.2164,1.2327,1.2409,1.2409,1.2409,1.2391,1.2484,1.254,1.2522,1.2579,1.272,1.289,1.289,1.2965,1.3098,1.3174,1.3452,0.0,0.0,0.0,0.0,0.0,0.0,0.0,0.0,1.9187,1.9377,1.9766,2.0213,2.0529,2.015,2.0827,2.1715,2.1818,2.2081,2.233,2.233,0.0,0.0,2.252,2.2637,2.2738,2.2738,2.2959,2.3106,2.3106,2.3106,2.3106,2.3106,2.3106,2.3106,2.3106,2.3106,2.3149,2.3252,2.3267,2.331,2.3413,2.3413,2.3413,2.3413,2.3618,2.3749,2.3749,2.4001,2.4118,2.4118,2.4221,2.4265,2.4265,2.4368,2.4426,2.4426,2.4426,2.4309,2.4118,2.4118,2.4118,2.4118,2.4118,2.4118,2.4118,2.4118,2.4118,2.4118,2.4118,2.4118,2.4118,2.4118,2.4118,2.4118,0.0,0.0,0.0,0.0,0.0,0.0,0.0,0.0,0.0,0.0,0.0,0.0,0.0,0.0,0.0,0.0,0.0,0.0,1.1072,1.14,1.1455,1.1126,1.1673,1.2001,1.2001,1.2001,1.2137,1.2409,1.2391,1.2391,1.2418,1.2663,1.2795,1.2804,1.3003,1.3098,1.3098,1.3098,1.3098,1.3146,1.3335,1.417,0.0,0.0,0.0,0.0,0.0,0.0,0.0,0.0,1.9319,1.9535,2.0802,2.0328,1.966,2.1248,2.1701,2.1774,2.2096,2.2403,2.2592,2.2592,2.2841,2.3106,2.3106,2.3106,2.3106,2.3106,2.3106,2.3106,2.3106,2.3106,2.3106,2.3106,2.3106,2.312,2.312,2.312,2.3237,2.3559,2.3603,2.372,2.4089,2.4118,2.4118,2.4118,2.4086,2.4086,2.4086,2.4118,2.4118,2.4118,2.4441,2.4602,2.4602,2.4924,2.5086,2.5086,2.5086,2.4749,2.4118,2.4118,2.4118,2.4118,2.4118,2.4118,2.4118,2.4118,2.4118,2.4118,2.4118,2.4118,2.4118,2.4118,2.4118,2.4118,0.0,0.0,0.0,0.0,0.0,0.0,0.0,0.0,0.0,0.0,0.0,0.0,0.0,0.0,0.0,0.0,0.0,0.0,1.1099,1.14,1.1646,1.1728,1.2082,1.2273,1.2273,1.2273,1.2327,1.2409,1.2597,1.2673,1.27,1.2909,1.3003,1.3003,1.307,1.3183,1.3325,1.3325,1.3927,1.479,1.3956,1.4883,0.0,0.0,0.0,0.0,0.0,0.0,0.0,0.0,0.0,0.0,2.1365,2.1278,2.1131,2.1846,2.2184,2.2344,2.2431,2.2725,2.2959,2.2959,2.3032,2.3106,2.3106,2.3106,2.3106,2.3106,2.3106,2.3106,2.3106,2.3106,2.3179,2.3413,2.3457,2.353,2.3764,2.3793,2.3837,2.3925,2.394,2.3984,2.4071,2.4118,2.4118,2.4118,2.4324,2.4456,2.4456,2.4675,2.4807,2.4807,2.4895,2.4939,2.4939,2.5042,2.5086,2.5086,2.5086,2.4983,2.4807,2.4807,2.4807,2.4807,2.4807,2.4807,2.4807,2.4807,2.4807,2.4807,2.4807,2.4807,2.4807,2.4807,2.4807,2.4807,0.0,0.0,0.0,0.0,0.0,0.0,0.0,0.0,0.0,0.0,0.0,0.0,0.0,0.0,0.0,0.0,0.0,0.0,0.0,1.1345,1.1618,1.1646,1.1919,1.2137,1.2246,1.2439,1.2569,1.2569,1.2729,1.2833,1.2918,1.3126,1.3221,1.3231,1.3306,1.3674,1.4231,1.374,1.4597,1.622,1.4957,1.5954,1.8085,0.0,0.0,0.0,0.0,0.0,0.0,0.0,0.0,0.0,2.1789,2.1891,2.195,2.2271,2.2476,2.2621,2.2753,2.2959,2.3106,2.3106,2.3106,2.3106,2.3106,2.3106,2.3106,2.3106,2.3208,2.331,2.331,2.3413,2.3559,2.3764,2.3793,2.3866,2.4057,2.4118,2.4162,2.4294,2.4309,2.4353,2.4485,2.4499,2.4499,2.4499,2.469,2.4793,2.4793,2.4983,2.5086,2.5086,2.5086,2.5086,2.5086,2.5086,2.5086,2.5086,2.5086,2.5086,2.5086,2.5086,2.5086,2.5086,2.5086,2.5086,2.5086,2.5086,2.5086,2.5086,2.5086,2.5086,2.5086,2.5086,2.5086,2.5086,0.0,0.0,0.0,0.0,0.0,0.0,0.0,0.0,0.0,0.0,0.0,0.0,0.0,0.0,0.0,0.0,0.0,0.0,0.0,0.0,1.1455,1.1181,1.1509,1.1782,1.2028,1.2543,1.2804,1.2823,1.2842,1.2946,1.3126,1.3344,1.3419,1.3458,1.3608,1.4341,1.5372,1.4311,1.5243,1.7296,1.622,1.7237,1.9477,1.9348,0.0,0.0,0.0,0.0,0.0,0.0,0.0,0.0,2.2125,2.2258,2.2286,2.2579,2.2636,2.2694,2.3032,2.3106,2.3106,2.3106,2.3135,2.3149,2.3149,2.3179,2.3193,2.3164,2.3413,2.3647,2.3647,2.3881,2.4118,2.4162,2.4162,2.4162,2.4206,2.4206,2.4309,2.4617,2.4646,2.4763,2.5056,2.5086,2.5086,2.5086,2.5086,2.5086,2.5086,2.5086,2.5086,2.5086,2.5086,2.5086,2.5086,2.5086,2.5086,2.5086,2.5086,2.5086,2.5086,2.5086,2.5086,2.5086,2.5086,2.5086,2.5086,2.5086,2.5086,2.5086,2.5086,2.5086,2.5086,2.5086,2.5086,2.5086,0.0,0.0,0.0,0.0,0.0,0.0,0.0,0.0,0.0,0.0,0.0,0.0,0.0,0.0,0.0,0.0,0.0,0.0,0.0,0.0,1.1646,1.181,1.2082,1.2246,1.23,1.2626,1.2871,1.3032,1.3202,1.3277,1.3354,1.3532,1.3657,1.3627,1.3665,1.3833,1.4162,1.4867,1.6042,1.7384,1.712,1.8535,2.0673,1.9679,0.0,0.0,0.0,0.0,0.0,0.0,0.0,0.0,2.2432,2.249,2.2593,2.2915,2.3003,2.3018,2.3091,2.3106,2.3106,2.3106,2.3296,2.3486,2.3486,2.3691,2.3793,2.3545,2.3749,2.3984,2.3984,2.4027,2.4206,2.4456,2.4499,2.4587,2.4851,2.488,2.491,2.4983,2.4983,2.5012,2.5086,2.5086,2.5086,2.5086,2.5086,2.5086,2.5086,2.5086,2.5086,2.5086,2.5086,2.5086,2.5086,2.5086,2.5086,2.5086,2.5086,2.5086,2.5086,2.5086,2.5086,2.5086,2.5086,2.5086,2.5086,2.5086,2.5086,2.5086,2.5086,2.5086,2.5086,2.5086,2.5086,2.5086,0.0,0.0,0.0,0.0,0.0,0.0,0.0,0.0,0.0,0.0,0.0,0.0,0.0,0.0,0.0,0.0,0.0,0.0,0.0,0.0,1.1728,1.2001,1.2246,1.2466,1.2597,1.2833,1.3041,1.325,1.3458,1.3532,1.3562,1.3636,1.3693,1.3693,1.3693,1.4371,1.548,1.5569,1.7015,1.9174,1.8564,1.9477,0.0,0.0,0.0,0.0,0.0,0.0,0.0,0.0,0.0,0.0,0.0,0.0,2.2855,2.3062,2.3106,2.3106,2.3106,2.3106,2.3149,2.331,2.3471,2.3632,2.3793,2.4118,2.4309,2.4101,2.4236,2.4353,2.4353,2.447,2.4646,2.4807,2.4836,2.4895,2.5071,2.5086,2.5086,2.5086,2.5086,2.5086,2.5086,2.5086,2.5086,2.5086,2.5086,2.5086,2.5086,2.5086,2.5086,2.5086,2.5086,2.5086,2.5086,2.5086,2.5086,2.5086,2.5086,2.5086,2.5086,2.5086,2.5086,2.5086,2.5086,2.5086,2.5086,2.5086,2.5086,2.5086,2.5086,2.5086,2.5086,2.5086,2.5086,2.5086,0.0,0.0,0.0,0.0,0.0,0.0,0.0,0.0,0.0,0.0,0.0,0.0,0.0,0.0,0.0,0.0,0.0,0.0,0.0,0.0,0.0,1.2055,1.2283,1.2495,1.2795,1.3032,1.324,1.3391,1.3589,1.3693,0.0,1.3693,1.3693,1.3723,1.3923,1.5165,1.7032,1.6485,1.804,2.0802,1.9968,0.0,0.0,0.0,0.0,0.0,0.0,0.0,0.0,0.0,0.0,0.0,0.0,0.0,2.3106,2.3106,2.3106,2.3106,2.3106,2.3149,2.3252,2.353,2.3676,2.3837,2.4101,2.4456,2.469,2.469,2.469,2.469,2.469,2.491,2.5086,2.5086,2.5086,2.5086,2.5086,2.5086,2.5086,2.5086,2.5086,2.5086,2.5086,2.5086,2.5086,2.5086,2.5086,2.5086,2.5086,2.5086,2.5086,2.5086,2.5086,2.5086,2.5086,2.5086,2.5086,2.5086,2.5086,2.5086,2.5086,2.5086,2.5086,2.5086,2.5086,2.5086,2.5086,2.5086,2.5086,2.5086,2.5086,2.5086,2.5086,2.5086,2.5086,2.5086,0.0,0.0,0.0,0.0,0.0,0.0,0.0,0.0,0.0,0.0,0.0,0.0,0.0,0.0,0.0,0.0,0.0,0.0,0.0,0.0,0.0,1.2327,1.234,1.2488,1.2795,1.3174,1.3362,1.3391,1.3589,0.0,0.0,0.0,0.0,1.3744,0.0,1.554,1.5983,1.7969,1.9087,1.965,0.0,0.0,0.0,0.0,0.0,0.0,0.0,0.0,0.0,0.0,2.2782,0.0,0.0,0.0,2.3106,2.3106,2.3106,2.3106,2.3106,2.331,2.3545,2.3588,2.406,2.4485,2.4529,2.4793,2.5027,2.5027,2.5027,2.5027,2.5027,2.5056,2.5086,2.5086,2.5086,2.5086,2.5086,2.5086,2.5086,2.5086,2.5086,2.5086,2.5086,2.5086,2.5086,2.5086,2.5086,2.5086,2.5086,2.5086,2.5086,2.5086,2.5086,2.5086,2.5086,2.5086,2.5086,2.5086,2.5086,2.5086,2.5086,2.5086,2.5086,2.5086,2.5086,2.5086,2.5086,2.5086,2.5086,2.5086,2.5086,2.5086,2.5086,2.5086,2.5086,2.5086,0.0,0.0,0.0,0.0,0.0,0.0,0.0,0.0,0.0,0.0,0.0,0.0,0.0,0.0,0.0,0.0,0.0,0.0,0.0,0.0,0.0,1.234,1.2488,1.2758,1.3136,1.3325,1.3477,1.3561,0.0,0.0,0.0,1.4748,1.4748,0.0,0.0,0.0,0.0,0.0,0.0,0.0,0.0,0.0,0.0,0.0,0.0,0.0,0.0,0.0,0.0,0.0,2.2988,2.3106,2.3106,0.0,0.0,0.0,2.3106,2.3149,2.3325,2.3486,2.3691,2.4089,2.4397,2.4646,2.4836,2.4983,2.5086,2.5086,2.5086,2.5086,2.5086,2.5086,2.5086,2.5086,2.5086,2.5086,2.5086,2.5086,2.5086,2.5086,2.5086,2.5086,2.5086,2.5086,2.5086,2.5086,2.5086,2.5086,2.5086,2.5086,2.5086,2.5086,2.5086,2.5086,2.5086,2.5086,2.5086,2.5086,2.5086,2.5086,2.5086,2.5086,2.5086,2.5086,2.5086,2.5086,2.5086,2.5086,2.5086,2.5086,2.5086,2.5086,2.5086,2.5086,2.5086,2.5086,0.0,0.0,0.0,0.0,0.0,0.0,0.0,0.0,0.0,0.0,0.0,0.0,0.0,0.0,0.0,0.0,0.0,0.0,0.0,0.0,0.0,1.2355,1.2664,1.2955,1.3264,1.3409,1.3542,1.3693,0.0,0.0,1.5599,1.6249,1.6544,0.0,1.7472,1.8419,0.0,0.0,0.0,0.0,0.0,0.0,0.0,0.0,0.0,0.0,0.0,0.0,0.0,0.0,0.0,2.3106,2.3106,2.3106,0.0,0.0,0.0,2.3281,2.353,2.372,2.3954,2.4485,2.4661,2.4793,2.5027,2.5086,2.5086,2.5086,2.5086,2.5086,2.5086,2.5086,2.5086,2.5086,2.5086,2.5086,2.5086,2.5086,2.5086,2.5086,2.5086,2.5086,2.5086,2.5086,2.5086,2.5086,2.5086,2.5086,2.5086,2.5159,2.5203,2.5203,2.5291,2.5335,2.5335,2.5335,2.5335,2.5335,2.5335,2.5335,2.5335,2.5335,2.5335,2.532,2.5159,2.5086,2.5086,2.5086,2.5086,2.51,2.5188,2.5203,2.5217,2.5305,2.5335,2.5335,0.0,0.0,0.0,0.0,0.0,0.0,0.0,0.0,0.0,0.0,0.0,0.0,0.0,0.0,1.0798,1.1072,1.1072,1.1395,1.2199,1.2022,1.2102,1.2556,1.2776,0.0,1.2942,1.3422,1.3674,0.0,0.0,0.0,1.5658,1.801,1.9116,1.9116,1.9174,1.9232,1.9403,0.0,0.0,0.0,0.0,0.0,0.0,0.0,0.0,0.0,0.0,0.0,0.0,0.0,0.0,0.0,0.0,2.3106,2.3106,0.0,0.0,0.0,2.3588,2.4042,2.4558,2.4587,2.4836,2.5071,2.5086,2.5086,2.5086,2.5086,2.5086,2.5086,2.5086,2.5086,2.5086,2.5086,2.5086,2.5086,2.5086,2.5086,2.5086,2.5086,2.5086,2.5086,2.5086,2.5086,2.5086,2.5086,2.5086,2.5086,2.5086,2.5344,2.5471,2.5471,2.5813,2.5939,2.5939,2.5939,2.5939,2.5939,2.5939,2.5939,2.5939,2.5939,2.5939,2.593,2.5349,2.5086,2.5086,2.5086,2.5086,2.513,2.5388,2.5471,2.5515,2.5857,2.5939,2.5939,0.0,0.0,0.0,0.0,0.0,0.0,0.0,0.0,0.0,0.0,0.0,0.0,0.0,1.0688,1.0743,1.0825,1.1328,1.1612,1.1603,1.2275,1.2622,1.2532,1.2964,1.3271,1.3401,1.4411,1.4927,0.0,0.0,1.7179,1.7998,1.8884,1.9846,2.0827,2.0628,2.0643,2.087,2.1467,0.0,0.0,0.0,0.0,0.0,0.0,0.0,0.0,0.0,0.0,0.0,0.0,0.0,0.0,0.0,0.0,0.0,2.3106,2.334,2.3647,2.3852,2.4265,2.4646,2.4866,2.4998,2.5086,2.5086,2.5086,2.5086,2.5086,2.5086,2.5086,2.5086,2.5086,2.5086,2.5086,2.5086,2.5086,2.5086,2.5086,2.5159,2.533,2.5359,2.5447,2.5652,2.5666,2.5666,2.5666,2.5666,2.5666,2.5666,2.5783,2.5807,2.5807,2.5959,2.6018,2.6018,2.6018,2.6018,2.6018,2.6018,2.6018,2.6018,2.6018,2.6018,2.6003,2.5769,2.5666,2.5666,2.5666,2.5666,2.5681,2.5763,2.5807,2.5822,2.5974,2.6018,2.6018,0.0,0.0,0.0,0.0,0.0,0.0,0.0,0.0,0.0,0.0,0.0,0.0,0.0,0.0,1.0865,1.1034,1.1515,1.1811,1.1769,1.2365,1.2745,1.2738,1.3131,1.3611,1.4152,1.5105,1.5806,0.0,0.0,0.0,0.0,1.9846,2.0682,2.1686,2.1584,2.1657,0.0,0.0,0.0,2.2607,0.0,0.0,2.3106,0.0,0.0,0.0,0.0,0.0,0.0,0.0,0.0,0.0,0.0,0.0,0.0,0.0,0.0,2.3837,2.4192,2.4514,2.4822,2.5042,2.5086,2.5086,2.5086,2.5086,2.5086,2.5086,2.5086,2.513,2.5232,2.5213,2.5213,2.5213,2.5335,2.5408,2.5408,2.5408,2.5461,2.5632,2.5661,2.5749,2.6003,2.6018,2.6018,2.6018,2.6018,2.6018,2.6018,2.612,2.6237,2.6339,2.6339,2.6339,2.6339,2.6339,2.6339,2.6339,2.6339,2.6339,2.6339,2.6339,2.6339,2.6339,2.6339,2.6222,2.6018,2.6018,2.6018,2.5997,2.6135,2.6179,2.6193,2.631,2.6339,2.6339,0.0,0.0,0.0,0.0,0.0,0.0,0.0,0.0,0.0,0.0,0.0,0.0,0.0,0.0,0.0,1.1647,1.1684,1.2029,1.2824,1.2334,1.2382,1.3135,1.3204,1.3824,1.5055,1.5451,1.6249,1.7472,1.8739,1.9361,1.9403,0.0,2.1701,2.173,2.2082,2.2228,2.2228,0.0,2.2592,2.2636,0.0,2.3106,2.3106,0.0,0.0,0.0,2.3106,2.3106,0.0,2.3106,0.0,0.0,0.0,0.0,0.0,0.0,0.0,0.0,0.0,0.0,0.0,2.5086,2.5086,2.5086,2.5086,2.5086,2.5086,2.5086,2.51,2.5203,2.5442,2.5515,2.5529,2.5529,2.5778,2.6018,2.6018,2.6018,2.5982,2.5997,2.5997,2.6032,2.6047,2.6047,2.6047,2.6047,2.6047,2.6047,2.6047,2.6339,2.6661,2.6983,2.6983,2.6983,2.6983,2.6983,2.6983,2.6983,2.6983,2.6983,2.6983,2.6983,2.6983,2.6983,2.6983,2.6632,2.6047,2.6047,2.6047,2.6076,2.6398,2.6515,2.6559,2.6866,2.6983,2.6983,0.0,0.0,0.0,0.0,0.0,0.0,0.0,0.0,0.0,0.0,0.0,0.0,0.0,0.0,1.1253,1.1528,1.1645,1.1828,1.2098,1.2433,1.259,1.2475,1.3174,1.4033,1.5084,1.6267,1.753,1.8768,2.0055,2.0801,2.1059,2.1511,0.0,0.0,2.2462,2.2637,2.2842,2.2651,0.0,2.2988,2.3076,2.3106,0.0,0.0,0.0,0.0,0.0,2.3106,2.3106,0.0,2.3106,2.3149,0.0,0.0,0.0,0.0,0.0,0.0,2.4573,0.0,0.0,0.0,0.0,0.0,2.5086,2.5086,2.5086,2.5086,2.5242,2.5432,2.5486,2.5915,2.6237,2.6237,2.6105,2.6018,2.6018,2.6018,2.6105,2.6339,2.6369,2.6457,2.6705,2.672,2.672,2.672,2.672,2.672,2.672,2.6808,2.6896,2.6983,2.6983,2.6983,2.6983,2.6983,2.6983,2.6983,2.6983,2.6983,2.6983,2.6983,2.6983,2.6983,2.6983,2.6881,2.672,2.672,2.672,2.6735,2.6822,2.6852,2.6866,2.6954,2.6983,2.6983,0.0,0.0,0.0,0.0,0.0,0.0,0.0,0.0,0.0,0.0,0.0,0.0,0.0,0.0,0.0,1.1598,1.1694,1.1807,1.1963,1.238,1.261,1.2625,1.3704,1.4827,1.6031,1.7472,1.8891,2.0307,2.1032,2.1584,2.1906,2.2023,0.0,0.0,0.0,0.0,0.0,0.0,0.0,0.0,2.3106,0.0,0.0,2.3106,2.3106,0.0,0.0,0.0,2.3325,2.3471,2.3515,0.0,0.0,0.0,0.0,0.0,0.0,0.0,0.0,0.0,0.0,0.0,0.0,0.0,2.5086,2.5086,2.513,2.5227,2.5403,2.5588,2.5886,2.6252,2.6544,2.6691,2.6544,2.6427,2.6427,2.6427,2.65,2.6676,2.6705,2.6778,2.6969,2.6983,2.6983,2.6983,2.6983,2.6983,2.6983,2.6983,2.6983,2.6983,2.6983,2.6983,2.6983,2.6983,2.6983,2.6983,2.6983,2.6983,2.6983,2.6983,2.6983,2.6983,2.6983,2.6983,2.6983,2.6983,2.6983,2.6983,2.6983,2.6983,2.6983,2.6983,2.6983,2.6983,0.0,0.0,0.0,0.0,0.0,0.0,0.0,0.0,0.0,0.0,0.0,0.0,0.0,0.0,0.0,0.0,1.179,1.1872,1.2144,1.2187,1.2487,1.3054,1.4292,1.5717,1.7361,1.8544,2.0,2.1745,2.1745,2.192,2.2242,2.2506,0.0,0.0,0.0,0.0,0.0,0.0,0.0,2.3106,2.3106,2.3106,2.3106,2.3106,2.3135,2.3208,2.3486,2.3618,2.3691,2.3984,2.4101,0.0,0.0,0.0,0.0,0.0,2.4661,0.0,0.0,0.0,0.0,0.0,2.5086,0.0,2.5086,2.5221,2.5411,2.5702,2.5894,2.624,2.6881,2.7015,2.7114,2.723,2.7238,2.7202,2.702,2.6983,2.6983,2.6983,2.6983,2.6983,2.6983,2.6983,2.6983,2.6983,2.6983,2.6983,2.6983,2.6983,2.6983,2.6983,2.6983,2.6983,2.6983,2.6983,2.6983,2.6983,2.6983,2.6983,2.6983,2.6983,2.6983,2.6983,2.6983,2.6983,2.6983,2.6983,2.6983,2.6983,2.6983,2.6983,2.6983,2.6983,2.6983,2.6983,0.0,0.0,0.0,0.0,0.0,0.0,0.0,0.0,0.0,0.0,0.0,0.0,0.0,0.0,0.0,0.0,1.1638,1.1644,1.185,1.2226,1.2417,1.2414,1.3414,1.5059,1.7357,1.7918,1.9469,2.2096,2.2096,2.2242,2.2504,0.0,0.0,0.0,0.0,0.0,0.0,0.0,2.3106,2.3106,2.3106,2.3106,2.3106,2.3106,2.3267,2.3515,2.3574,2.3764,2.3998,2.4089,2.4294,2.4514,0.0,0.0,0.0,2.4983,0.0,0.0,0.0,0.0,0.0,0.0,2.5086,0.0,2.5086,2.5947,2.6829,2.7275,2.8479,2.9593,3.0026,3.036,3.0151,2.8947,2.8783,2.8367,2.7165,2.6983,2.6983,2.6983,2.6983,2.6983,2.6983,2.6983,2.6983,2.6983,2.6983,2.6983,2.6983,2.6983,2.6983,2.6983,2.6983,2.6983,2.6983,2.6983,2.6983,2.6983,2.6983,2.6983,2.6983,2.6983,2.6983,2.6983,2.6983,2.6983,2.6983,2.6983,2.6983,2.6983,2.6983,2.6983,2.6983,2.6983,2.6983,2.6983,0.0,0.0,0.0,0.0,0.0,0.0,0.0,0.0,0.0,0.0,0.0,0.0,0.0,0.0,0.0,0.0,0.0,0.0,0.0,1.2445,1.2673,1.2759,1.4638,1.6351,1.778,1.9283,2.0826,2.2403,2.2403,2.2564,2.2871,2.2871,0.0,0.0,0.0,0.0,0.0,0.0,2.3106,2.3106,2.3106,2.3208,2.3354,2.3354,2.3559,2.3866,2.406,2.4324,2.4602,2.4602,2.4705,0.0,2.4851,2.4954,2.5086,0.0,2.5086,2.5086,0.0,0.0,0.0,2.5086,0.0,0.0,0.0,2.6133,2.7262,2.7922,2.9307,3.0566,3.1149,3.1371,3.1014,2.9449,2.9214,2.8676,2.7202,2.6983,2.6983,2.6983,2.6983,2.6983,2.6983,2.6983,2.6983,2.6983,2.6983,2.6983,2.6983,2.6983,2.6983,2.6983,2.6983,2.6983,2.6983,2.6983,2.6983,2.6983,2.6983,2.6983,2.6983,2.6983,2.6983,2.6983,2.6983,2.6983,2.6983,2.6983,2.6983,2.6983,2.6983,2.6983,2.6983,2.6983,2.6983,2.6983,0.0,0.0,0.0,0.0,0.0,0.0,0.0,0.0,0.0,0.0,0.0,0.0,0.0,0.0,0.0,0.0,0.0,0.0,0.0,1.3304,1.3649,1.3788,1.632,1.8037,1.868,2.081,2.2175,2.268,2.268,2.2811,2.3106,2.3106,2.3106,0.0,0.0,0.0,0.0,0.0,2.3208,2.3208,2.3267,2.3413,2.3603,2.3662,2.3896,2.425,2.4573,2.4866,2.5086,2.5086,2.5086,2.5086,2.5086,2.5086,0.0,0.0,0.0,0.0,0.0,0.0,0.0,0.0,0.0,2.5153,0.0,0.0,0.0,2.8899,3.0242,3.1471,3.2245,3.2351,3.1738,2.977,2.9547,2.8988,2.7061,2.691,2.6983,2.6983,2.6983,2.6983,2.6983,2.6983,2.6983,2.6983,2.6983,2.6983,2.6983,2.6983,2.6983,2.6983,2.6983,2.6983,2.6983,2.6983,2.6983,2.6983,2.6983,2.6983,2.6983,2.6983,2.6983,2.6983,2.6983,2.6983,2.6983,2.6983,2.6983,2.6983,2.6983,2.6983,2.6983,2.6983,2.6983,2.6983,0.0,0.0,0.0,0.0,0.0,0.0,0.0,0.0,0.0,0.0,0.0,0.0,0.0,0.0,0.0,0.0,0.0,0.0,1.4579,0.0,0.0,1.5639,1.7072,1.8699,2.0478,2.0786,2.1647,2.3047,2.3047,2.3076,2.3106,2.3106,2.3106,2.3106,2.3106,0.0,0.0,2.3413,2.3545,2.3574,2.3852,2.3823,2.3632,2.391,2.4265,2.4587,2.491,2.5056,2.5086,2.5086,2.5086,2.5086,0.0,2.5086,2.5086,2.5086,0.0,0.0,0.0,0.0,0.0,0.0,2.5086,2.5423,2.6586,0.0,2.9569,3.1686,0.0,3.4464,3.5331,0.0,0.0,3.0908,3.0854,3.0039,2.6582,2.6632,2.6983,2.6983,2.6983,2.6983,2.6983,2.6983,2.6983,2.6983,2.6983,2.6983,2.6983,2.6983,2.6983,2.6983,2.6983,2.6983,2.6983,2.6983,2.6983,2.6983,2.6983,2.6983,2.6983,2.6983,2.6983,2.6983,2.6983,2.6983,2.6983,2.6983,2.6983,2.6983,2.6983,2.6983,2.6983,2.6983,2.6983,2.6983,0.0,0.0,0.0,0.0,0.0,0.0,0.0,0.0,0.0,0.0,0.0,0.0,0.0,0.0,0.0,0.0,0.0,1.4968,1.4913,0.0,0.0,1.7111,1.8635,1.9951,2.0958,2.1752,2.2446,2.3106,2.3106,2.3106,2.3106,2.3106,2.3208,2.3398,2.3398,2.3501,2.3676,2.3823,2.3881,2.391,2.4265,2.4309,2.4206,2.4353,2.4602,2.491,2.5042,2.5086,2.5086,2.5086,2.5086,2.5086,2.5086,0.0,0.0,2.5086,0.0,0.0,0.0,0.0,0.0,2.7086,2.7077,2.7032,2.8427,2.9977,3.154,3.2756,0.0,0.0,0.0,0.0,0.0,0.0,3.0741,3.0347,2.7033,2.6822,2.6983,2.6983,2.6983,2.6983,2.6983,2.6983,2.6983,2.6983,2.6983,2.6983,2.6983,2.6983,2.6983,2.6983,2.6983,2.6983,2.6983,2.6983,2.6983,2.6983,2.6983,2.6983,2.6983,2.6983,2.6983,2.6983,2.6983,2.6983,2.6983,2.6983,2.6983,2.6983,2.6983,2.6983,2.6983,2.6983,2.6983,2.6983,0.0,0.0,0.0,0.0,0.0,0.0,0.0,0.0,0.0,0.0,0.0,0.0,1.2727,1.2743,0.0,0.0,1.5369,1.6279,1.6552,0.0,1.9306,0.0,0.0,0.0,2.1897,2.2895,2.3369,2.3369,2.3369,2.3369,2.3369,2.3369,2.3501,2.3735,2.3735,2.3866,2.4118,2.4206,2.425,2.428,2.4602,2.4734,2.4734,2.4734,2.488,2.5086,2.5086,2.5086,2.5086,2.5086,2.5086,2.5086,2.5086,2.5086,2.51,0.0,0.0,0.0,2.6614,2.6408,2.6356,2.7942,2.7799,2.7786,2.9598,3.0728,3.1854,3.3523,3.4041,0.0,0.0,0.0,3.3481,2.9582,0.0,2.9884,2.7131,2.6881,2.6983,2.6983,2.6983,2.6983,2.6983,2.6983,2.6983,2.6983,2.6983,2.6983,2.6983,2.6983,2.6983,2.6983,2.6983,2.6983,2.6983,2.6983,2.6983,2.6983,2.6983,2.6983,2.6983,2.6983,2.6983,2.6983,2.6983,2.6983,2.6983,2.6983,2.6983,2.6983,2.6983,2.7238,2.755,2.7129,2.6983,2.6983,0.0,1.2296,0.0,0.0,0.0,0.0,0.0,1.271,1.2783,1.2783,1.2783,1.2856,0.0,0.0,0.0,0.0,0.0,1.8864,2.0684,2.2148,2.264,0.0,0.0,2.3652,0.0,2.4057,2.4089,2.4089,2.4089,2.4089,2.4089,2.4089,2.4057,2.4071,2.4071,2.4071,2.4133,2.4456,2.4587,2.4617,2.4939,2.5071,2.5071,2.5071,2.5086,2.5086,2.5086,2.5086,2.5086,2.5086,2.5086,2.5086,2.5086,2.5086,2.5144,2.5418,2.6554,2.7469,2.6339,2.7076,2.7859,2.6464,2.6093,2.6828,2.9731,2.9252,2.9608,3.437,3.3038,3.1635,3.3446,0.0,0.0,0.0,0.0,0.0,0.0,2.6588,2.6983,2.6983,2.6983,2.6983,2.6983,2.6983,2.6983,2.6983,2.6983,2.6983,2.6983,2.6983,2.6983,2.6983,2.6983,2.6983,2.6983,2.6983,2.6983,2.6983,2.6983,2.6983,2.6983,2.6983,2.6983,2.6983,2.6983,2.6983,2.6983,2.6983,2.6983,2.6983,2.6983,2.7876,2.8963,2.7514,2.6983,2.6983,0.0,0.0,0.0,0.0,0.0,1.2645,1.2735,1.2897,1.3003,1.3003,1.3116,1.3214,1.3305,1.4189,1.5282,1.6591,1.8775,2.0319,2.0961,2.2719,2.3565,0.0,0.0,2.3988,0.0,0.0,0.0,2.4118,2.4118,2.4118,2.4118,2.4118,2.4236,2.4441,2.4441,2.4558,2.4763,2.488,2.4924,2.4939,2.5042,2.5086,2.5086,2.5086,2.5086,2.5086,2.5086,2.5086,2.513,2.5301,2.5374,2.5403,2.5622,2.5696,2.5918,2.7047,2.7717,2.8454,2.997,3.0072,2.9833,3.0191,2.9812,2.9545,3.0513,3.0527,3.0816,3.2487,3.2018,3.1178,3.082,0.0,0.0,0.0,0.0,0.0,0.0,2.6852,2.6983,2.6983,2.6983,2.6983,2.6983,2.6983,2.6983,2.6983,2.6983,2.6983,2.6983,2.6983,2.6983,2.6983,2.6983,2.6983,2.6983,2.6983,2.6983,2.6983,2.6983,2.6983,2.6983,2.6983,2.6983,2.6983,2.6983,2.6983,2.6983,2.6983,2.6983,2.7093,2.8078,2.8748,2.9142,2.864,2.9107,2.9984,1.2994,0.0,0.0,0.0,1.2808,1.2921,1.3019,1.3124,1.3223,1.3223,1.3329,1.3667,1.4405,1.5195,1.6319,1.7837,1.9985,2.1489,2.2024,2.3582,2.4357,2.4126,2.4324,2.4456,0.0,0.0,0.0,0.0,0.0,2.4456,2.4456,2.4456,2.4573,2.4778,2.4778,2.4895,2.5086,2.5086,2.5086,2.5086,2.5086,2.5159,2.5227,2.5227,2.5188,2.51,2.5217,2.5227,2.5271,2.5593,2.5676,2.5705,2.5909,2.6018,2.6208,2.733,2.8427,2.9586,3.1012,3.1526,3.1731,3.2072,3.165,3.1322,3.1808,3.1722,3.1789,3.2875,3.2246,3.1367,3.0908,3.0766,0.0,0.0,0.0,0.0,0.0,2.6983,2.6983,2.6983,2.6983,2.6983,2.6983,2.6983,2.6983,2.6983,2.6983,2.6983,2.6983,2.6983,2.6983,2.6983,2.6983,2.6983,2.6983,2.6983,2.6983,2.6983,2.6983,2.6983,2.6983,2.6983,2.6983,2.6983,2.6983,2.6983,2.6983,2.6983,2.6983,2.7093,2.8042,2.8748,2.9286,2.9806,3.066,3.1508,1.3402,1.3402,1.3262,1.2904,1.3003,1.3165,1.3378,1.341,1.3419,1.3419,1.3495,1.4276,1.6165,1.6254,1.752,2.0916,2.1596,2.2456,2.3952,2.4713,2.5086,0.0,2.5086,2.5086,2.5086,0.0,0.0,0.0,0.0,2.5086,2.5086,2.5086,2.5086,2.5086,2.5086,2.5086,2.5086,2.5086,2.51,2.5115,2.5115,2.5271,2.5515,2.5515,2.5359,2.5173,2.5447,2.5515,2.5573,2.5895,2.6012,2.6047,2.6026,2.6061,2.612,2.6499,2.8636,3.0663,2.9602,3.1437,3.3345,3.186,3.1508,3.1895,3.3345,3.2526,3.2316,3.5177,3.3519,3.193,3.331,3.119,0.0,0.0,0.0,0.0,0.0,2.6983,2.6983,2.6983,2.6983,2.6983,2.6983,2.6983,2.6983,2.6983,2.6983,2.6983,2.6983,2.6983,2.6983,2.6983,2.6983,2.6983,2.6983,2.6983,2.6983,2.6983,2.6983,2.6983,2.6983,2.6983,2.6983,2.6983,2.6983,2.6983,2.6983,2.6983,2.6983,2.6998,2.7093,2.8006,2.9485,3.0978,3.1543,3.1614,1.3402,1.3402,1.3384,1.3399,1.336,1.3353,1.3402,1.349,1.3536,1.3536,1.4623,1.5597,1.6135,1.8363,2.0303,2.148,2.2935,2.4088,2.4781,2.4984,2.5086,2.5086,2.5086,2.5086,2.5086,2.5086,0.0,2.5086,0.0,2.5086,2.5086,2.5086,2.5086,2.5086,2.5086,2.5086,2.5086,2.5086,2.5232,2.5403,2.5403,2.5608,2.5851,2.5851,2.5842,2.5783,2.5857,2.5851,2.5909,2.6266,2.6383,2.6427,2.6661,2.6735,2.6966,2.8177,2.9071,2.9835,3.0662,3.1473,3.2,3.1614,3.1508,3.1614,3.2,3.1789,3.1719,3.2491,3.2035,3.1261,3.0518,2.9735,2.8855,0.0,0.0,0.0,0.0,2.6983,2.6983,2.6983,2.6983,2.6983,2.6983,2.6983,2.6983,2.6983,2.6983,2.6983,2.6983,2.6983,2.6983,2.6983,2.6983,2.6983,2.6983,2.6983,2.6983,2.6983,2.6983,2.6983,2.6983,2.6983,2.6983,2.6983,2.6983,2.6983,2.6983,2.6983,2.6983,2.7093,2.8223,2.9556,3.0978,3.1367,3.2211,3.3206,1.3638,1.3638,1.3636,1.3706,1.3669,1.3638,1.3638,1.3693,1.3723,1.3723,1.454,1.569,1.7153,1.8903,2.0721,2.2559,2.3665,2.4442,2.4815,2.4984,2.5086,2.5086,2.5086,2.5086,2.5086,2.5086,0.0,2.5086,0.0,2.5086,2.5086,2.5086,2.5086,2.5086,2.5086,2.5086,2.51,2.5247,2.5447,2.5705,2.5705,2.5909,0.0,2.6222,2.631,2.6442,2.6442,2.6354,2.6281,2.6603,2.672,2.6749,2.6939,2.6983,2.7165,2.797,2.8676,2.9377,3.0269,3.0978,3.1508,3.1508,3.1508,3.1508,3.1508,3.2035,3.2491,3.2491,3.3014,3.3206,3.2351,3.1067,2.9501,0.0,0.0,0.0,0.0,2.6983,2.6983,2.6983,2.6983,2.6983,2.6983,2.6983,2.6983,2.6983,2.6983,2.6983,2.6983,2.6983,2.6983,2.6983,2.7623,2.7659,2.6998,2.7623,2.7623,2.6983,2.6983,2.6983,2.6983,2.6983,2.6983,2.6983,2.6983,2.6983,2.6983,2.6983,2.6983,2.7129,2.8604,3.0127,3.1508,3.1508,3.2035,3.2875,1.3904,1.3904,1.3904,1.3904,1.3904,1.3904,1.3904,1.3904,1.3904,1.3904,1.4252,1.562,1.8508,1.9008,2.0432,2.3713,2.4102,2.4272,2.4563,2.4916,2.5086,2.5086,2.5086,2.5086,2.5086,2.5086,2.5086,0.0,0.0,2.5086,2.5086,2.5086,2.5115,2.5159,2.5159,2.5173,2.5232,2.5476,2.5749,2.6076,2.6076,2.6281,2.6574,2.6574,2.6749,2.6983,2.6983,2.6808,2.6603,2.6896,2.6983,2.6983,2.6983,2.6983,2.702,2.7238,2.8186,2.925,2.9449,3.0482,3.1508,3.1508,3.1649,3.1754,3.1543,3.2665,3.3745,3.3554,3.4505,3.5348,3.5143,3.2805,3.0055,2.742,2.6983,2.6983,2.6983,2.6983,2.6983,2.6983,2.6983,0.0,2.6983,2.6983,2.6983,2.6983,2.6983,2.6983,2.6983,2.6983,2.6983,2.6983,2.8223,2.8295,2.702,2.8259,2.8259,2.6983,2.6983,2.7093,2.7274,2.7274,2.742,2.7586,2.7586,2.7586,2.7586,2.7586,2.7586,2.7731,2.8999,3.034,3.1508,3.1508,3.1508,3.1719,1.3904,1.3904,1.3904,1.3904,1.3904,1.3904,1.3904,1.3904,1.3904,1.3904,1.607,1.7854,1.8414,2.1205,2.329,2.3918,2.4544,2.4916,2.4984,2.5052,2.5086,2.5086,2.5086,2.5086,2.5086,2.5086,2.5086,0.0,0.0,2.5086,2.5086,2.5086,2.5232,2.5447,2.5447,2.5593,2.5857,2.59,2.612,2.6413,2.6413,2.6617,2.691,2.691,2.6939,2.6983,2.6983,2.6954,2.691,2.6969,2.6983,2.6983,2.6983,2.6983,2.7238,2.8475,2.8999,2.9485,3.0766,3.1296,3.1508,3.1508,3.2456,3.3067,3.1789,3.2665,3.3449,3.2176,3.2105,3.1895,3.0624,2.8963,2.7623,2.7093,2.6983,2.6983,2.6983,2.6983,2.6983,2.6983,2.6983,2.6983,2.6983,2.6983,2.6983,2.6983,2.6983,2.6983,2.6983,2.6983,2.6983,2.6983,2.7238,2.7274,2.6983,2.7274,2.7274,2.6983,2.6983,2.7623,2.8819,2.8819,2.9501,3.0695,3.0695,3.0695,3.0695,3.0695,3.0695,3.073,3.1014,3.1261,3.1508,3.1508,3.1508,3.1719,1.3904,1.3904,1.3904,1.3904,1.3904,1.4145,1.4919,1.5026,1.5026,1.5026,1.6494,1.81,1.9681,2.1618,2.3188,2.4156,2.4578,2.4883,2.5086,2.5086,2.5086,2.5086,2.5086,2.5086,2.5086,2.5086,2.5173,2.5301,2.5301,2.5388,2.5549,2.5388,2.5476,2.5749,2.5749,2.5959,2.6266,2.6266,2.6457,2.6749,2.6749,2.6852,2.6983,2.6983,2.6983,2.6983,2.6983,2.6983,2.6983,2.6983,2.6983,2.6983,2.6983,2.7514,2.8295,2.8999,2.977,3.0553,3.1296,3.1508,3.1508,3.1508,3.207,3.2211,3.066,3.1508,3.2176,3.0624,3.0943,3.1014,2.9485,2.8604,2.7913,2.7129,2.6983,2.6983,2.6983,2.6983,2.6983,2.6983,2.6983,2.6983,2.6983,2.6983,2.6983,2.6983,2.7695,2.7804,2.702,2.7731,2.7804,2.702,2.7731,2.7768,2.6998,2.8547,2.8927,2.815,2.8963,2.9715,3.0376,3.0376,3.0801,3.1508,3.1508,3.1508,3.1508,3.1508,3.1965,3.2665,3.2665,3.3171,3.3831,3.3831,3.3831,3.3831,1.3904,1.3904,1.3904,1.3904,1.4145,1.475,1.5903,1.6362,1.6609,1.6609,1.7127,1.8449,2.0941,2.1803,2.2798,2.436,2.4563,2.4781,2.5086,2.5159,2.5188,2.5188,2.5261,2.5291,2.5291,2.5291,2.5388,2.5602,2.5602,2.5734,2.5982,2.5719,2.5813,2.612,2.6193,2.6369,2.6603,2.6603,2.6749,2.6983,2.6983,2.6983,2.6983,2.6983,2.6983,2.6983,2.6983,2.6983,2.6983,2.6983,2.6983,2.6983,2.6983,2.7804,2.8783,2.9107,3.0055,3.1155,3.1825,3.2,3.2,3.2,3.2,3.1508,2.9628,3.0127,3.0589,2.9035,2.9699,3.0162,2.8963,2.8712,2.8367,2.7202,2.6983,2.6983,2.6983,2.6983,2.6983,2.6983,2.6983,2.6983,2.6983,2.6983,2.6983,2.6983,2.8078,2.8223,2.7056,2.8078,2.8186,2.702,2.8439,2.864,2.7478,3.0127,3.0908,2.9699,3.0908,3.1684,3.2,3.2,3.2176,3.2456,3.2456,3.2456,3.2456,3.2456,3.3171,3.4264,3.4264,3.4971,3.5982,3.5982,3.5982,3.5845,1.3904,1.3904,1.3904,1.3904,1.499,1.5938,1.6079,1.7303,1.817,1.817,1.9367,2.0491,2.1148,2.2743,2.3986,2.4461,2.4815,2.5052,2.5086,2.533,2.5456,2.5456,2.5734,2.593,2.593,2.593,2.5944,2.5939,2.5939,2.5953,2.6018,2.5988,2.6149,2.6471,2.6764,2.691,2.6939,2.6939,2.6969,2.6983,2.6983,2.6983,2.6983,2.6983,2.6983,2.6983,2.6983,2.6983,2.6983,2.6983,2.6983,2.6983,2.6983,2.7093,2.7492,2.8819,2.9306,3.002,3.2823,3.3588,3.3588,3.3588,3.3588,3.2805,2.9877,2.9322,2.8999,2.7514,2.7311,2.7384,2.7238,2.7202,2.7165,2.702,2.6983,2.6983,2.6983,2.6983,2.6983,2.6983,2.6983,2.6983,2.6983,2.6983,2.6983,2.6983,2.7129,2.7129,2.6998,2.7129,2.7129,2.6983,2.8439,2.9142,2.8999,3.066,3.1437,3.1296,3.1437,3.2211,3.3588,3.3588,3.4298,3.5572,3.5572,3.5572,3.5572,3.5572,3.5675,3.5811,3.5811,3.5879,3.5982,3.5982,3.5982,3.5982,1.3904,1.3904,1.3937,1.405,1.4571,1.5642,1.7616,1.8631,1.9774,2.1431,2.1428,2.1769,2.3051,2.4223,2.4953,2.509,2.5417,2.5637,2.5637,2.5754,2.5792,2.5792,2.5909,2.6018,2.6018,2.6018,2.612,2.631,2.631,2.6413,2.6603,2.6398,2.6383,2.6515,2.6852,2.6983,2.6983,2.6983,2.6983,2.6983,2.6983,2.6983,2.6983,2.6983,2.6983,2.6983,2.6983,2.6983,2.6983,2.6983,2.6983,2.6983,2.6983,2.7623,2.8439,2.9035,2.9842,3.0837,3.207,3.2421,3.2421,3.2421,3.2421,3.186,2.9699,2.9214,2.8783,2.7311,2.6983,2.6983,2.6983,2.6983,2.6983,2.6983,2.6983,2.6983,2.6983,2.6983,2.6983,2.6983,2.6983,2.6983,2.6983,2.6983,2.6983,2.6983,2.784,2.7934,2.7056,2.8727,2.9286,2.8367,2.977,3.0589,3.0589,3.2105,3.2893,3.2875,3.3762,3.4505,3.5108,3.5108,3.5416,3.5982,3.5982,3.5982,3.5982,3.5982,3.5982,3.5982,3.5982,3.5982,3.5982,3.5982,3.5982,3.5982,1.4058,1.4058,1.4099,1.4229,1.5048,1.6422,1.8742,2.0116,2.1678,2.3825,2.3262,2.3169,2.4458,2.5155,2.5542,2.5646,2.5851,2.6018,2.6018,2.6105,2.6164,2.6164,2.6252,2.631,2.631,2.631,2.6413,2.6647,2.6647,2.6764,2.6983,2.6749,2.6647,2.6661,2.6881,2.6983,2.6983,2.6983,2.6983,2.6983,2.6983,2.6983,2.6983,2.6983,2.6983,2.6983,2.6983,2.6983,2.6983,2.6983,2.6983,2.6983,2.6983,2.7695,2.8532,2.8532,2.9322,3.0269,3.0695,3.0837,3.0943,3.1402,3.1155,3.0553,2.9449,2.8855,2.8259,2.7202,2.6983,2.6983,2.6983,2.6983,2.6983,2.6983,2.6983,2.6983,2.6983,2.6983,2.6983,2.6983,2.6983,2.6983,2.6983,2.6983,2.6983,2.6983,2.7985,2.8295,2.7695,2.9679,3.0518,2.9913,3.1367,3.2176,3.2176,3.3692,3.4436,3.4471,3.5485,3.5982,3.5982,3.5982,3.5982,3.5982,3.5982,3.5982,3.5982,3.5982,3.5982,3.5982,3.5982,3.5982,3.5982,3.5982,3.5982,3.5982,1.4387,1.4387,1.4387,1.4387,1.6984,1.9054,1.9101,2.1762,2.4017,2.477,2.4876,2.4862,2.4897,2.5264,2.5616,2.5982,2.6018,2.6018,2.6018,2.631,2.65,2.65,2.6808,2.6983,2.6983,2.6983,2.6983,2.6983,2.6983,2.6983,2.6983,2.6983,2.6983,2.6983,2.6983,2.6983,2.6983,2.6983,2.6983,2.6983,2.6983,2.6983,2.6983,2.6983,2.6983,2.6983,2.6983,2.6983,2.6983,2.6983,2.6983,2.6983,2.6983,2.702,2.7034,2.7034,2.702,2.7384,2.8819,2.925,2.9592,3.112,3.034,2.9214,2.9214,2.8078,2.702,2.6983,2.6983,2.6983,2.6983,2.6983,2.6983,2.6983,2.6983,2.6983,2.6983,2.6983,2.6983,2.6983,2.6983,2.6983,2.6983,2.6983,2.6983,2.6983,2.702,2.7659,2.9107,2.9214,2.9913,3.1437,3.2962,3.3762,3.3762,3.5245,3.5982,3.5982,3.5982,3.5982,3.5982,3.5982,3.5982,3.5982,3.5982,3.5982,3.5982,3.5982,3.5982,3.5982,3.5982,3.5982,3.5982,3.5982,3.5982,3.5982,1.4395,1.5302,1.6112,1.622,1.7973,1.9859,2.1393,2.273,2.4024,2.5361,2.599,2.6243,2.594,2.6078,2.6197,2.6354,2.6559,2.6676,2.6676,2.6778,2.6837,2.6837,2.6939,2.6983,2.6983,2.6983,2.6983,2.6983,2.6983,2.6983,2.6983,2.6983,2.6983,2.6983,2.6983,2.6983,2.6983,2.6983,2.6983,2.6983,2.6983,2.6983,2.6983,2.6983,2.6983,2.6983,2.6983,2.6983,2.6983,2.6983,2.6983,2.6983,2.6983,2.6983,2.6983,2.6983,2.6983,2.7093,2.755,2.7695,2.784,2.8295,2.8057,2.7695,2.7695,2.7347,2.6983,2.6983,2.6983,2.6983,2.6983,2.6983,2.6983,2.6983,2.6983,2.6983,2.6983,2.6983,2.6983,2.6983,2.6983,2.6983,2.6983,2.6983,2.6983,2.6983,2.7934,2.8259,2.7731,2.9644,3.0978,3.1473,3.3969,3.5314,3.5314,3.5777,3.5982,3.5982,3.5982,3.5982,3.5982,3.5982,3.5982,3.5982,3.5982,3.5982,3.5982,3.5982,3.5982,3.5982,3.5982,3.5982,3.5982,3.5982,3.5982,3.5982,1.5526,1.6852,1.8006,1.8108,1.9436,2.0969,2.236,2.3437,2.4485,2.5653,2.6363,2.6728,2.6655,2.6663,2.6691,2.6691,2.6866,2.6983,2.6983,2.6983,2.6983,2.6983,2.6983,2.6983,2.6983,2.6983,2.6983,2.6983,2.6983,2.6983,2.6983,2.6983,2.6983,2.6983,2.6983,2.6983,2.6983,2.6983,2.6983,2.6983,2.6983,2.6983,2.6983,2.6983,2.6983,2.6983,2.6983,2.6983,2.6983,2.6983,2.6983,2.6983,2.6983,2.6983,2.6983,2.6983,2.6983,2.6983,2.6983,2.6983,2.6983,2.6983,2.6983,2.6983,2.6983,2.6983,2.6983,2.6983,2.6983,2.6983,2.6983,2.6983,2.6983,2.6983,2.6983,2.6983,2.6983,2.6983,2.6983,2.6983,2.6983,2.6983,2.6983,2.7478,2.784,2.784,2.9214,2.9663,2.8727,3.1014,3.263,3.3153,3.504,3.5982,3.5982,3.5982,3.5982,3.5982,3.5982,3.5982,3.5982,3.5982,3.5982,3.5982,3.5982,3.5982,3.5982,3.5982,3.5982,3.5982,3.5982,3.5982,3.5982,3.5982,3.5982,3.5982,1.7369,1.8688,1.9849,1.9962,2.1314,2.2372,2.2446,2.4044,2.5437,2.5864,2.6259,2.6654,2.702,2.7056,2.7056,2.7056,2.7013,2.6983,2.6983,2.6983,2.6983,2.6983,2.6983,2.6983,2.6983,2.6983,2.6983,2.6983,2.6983,2.6983,2.6983,2.6983,2.6983,2.6983,2.6983,2.6983,2.6983,2.6983,2.6983,2.6983,2.6983,2.6983,2.6983,2.6983,2.6983,2.6983,2.6983,2.6983,2.6983,2.6983,2.6983,2.6983,2.6983,2.6983,2.6983,2.6983,2.6983,2.6983,2.6983,2.6983,2.6983,2.6983,2.6983,2.6983,2.6983,2.7013,2.7027,2.7027,2.7042,2.7056,2.7056,2.7056,2.7056,2.7056,2.7056,2.7056,2.7056,2.7056,2.7056,2.7056,2.7056,2.713,2.7239,2.8465,2.9314,2.9457,3.0868,3.1718,3.1718,3.3209,3.4596,3.5811,3.5947,3.5982,3.5982,3.5982,3.5982,3.5982,3.5982,3.5982,3.5982,3.5982,3.5982,3.5982,3.5982,3.5982,3.5982,3.5982,3.5982,3.5982,3.5982,3.5982,3.5982,3.5982,3.5982,3.5982,1.7178,1.8688,2.0188,2.1438,2.298,2.4253,2.4867,2.5589,2.6275,2.698,2.7345,2.7565,2.7692,2.7692,2.7692,2.7692,2.7276,2.6983,2.6983,2.6983,2.6983,2.6983,2.6983,2.6983,2.6983,2.6983,2.6983,2.6983,2.6983,2.6983,2.6983,2.6983,2.6983,2.6983,2.6983,2.6983,2.6983,2.6983,2.6983,2.6983,2.6983,2.6983,2.6983,2.6983,2.6983,2.6983,2.6983,2.6983,2.6983,2.6983,2.6983,2.6983,2.6983,2.6983,2.6983,2.6983,2.6983,2.6983,2.6983,2.6983,2.6983,2.6983,2.6983,2.6983,2.6983,2.7188,2.7364,2.7364,2.7554,2.7692,2.7692,2.7692,2.7692,2.7692,2.7692,2.7692,2.7692,2.7692,2.7692,2.7692,2.7692,2.8201,2.947,2.9897,3.0632,3.1856,3.3338,3.4161,3.4161,3.5619,3.5791,3.4386,3.5416,3.5982,3.5982,3.5982,3.5982,3.5982,3.5982,3.5982,3.5982,3.5982,3.5982,3.5982,3.5982,3.5982,3.5982,3.5982,3.5982,3.5982,3.5982,3.5982,3.5982,3.5982,3.5982,3.5982,1.8196,1.9774,2.1464,2.3277,2.429,2.5079,2.5726,2.6124,2.6495,2.6952,2.7297,2.7473,2.7473,2.7473,2.7473,2.7473,2.7429,2.74,2.74,2.74,2.74,2.74,2.74,2.74,2.74,2.74,2.74,2.74,2.74,2.74,2.74,2.74,2.74,2.74,2.74,2.74,2.74,2.74,2.74,2.74,2.74,2.74,2.74,2.74,2.7335,2.7217,2.7217,2.7115,2.6983,2.6983,2.6983,2.6983,2.6983,2.6983,2.6983,2.6983,2.6983,2.6983,2.6983,2.6983,2.7027,2.7174,2.7217,2.7247,2.7393,2.7569,2.77,2.77,2.7794,2.7911,2.7911,2.7911,2.7911,2.7911,2.7911,2.7911,2.7911,2.7911,2.7911,2.7911,2.7911,2.8574,3.0224,3.1023,3.2073,3.3675,3.5204,3.6043,3.6043,3.6862,3.6642,3.5171,3.5896,3.623,3.5982,3.5982,3.5982,3.5982,3.5982,3.5982,3.5982,3.5982,3.5982,3.5982,3.5982,3.5982,3.5982,3.5982,3.5982,3.5982,3.5982,3.5982,3.5982,3.5982,3.5982,3.5982,1.9811,2.1314,2.2893,2.4857,2.5263,2.5446,2.5836,2.6208,2.6508,2.6581,2.6881,2.713,2.713,2.713,2.7159,2.7203,2.7663,2.7926,2.778,2.7809,2.7838,2.7838,2.7882,2.7911,2.7911,2.7911,2.7911,2.7911,2.7911,2.7911,2.7911,2.7911,2.7911,2.7911,2.7911,2.7911,2.7911,2.7911,2.7911,2.7911,2.7911,2.7911,2.7911,2.7911,2.7751,2.7554,2.7554,2.7364,2.713,2.713,2.713,2.713,2.713,2.713,2.713,2.713,2.713,2.713,2.7071,2.71,2.7203,2.7481,2.7554,2.7613,2.7853,2.7955,2.7984,2.7984,2.8028,2.8057,2.8057,2.8057,2.8057,2.8057,2.8057,2.8057,2.8057,2.8057,2.8057,2.8057,2.8057,2.8724,3.0383,3.1667,3.3085,3.4686,3.6232,3.7126,3.7126,3.7339,3.7305,3.6875,3.6832,3.6582,3.6177,3.6152,3.6113,3.6113,3.6021,3.5982,3.5982,3.5982,3.5982,3.5982,3.5982,3.5982,3.5982,3.5982,3.5982,3.5982,3.5982,3.5982,3.5982,3.5982,3.5982,3.5982,2.1239,2.2322,2.3215,2.4894,2.5483,2.5836,2.6239,2.6577,2.6949,2.7282,2.7604,2.7765,2.7765,2.7765,2.7868,2.8145,2.8262,2.7984,2.7188,2.7393,2.7554,2.7554,2.7765,2.7911,2.7911,2.7911,2.7911,2.7911,2.7911,2.7911,2.7911,2.7911,2.7911,2.7911,2.7911,2.7911,2.7911,2.7911,2.7911,2.7911,2.7911,2.7911,2.7911,2.7911,2.7882,2.7838,2.7838,2.7809,2.7765,2.7765,2.7765,2.7765,2.7765,2.7765,2.7765,2.7765,2.7765,2.7707,2.7481,2.7598,2.778,2.7824,2.7838,2.7853,2.7897,2.8131,2.8321,2.8321,2.8564,2.8739,2.8739,2.8739,2.8739,2.8739,2.8739,2.8739,2.8739,2.8739,2.8739,2.8739,2.8739,2.9398,3.0981,3.1363,3.2184,3.3788,3.5445,3.6349,3.6349,3.7669,3.8184,3.7734,3.7383,3.7168,3.7109,3.6738,3.6597,3.6597,3.6191,3.5982,3.5982,3.5982,3.5982,3.5982,3.5982,3.5982,3.5982,3.5982,3.5982,3.5982,3.5982,3.5982,3.5982,3.5982,3.5982,3.5982,2.2519,2.3152,2.3959,2.6004,2.6528,2.6789,2.7161,2.7329,2.7505,2.7692,2.7824,2.7911,2.7911,2.7911,2.797,2.8131,2.8131,2.7941,2.7502,2.7817,2.7993,2.7993,2.7926,2.7911,2.7911,2.8087,2.8174,2.8174,2.8335,2.8461,2.8461,2.8461,2.8461,2.8461,2.8461,2.8461,2.8461,2.8461,2.8461,2.8461,2.8461,2.8461,2.8461,2.8461,2.8321,2.8174,2.8174,2.8057,2.7911,2.7911,2.7911,2.7911,2.7911,2.7911,2.7911,2.7911,2.7911,2.7882,2.7736,2.7809,2.7955,2.8131,2.8174,2.8218,2.8379,2.8578,2.8681,2.8681,2.8798,2.8886,2.8886,2.8886,2.8886,2.8886,2.8886,2.8886,2.8886,2.8886,2.8886,2.8886,2.8886,2.9881,3.2348,3.2576,3.3638,3.6164,3.707,3.7475,3.7475,3.819,3.8513,3.8281,3.7637,3.7305,3.7305,3.7109,3.7012,3.7047,3.6562,3.6367,3.6367,3.6133,3.5982,3.5982,3.5982,3.5982,3.5982,3.5982,3.5982,3.5982,3.5982,3.5982,3.5982,3.5982,3.5982,3.5982,2.3881,2.4419,2.5159,2.7065,2.7458,2.7609,2.7874,2.7911,2.7911,2.7911,2.7911,2.7911,2.7911,2.7911,2.7941,2.8014,2.8028,2.8057,2.8131,2.8291,2.8394,2.8394,2.8233,2.8131,2.8131,2.8306,2.8394,2.8394,2.8593,2.871,2.8783,2.8783,2.8827,2.8886,2.8886,2.8886,2.8886,2.8886,2.8886,2.8886,2.8886,2.8886,2.8886,2.8886,2.8739,2.8511,2.8511,2.835,2.8131,2.8131,2.8131,2.8131,2.8131,2.8131,2.8131,2.8131,2.8131,2.8116,2.8043,2.8072,2.8189,2.8437,2.8511,2.8569,2.8842,2.8886,2.8886,2.8886,2.8886,2.8886,2.8886,2.8886,2.8886,2.8886,2.8886,2.8886,2.8886,2.8886,2.9042,2.9431,2.947,3.0562,3.3432,3.3696,3.4766,3.7291,3.7824,3.8044,3.8044,3.8392,3.8611,3.8611,3.793,3.7598,3.7598,3.75,3.7441,3.7441,3.7012,3.6851,3.6832,3.6367,3.6172,3.6172,3.6055,3.5982,3.5982,3.5982,3.5982,3.5982,3.5982,3.5982,3.5982,3.5982,3.5982,3.5982,2.5619,2.6572,2.7193,2.7382,2.7647,2.7874,2.7911,2.7911,2.7911,2.7911,2.7911,2.7911,2.7911,2.7911,2.8028,2.8335,2.8364,2.8481,2.8798,2.854,2.8394,2.8394,2.8681,2.8827,2.8827,2.8525,2.8394,2.8394,2.8116,2.8131,2.8437,2.8437,2.8584,2.8886,2.8886,2.8886,2.8886,2.8886,2.8886,2.8886,2.8886,2.8886,2.8886,2.8886,2.8871,2.8856,2.8856,2.8842,2.8827,2.8827,2.8827,2.8827,2.8827,2.8827,2.8827,2.8827,2.8827,2.8754,2.8437,2.8608,2.8827,2.8856,2.8856,2.8856,2.8886,2.8886,2.8886,2.8886,2.8886,2.8886,2.8886,2.8886,2.8886,2.8886,2.8886,2.8886,2.8886,2.8886,2.947,3.0947,3.1101,3.1791,3.3507,3.3696,3.3809,3.4035,3.5514,3.6386,3.6386,3.7787,3.8611,3.8611,3.8552,3.8513,3.8513,3.8086,3.7835,3.7835,3.7461,3.7246,3.7226,3.6816,3.6656,3.6636,3.6191,3.5982,3.5982,3.5982,3.5982,3.5982,3.5982,3.5982,3.5982,3.5982,3.5982,3.5982,2.6818,2.7297,2.7685,2.8226,2.8457,2.8534,2.8534,2.8534,2.8534,2.8534,2.8534,2.8534,2.8534,2.8534,2.8578,2.871,2.871,2.8769,2.8886,2.8783,2.8511,2.8116,2.8204,2.8262,2.8262,2.835,2.8394,2.8394,2.8467,2.8467,2.8394,2.8394,2.835,2.8262,2.8262,2.8262,2.8277,2.8481,2.8569,2.8622,2.8812,2.8886,2.8886,2.8886,2.8886,2.8886,2.8886,2.8886,2.8886,2.8886,2.8886,2.8886,2.8886,2.8886,2.8886,2.8886,2.8886,2.8871,2.8754,2.8798,2.8886,2.8886,2.8886,2.8886,2.8886,2.8886,2.8886,2.8886,2.8886,2.8886,2.8886,2.8886,2.8886,2.8886,2.8886,2.8886,2.8886,2.9765,3.0616,3.1216,3.2157,3.3449,3.5103,3.5253,3.5663,3.6645,3.7328,3.7677,3.7677,3.8282,3.8611,3.8611,3.8611,3.8611,3.8611,3.8418,3.832,3.832,3.7891,3.7676,3.7676,3.7246,3.7051,3.7031,3.6601,3.6426,3.6406,3.6133,3.5982,3.5982,3.5982,3.5982,3.5982,3.5982,3.5982,3.5982,2.7476,2.7712,2.8065,2.8769,2.8886,2.8886,2.8886,2.8886,2.8886,2.8886,2.8886,2.8886,2.8886,2.8886,2.8886,2.8886,2.8886,2.8886,2.8886,2.8886,2.8695,2.8233,2.8204,2.8204,2.8204,2.8335,2.8394,2.8394,2.8496,2.8496,2.8394,2.8394,2.8277,2.8072,2.8072,2.8014,2.7926,2.8145,2.8247,2.8262,2.8505,2.8651,2.8739,2.8739,2.8812,2.8886,2.8886,2.8886,2.8886,2.8886,2.8886,2.8886,2.8886,2.8886,2.8886,2.8886,2.8886,2.8886,2.8886,2.8886,2.8886,2.8886,2.8886,2.8886,2.8886,2.8886,2.8886,2.8886,2.8886,2.8886,2.8886,2.8886,2.8886,2.8886,2.8886,2.908,2.9586,3.0616,3.1676,3.2728,3.3827,3.5141,3.6793,3.6959,3.7401,3.8538,3.8611,3.8611,3.8611,3.8611,3.8611,3.8611,3.8611,3.8611,3.8611,3.8611,3.8611,3.8611,3.8281,3.8125,3.8105,3.7695,3.75,3.7461,3.7051,3.691,3.6836,3.6406,3.623,3.6211,3.6074,3.5982,3.5982,3.5982,3.5982,3.5982,2.7516,2.8001,2.8431,2.8822,2.8886,2.8886,2.8886,2.8886,2.8886,2.8886,2.8886,2.8886,2.8886,2.8886,2.8886,2.8886,2.8886,2.8886,2.8886,2.8886,2.8886,2.8886,2.8886,2.8886,2.8886,2.8554,2.8408,2.8408,2.8072,2.8087,2.8394,2.8394,2.8394,2.8394,2.8394,2.8218,2.7911,2.7911,2.7911,2.7911,2.7911,2.8101,2.8394,2.8394,2.8622,2.8886,2.8886,2.8886,2.8886,2.8886,2.8886,2.8886,2.8886,2.8886,2.8886,2.8886,2.8886,2.8886,2.8886,2.8886,2.8886,2.8886,2.8886,2.8886,2.8886,2.8886,2.8886,2.8886,2.8886,2.8886,2.8886,2.8886,2.8886,2.8886,2.8886,2.947,3.1062,3.1293,3.25,3.5792,3.6164,3.6849,3.8428,3.8574,3.8611,3.8611,3.8611,3.8611,3.8611,3.8611,3.8611,3.8611,3.8611,3.8611,3.8611,3.8611,3.8611,3.8611,3.8611,3.8611,3.8591,3.8125,3.7894,3.7874,3.748,3.7305,3.7266,3.689,3.6714,3.6656,3.6191,3.5982,3.5982,3.5982,3.5982,3.5982,2.7961,2.8197,2.8431,2.8822,2.8886,2.8886,2.8886,2.8886,2.8886,2.8886,2.8886,2.8886,2.8886,2.8886,2.8886,2.8886,2.8886,2.8886,2.8886,2.8886,2.8886,2.8886,2.8886,2.8886,2.8886,2.8798,2.8754,2.8754,2.8651,2.8511,2.8394,2.8394,2.8277,2.8057,2.8057,2.7882,2.7627,2.7824,2.778,2.7642,2.7824,2.797,2.8057,2.8057,2.8116,2.8189,2.8189,2.8335,2.854,2.854,2.871,2.8886,2.8886,2.8886,2.8886,2.8886,2.8886,2.8886,2.8886,2.8886,2.8886,2.8886,2.8886,2.8886,2.8886,2.8886,2.8886,2.8886,2.8886,2.8886,2.8886,2.8886,2.8886,2.8886,2.8886,2.908,2.9532,3.0577,3.1676,3.2652,3.4804,3.6386,3.6885,3.7934,3.8611,3.8611,3.8611,3.8611,3.8611,3.8611,3.8611,3.8611,3.8611,3.8611,3.8611,3.8611,3.8611,3.8611,3.8611,3.8611,3.8611,3.8474,3.8379,3.8359,3.793,3.7734,3.7695,3.7285,3.6934,3.6695,3.6558,3.6289,3.5982,3.5982,3.5982,3.5982,2.8133,2.8289,2.8431,2.8822,2.8886,2.8886,2.8886,2.8886,2.8886,2.8886,2.8886,2.8886,2.8886,2.8886,2.8886,2.8886,2.8886,2.8886,2.8886,2.8886,2.8886,2.8886,2.8886,2.8886,2.8886,2.8886,2.8886,2.8886,2.8886,2.8798,2.8622,2.8622,2.8408,2.8101,2.8101,2.7926,2.7686,2.7824,2.7809,2.7671,2.7744,2.7809,2.7897,2.778,2.7809,2.7911,2.7911,2.8043,2.8204,2.8204,2.8408,2.8739,2.8856,2.8886,2.8886,2.8886,2.8886,2.8886,2.8886,2.8886,2.8886,2.8886,2.8886,2.8886,2.8886,2.8886,2.8886,2.8886,2.8886,2.8886,2.8886,2.8886,2.8886,2.8886,2.8886,2.9119,2.9765,3.0693,3.1791,3.307,3.4991,3.646,3.7107,3.8007,3.8611,3.8611,3.8611,3.8611,3.8611,3.8611,3.8611,3.8611,3.8611,3.8611,3.8611,3.8611,3.8611,3.8611,3.8611,3.8611,3.8611,3.8611,3.8611,3.8591,3.8301,3.8184,3.8144,3.7715,3.7402,3.7148,3.6992,3.666,3.6289,3.6289,3.6172,3.5982,2.8211,2.8353,2.8471,2.8847,2.8886,2.8886,2.8886,2.8886,2.8886,2.8886,2.8886,2.8886,2.8886,2.8886,2.8886,2.8886,2.8886,2.8886,2.8886,2.8886,2.8886,2.8886,2.8886,2.8886,2.8886,2.8886,2.8886,2.8886,2.8886,2.8886,2.8886,2.8886,2.8739,2.8437,2.8437,2.8262,2.7955,2.7955,2.7941,2.7882,2.7642,2.77,2.7882,2.7627,2.77,2.7911,2.7882,2.7882,2.7911,2.7911,2.8116,2.8408,2.8754,2.8856,2.8856,2.8886,2.8886,2.8886,2.8886,2.8886,2.8886,2.8886,2.8886,2.8886,2.8886,2.8886,2.8886,2.8886,2.8886,2.8886,2.8886,2.8886,2.8886,2.8886,2.9003,2.9625,3.1101,3.1408,3.2614,3.5644,3.6127,3.6775,3.8226,3.8538,3.8611,3.8611,3.8611,3.8611,3.8611,3.8611,3.8611,3.8611,3.8611,3.8611,3.8611,3.8611,3.8611,3.8611,3.8611,3.8611,3.8611,3.8611,3.8611,3.8611,3.8611,3.8611,3.8591,3.8144,3.7933,3.7855,3.75,3.709,3.6753,3.6714,3.6426,3.6074,2.8666,2.8783,2.8808,2.8886,2.8886,2.8886,2.8886,2.8886,2.8886,2.8886,2.8886,2.8886,2.8886,2.8886,2.8886,2.8886,2.8886,2.8886,2.8886,2.8886,2.8886,2.8886,2.8886,2.8886,2.8886,2.8886,2.8886,2.8886,2.8886,2.8886,2.8886,2.8886,2.8856,2.8798,2.8798,2.8622,2.8291,2.8291,2.8145,2.7911,2.7838,2.7853,2.7911,2.7838,2.7853,2.7882,2.7671,2.7707,2.7911,2.7911,2.7955,2.8072,2.8394,2.8496,2.854,2.8812,2.8886,2.8886,2.8886,2.8886,2.8886,2.8886,2.8886,2.8886,2.8886,2.8886,2.8886,2.8886,2.8886,2.8886,2.8886,2.8886,2.8886,2.8886,2.9959,3.0909,3.1255,3.2386,3.3449,3.4166,3.5402,3.6349,3.6701,3.7861,3.8611,3.8611,3.8611,3.8611,3.8611,3.8611,3.8611,3.8611,3.8611,3.8611,3.8611,3.8611,3.8611,3.8611,3.8611,3.8611,3.8611,3.8611,3.8611,3.8611,3.8611,3.8611,3.8611,3.8476,3.8223,3.7874,3.7777,3.7539,3.7129,3.6832,3.6656,3.6519,2.8808,2.8886,2.8886,2.8886,2.8886,2.8886,2.8886,2.8886,2.8886,2.8886,2.8886,2.8886,2.8886,2.8886,2.8886,2.8886,2.8886,2.8886,2.8886,2.8886,2.8886,2.8886,2.8886,2.8886,2.8886,2.8886,2.8886,2.8886,2.8886,2.8886,2.8886,2.8886,2.8886,2.8886,2.8886,2.8798,2.8651,2.8651,2.8549,2.835,2.8204,2.8145,2.8131,2.797,2.7911,2.7882,2.7721,2.7765,2.7941,2.8087,2.8145,2.8204,2.8511,2.8651,2.8681,2.8842,2.8886,2.8886,2.8886,2.8886,2.8886,2.8886,2.8886,2.8886,2.8886,2.8886,2.8886,2.8886,2.8886,2.8886,2.8886,2.8886,2.8886,2.8886,3.0268,3.1293,3.1293,3.269,3.4015,3.4804,3.5681,3.6497,3.7254,3.8117,3.8611,3.8611,3.8611,3.8611,3.8611,3.8611,3.8611,3.8611,3.8611,3.8611,3.8611,3.8611,3.8611,3.8611,3.8611,3.8611,3.8611,3.8611,3.8611,3.8611,3.8611,3.8611,3.8611,3.8611,3.8474,3.8223,3.8223,3.7969,3.7578,3.7344,3.7012,3.6636,2.8808,2.8886,2.8886,2.8886,2.8886,2.8886,2.8886,2.8886,2.8886,2.8886,2.8886,2.8886,2.8886,2.8886,2.8886,2.8886,2.8886,2.8886,2.8886,2.8886,2.8886,2.8886,2.8886,2.8886,2.8886,2.8886,2.8886,2.8886,2.8886,2.8886,2.8886,2.8886,2.8886,2.8886,2.8886,2.8886,2.8886,2.8886,2.8886,2.8871,2.8608,2.8481,2.8452,2.8174,2.8072,2.8072,2.8014,2.7955,2.7955,2.8218,2.8321,2.8364,2.871,2.8812,2.8827,2.8871,2.8886,2.8886,2.8886,2.8886,2.8886,2.8886,2.8886,2.8886,2.8886,2.8886,2.8886,2.8886,2.8886,2.8964,2.9275,2.9314,2.9392,2.9688,3.1062,3.2135,3.2135,3.3524,3.5066,3.6423,3.6608,3.7144,3.8465,3.8611,3.8611,3.8611,3.8611,3.8611,3.8611,3.8611,3.8611,3.8611,3.8611,3.8611,3.8611,3.8611,3.8611,3.8611,3.8611,3.8611,3.8611,3.8611,3.8611,3.8611,3.8611,3.8611,3.8611,3.8611,3.8611,3.8611,3.8611,3.8359,3.7991,3.7835,3.7324,3.6636,2.8886,2.8886,2.8886,2.8886,2.8886,2.8886,2.8886,2.8886,2.8886,2.8886,2.8886,2.8886,2.8886,2.8886,2.8886,2.8886,2.8886,2.8886,2.8886,2.8886,2.8886,2.8886,2.8886,2.8886,2.8886,2.8886,2.8886,2.8886,2.8886,2.8886,2.8886,2.8886,2.8886,2.8886,2.8886,2.8886,2.8886,2.8886,2.8886,2.8886,2.8842,2.8827,2.8827,2.8783,2.8769,2.8725,2.8423,2.8145,2.7926,2.797,2.7984,2.8028,2.8364,2.8467,2.8511,2.8812,2.8886,2.8886,2.8886,2.8886,2.8886,2.8886,2.8886,2.8886,2.8886,2.8886,2.8886,2.8886,2.8886,2.9314,3.0732,3.1001,3.1446,3.2826,3.4466,3.5514,3.5514,3.6922,3.8007,3.8246,3.8282,3.8355,3.8574,3.8611,3.8611,3.8611,3.8611,3.8611,3.8611,3.8611,3.8611,3.8611,3.8611,3.8611,3.8611,3.8611,3.8611,3.8611,3.8611,3.8611,3.8611,3.8611,3.8611,3.8611,3.8611,3.8611,3.8611,3.8611,3.8611,3.8611,3.8611,3.8571,3.8398,3.7656,3.709,3.6636,2.8886,2.8886,2.8886,2.8886,2.8886,2.8886,2.8886,2.8886,2.8886,2.8886,2.8886,2.8886,2.8886,2.8886,2.8886,2.8886,2.8886,2.8886,2.8886,2.8886,2.8886,2.8886,2.8886,2.8886,2.8886,2.8886,2.8886,2.8886,2.8886,2.8886,2.8886,2.8886,2.8886,2.8886,2.8886,2.8886,2.8886,2.8886,2.8886,2.8886,2.8886,2.8886,2.8886,2.8886,2.8886,2.8871,2.8739,2.8593,2.8476,2.8476,2.8476,2.8467,2.8637,2.8695,2.871,2.8856,2.8886,2.8886,2.8886,2.8886,2.8886,2.8886,2.8886,2.8886,2.8886,2.8886,2.9158,3.0075,3.023,3.0716,3.2348,3.2652,3.288,3.3583,3.5103,3.6201,3.6201,3.7604,3.8611,3.8611,3.8611,3.8611,3.8611,3.8611,3.8611,3.8611,3.8611,3.8611,3.8611,3.8611,3.8611,3.8611,3.8611,3.8611,3.8611,3.8611,3.8611,3.8611,3.8611,3.8611,3.8611,3.8611,3.8611,3.8611,3.8611,3.8611,3.8611,3.8611,3.8611,3.8611,3.8611,3.8611,3.8532,3.7871,3.7383,3.6953]},{"header":{"parameterUnit":"m.s-1","parameterCategory":1,"la1":30.6,"la2":28.766,"lo1":-90.7593,"lo2":-88.6598,"dy":0.0162,"dx":0.0183,"nx":116,"ny":114,"refTime":"2023-03-26T06:00:00:Z","depth":0,"parameterNumber":3,"parameterNumberName":"V-component_of_WINDS"},"data":[0.0,0.0,0.0,0.0,0.0,0.0,0.0,0.0,0.0,0.0,0.0,0.0,0.0,0.0,0.0,0.0,0.0,0.0,0.0,0.0,0.0,0.0,0.0,0.0,0.0,0.0,0.0,0.0,0.0,0.0,0.0,0.0,0.0,0.0,0.0,0.0,0.0,0.0,0.0,0.0,0.0,0.0,0.0,0.0,0.0,0.0,0.0,0.0,0.0,0.0,0.0,0.0,0.0,0.0,0.0,0.0,0.0,0.0,0.0,0.0,0.0,0.0,0.0,0.0,0.0,0.0,0.0,0.0,0.0,0.0,0.0,0.0,0.0,0.0,0.0,0.0,0.0,0.0,0.0,0.0,0.0,0.0,0.0,0.0,0.0,0.0,0.0,0.0,0.0,0.0,0.0,0.0,0.0,0.0,0.0,0.0,0.0,0.0,0.0,0.0,0.0,0.0,0.0,0.0,0.0,0.0,0.0,0.0,0.0,0.0,0.0,0.0,0.0,0.0,0.0,0.0,0.0,0.0,0.0,0.0,0.0,0.0,0.0,0.0,0.0,0.0,0.0,0.0,0.0,0.0,0.0,0.0,0.0,0.0,0.0,0.0,0.0,0.0,0.0,0.0,0.0,0.0,0.0,0.0,0.0,0.0,0.0,0.0,0.0,0.0,0.0,0.0,0.0,0.0,0.0,0.0,0.0,0.0,0.0,0.0,0.0,0.0,0.0,0.0,0.0,0.0,0.0,0.0,0.0,0.0,0.0,0.0,0.0,0.0,0.0,0.0,0.0,0.0,0.0,0.0,0.0,0.0,0.0,0.0,0.0,0.0,0.0,0.0,0.0,0.0,0.0,0.0,0.0,0.0,0.0,0.0,0.0,0.0,0.0,0.0,0.0,0.0,0.0,0.0,0.0,0.0,0.0,0.0,0.0,0.0,0.0,0.0,0.0,0.0,0.0,0.0,0.0,0.0,0.0,0.0,0.0,0.0,0.0,0.0,0.0,0.0,0.0,0.0,0.0,0.0,0.0,0.0,0.0,0.0,0.0,0.0,0.0,0.0,0.0,0.0,0.0,0.0,0.0,0.0,0.0,0.0,0.0,0.0,0.0,0.0,0.0,0.0,0.0,0.0,0.0,0.0,0.0,0.0,0.0,0.0,0.0,0.0,0.0,0.0,0.0,0.0,0.0,0.0,0.0,0.0,0.0,0.0,0.0,0.0,0.0,0.0,0.0,0.0,0.0,0.0,0.0,0.0,0.0,0.0,0.0,0.0,0.0,0.0,0.0,0.0,0.0,0.0,0.0,0.0,0.0,0.0,0.0,0.0,0.0,0.0,0.0,0.0,0.0,0.0,0.0,0.0,0.0,0.0,0.0,0.0,0.0,0.0,0.0,0.0,0.0,0.0,0.0,0.0,0.0,0.0,0.0,0.0,0.0,0.0,0.0,0.0,0.0,0.0,0.0,0.0,0.0,0.0,0.0,0.0,0.0,0.0,0.0,0.0,0.0,0.0,0.0,0.0,0.0,0.0,0.0,0.0,0.0,0.0,0.0,0.0,0.0,0.0,0.0,0.0,0.0,0.0,0.0,0.0,0.0,0.0,0.0,0.0,0.0,0.0,0.0,0.0,0.0,0.0,0.0,0.0,0.0,0.0,0.0,0.0,0.0,0.0,0.0,0.0,0.0,0.0,0.0,0.0,0.0,0.0,0.0,0.0,0.0,0.0,0.0,0.0,0.0,0.0,0.0,0.0,0.0,0.0,0.0,0.0,0.0,0.0,0.0,0.0,0.0,0.0,0.0,0.0,0.0,0.0,0.0,0.0,0.0,0.0,0.0,0.0,0.0,0.0,0.0,0.0,0.0,0.0,0.0,0.0,0.0,0.0,0.0,0.0,0.0,0.0,0.0,0.0,0.0,0.0,0.0,0.0,0.0,0.0,0.0,0.0,0.0,0.0,0.0,0.0,0.0,0.0,0.0,0.0,0.0,0.0,0.0,0.0,0.0,0.0,0.0,0.0,0.0,0.0,0.0,0.0,0.0,0.0,0.0,0.0,0.0,0.0,0.0,0.0,0.0,0.0,0.0,0.0,0.0,0.0,0.0,0.0,0.0,0.0,0.0,0.0,0.0,0.0,0.0,0.0,0.0,0.0,0.0,0.0,0.0,0.0,0.0,0.0,0.0,0.0,0.0,0.0,0.0,0.0,0.0,0.0,0.0,0.0,0.0,0.0,0.0,0.0,0.0,0.0,0.0,0.0,0.0,0.0,0.0,0.0,0.0,0.0,0.0,0.0,0.0,0.0,0.0,0.0,0.0,0.0,0.0,0.0,0.0,0.0,0.0,0.0,0.0,0.0,0.0,0.0,0.0,0.0,0.0,0.0,0.0,0.0,0.0,0.0,0.0,0.0,0.0,0.0,0.0,0.0,0.0,0.0,0.0,0.0,0.0,0.0,0.0,0.0,0.0,0.0,0.0,0.0,0.0,0.0,0.0,0.0,0.0,0.0,0.0,0.0,0.0,0.0,0.0,0.0,0.0,0.0,0.0,0.0,0.0,0.0,0.0,0.0,0.0,0.0,0.0,0.0,0.0,0.0,0.0,0.0,0.0,0.0,0.0,0.0,0.0,0.0,0.0,0.0,0.0,0.0,0.0,0.0,0.0,0.0,0.0,0.0,0.0,0.0,0.0,0.0,0.0,0.0,0.0,0.0,0.0,0.0,0.0,0.0,0.0,0.0,0.0,0.0,0.0,0.0,0.0,0.0,0.0,0.0,0.0,0.0,0.0,0.0,0.0,0.0,0.0,0.0,0.0,0.0,0.0,0.0,0.0,0.0,0.0,0.0,0.0,0.0,0.0,0.0,0.0,0.0,0.0,0.0,0.0,0.0,0.0,0.0,0.0,0.0,0.0,0.0,0.0,0.0,0.0,0.0,0.0,0.0,0.0,0.0,0.0,0.0,0.0,0.0,0.0,0.0,0.0,0.0,0.0,0.0,0.0,0.0,0.0,0.0,0.0,0.0,0.0,0.0,0.0,0.0,0.0,0.0,0.0,0.0,0.0,0.0,0.0,0.0,0.0,0.0,0.0,0.0,0.0,0.0,0.0,0.0,0.0,0.0,0.0,0.0,0.0,0.0,0.0,0.0,0.0,0.0,0.0,0.0,0.0,0.0,0.0,0.0,0.0,0.0,0.0,0.0,0.0,0.0,0.0,0.0,0.0,0.0,0.0,0.0,0.0,0.0,0.0,0.0,0.0,0.0,0.0,0.0,0.0,0.0,0.0,0.0,0.0,0.0,0.0,0.0,0.0,0.0,0.0,0.0,0.0,0.0,0.0,0.0,0.0,0.0,0.0,0.0,0.0,0.0,0.0,0.0,0.0,0.0,0.0,0.0,0.0,0.0,0.0,0.0,0.0,0.0,0.0,0.0,0.0,0.0,0.0,0.0,0.0,0.0,0.0,0.0,0.0,0.0,0.0,0.0,0.0,0.0,0.0,0.0,0.0,0.0,0.0,0.0,0.0,0.0,0.0,0.0,0.0,0.0,0.0,0.0,0.0,0.0,0.0,0.0,0.0,0.0,0.0,0.0,0.0,0.0,0.0,0.0,0.0,0.0,0.0,0.0,0.0,0.0,0.0,0.0,0.0,0.0,0.0,0.0,0.0,0.0,0.0,0.0,0.0,0.0,0.0,0.0,0.0,0.0,0.0,0.0,0.0,0.0,0.0,0.0,0.0,0.0,0.0,0.0,0.0,0.0,0.0,0.0,0.0,0.0,0.0,0.0,0.0,0.0,0.0,0.0,0.0,0.0,0.0,0.0,0.0,0.0,0.0,0.0,0.0,0.0,0.0,0.0,0.0,0.0,0.0,0.0,0.0,0.0,0.0,0.0,0.0,0.0,0.0,0.0,0.0,0.0,0.0,0.0,0.0,0.0,0.0,0.0,0.0,0.0,0.0,0.0,0.0,0.0,0.0,0.0,0.0,0.0,0.0,0.0,0.0,0.0,0.0,0.0,0.0,0.0,0.0,0.0,0.0,0.0,0.0,0.0,0.0,0.0,0.0,0.0,0.0,0.0,0.0,0.0,0.0,0.0,0.0,0.0,0.0,0.0,0.0,0.0,0.0,0.0,0.0,0.0,0.0,0.0,0.0,0.0,0.0,0.0,0.0,0.0,0.0,0.0,0.0,0.0,0.0,0.0,0.0,0.0,0.0,0.0,0.0,0.0,0.0,0.0,0.0,0.0,0.0,0.0,0.0,0.0,0.0,0.0,0.0,0.0,0.0,0.0,0.0,0.0,0.0,0.0,0.0,0.0,0.0,0.0,0.0,0.0,0.0,0.0,0.0,0.0,0.0,0.0,0.0,0.0,0.0,0.0,0.0,0.0,0.0,0.0,0.0,0.0,0.0,0.0,0.0,0.0,0.0,0.0,0.0,0.0,0.0,0.0,0.0,0.0,0.0,0.0,0.0,0.0,0.0,0.0,0.0,0.0,0.0,0.0,0.0,0.0,0.0,0.0,0.0,0.0,0.0,0.0,0.0,0.0,0.0,0.0,0.0,0.0,0.0,0.0,0.0,0.0,0.0,0.0,0.0,0.0,0.0,0.0,0.0,0.0,0.0,0.0,0.0,0.0,0.0,0.0,0.0,0.0,0.0,0.0,0.0,0.0,0.0,0.0,0.0,0.0,0.0,0.0,0.0,0.0,0.0,0.0,0.0,0.0,0.0,0.0,0.0,0.0,0.0,0.0,0.0,0.0,0.0,0.0,0.0,0.0,0.0,0.0,0.0,0.0,0.0,0.0,0.0,0.0,0.0,0.0,0.0,0.0,0.0,0.0,0.0,0.0,0.0,0.0,0.0,0.0,0.0,0.0,0.0,0.0,0.0,0.0,0.0,0.0,0.0,0.0,0.0,0.0,0.0,0.0,0.0,0.0,0.0,0.0,0.0,0.0,0.0,0.0,0.0,0.0,0.0,0.0,0.0,0.0,0.0,0.0,0.0,0.0,0.0,0.0,0.0,0.0,0.0,0.0,0.0,0.0,0.0,0.0,0.0,0.0,0.0,0.0,0.0,0.0,0.0,0.0,0.0,0.0,0.0,0.0,0.0,0.0,0.0,0.0,0.0,0.0,0.0,0.0,0.0,0.0,0.0,0.0,0.0,0.0,0.0,0.0,0.0,0.0,0.0,0.0,0.0,0.0,0.0,0.0,0.0,0.0,0.0,0.0,0.0,0.0,0.0,0.0,0.0,0.0,0.0,0.0,0.0,0.0,0.0,0.0,0.0,0.0,0.0,0.0,0.0,0.0,0.0,0.0,0.0,0.0,0.0,0.0,0.0,0.0,0.0,0.0,0.0,0.0,0.0,0.0,0.0,0.0,0.0,0.0,0.0,0.0,0.0,0.0,0.0,0.0,0.0,0.0,0.0,0.0,0.0,0.0,0.0,0.0,0.0,0.0,0.0,0.0,0.0,0.0,0.0,0.0,0.0,0.0,0.0,0.0,0.0,0.0,0.0,0.0,0.0,0.0,0.0,0.0,0.0,0.0,0.0,0.0,0.0,0.0,0.0,0.0,0.0,0.0,0.0,0.0,0.0,0.0,0.0,0.0,0.0,0.0,0.0,0.0,0.0,0.0,0.0,0.0,0.0,0.0,0.0,0.0,0.0,0.0,0.0,0.0,0.0,0.0,0.0,0.0,0.0,0.0,0.0,0.0,0.0,0.0,0.0,0.0,0.0,0.0,0.0,0.0,0.0,0.0,0.0,0.0,0.0,0.0,0.0,0.0,0.0,0.0,0.0,0.0,0.0,0.0,0.0,0.0,0.0,0.0,0.0,0.0,0.0,0.0,0.0,0.0,0.0,0.0,0.0,0.0,0.0,0.0,0.0,0.0,0.0,0.0,0.0,0.0,0.0,0.0,0.0,0.0,0.0,0.0,0.0,0.0,0.0,0.0,0.0,0.0,0.0,0.0,0.0,0.0,0.0,0.0,0.0,0.0,0.0,0.0,0.0,0.0,0.0,0.0,0.0,0.0,0.0,0.0,0.0,0.0,0.0,0.0,0.0,0.0,0.0,0.0,0.0,0.0,0.0,0.0,0.0,0.0,0.0,0.0,0.0,0.0,4.6145,4.6084,0.0,0.0,0.0,0.0,0.0,0.0,0.0,0.0,0.0,0.0,0.0,0.0,0.0,0.0,0.0,0.0,0.0,0.0,0.0,0.0,0.0,0.0,0.0,0.0,0.0,0.0,0.0,0.0,0.0,0.0,0.0,0.0,0.0,0.0,0.0,0.0,0.0,0.0,4.0682,4.0662,4.0673,4.0673,4.0718,4.0839,0.0,0.0,0.0,0.0,0.0,0.0,0.0,0.0,0.0,0.0,0.0,0.0,0.0,0.0,0.0,0.0,0.0,0.0,0.0,0.0,0.0,0.0,0.0,0.0,0.0,0.0,0.0,0.0,0.0,0.0,0.0,0.0,0.0,0.0,0.0,0.0,0.0,0.0,0.0,0.0,0.0,0.0,0.0,0.0,0.0,0.0,0.0,0.0,0.0,0.0,0.0,0.0,0.0,0.0,0.0,0.0,0.0,0.0,0.0,0.0,0.0,0.0,0.0,0.0,0.0,0.0,0.0,0.0,0.0,0.0,4.6235,4.6169,0.0,0.0,0.0,0.0,0.0,0.0,0.0,0.0,0.0,0.0,0.0,0.0,0.0,0.0,0.0,0.0,0.0,0.0,0.0,0.0,0.0,0.0,0.0,0.0,4.1109,4.1109,4.1109,0.0,0.0,0.0,0.0,0.0,0.0,0.0,0.0,0.0,0.0,0.0,4.0541,4.0516,4.0516,4.0516,4.0604,4.0761,4.0935,0.0,0.0,0.0,0.0,0.0,0.0,0.0,0.0,0.0,0.0,0.0,0.0,0.0,0.0,0.0,0.0,0.0,0.0,0.0,0.0,0.0,0.0,0.0,0.0,0.0,0.0,0.0,0.0,0.0,0.0,0.0,0.0,0.0,0.0,0.0,0.0,0.0,0.0,0.0,0.0,0.0,0.0,0.0,0.0,0.0,0.0,0.0,0.0,0.0,0.0,0.0,0.0,0.0,0.0,0.0,0.0,0.0,0.0,0.0,0.0,0.0,0.0,0.0,4.6289,4.6289,4.6289,4.6289,4.6289,4.6328,4.6445,4.6403,4.6231,4.6186,0.0,0.0,0.0,0.0,0.0,0.0,0.0,0.0,0.0,0.0,0.0,0.0,0.0,0.0,0.0,0.0,0.0,0.0,0.0,0.0,0.0,4.1109,4.1109,4.1109,4.1109,4.1109,0.0,0.0,0.0,0.0,0.0,0.0,0.0,4.0729,4.0639,4.0546,4.0527,4.0516,4.0516,4.0516,4.0504,4.0559,4.1441,4.1826,4.1975,0.0,0.0,0.0,0.0,0.0,0.0,0.0,0.0,0.0,0.0,0.0,0.0,0.0,0.0,0.0,0.0,0.0,0.0,0.0,0.0,0.0,0.0,0.0,0.0,0.0,0.0,0.0,0.0,0.0,0.0,0.0,0.0,0.0,0.0,0.0,0.0,0.0,0.0,0.0,0.0,0.0,4.6284,4.6283,0.0,0.0,0.0,0.0,0.0,0.0,0.0,0.0,0.0,0.0,0.0,0.0,0.0,4.605,4.6126,4.6173,4.6229,4.6229,4.6287,4.6289,4.6289,4.6289,4.6289,4.6328,4.7109,0.0,4.6288,4.6234,0.0,0.0,0.0,0.0,0.0,0.0,0.0,0.0,0.0,0.0,0.0,0.0,0.0,0.0,0.0,0.0,0.0,0.0,0.0,0.0,0.0,4.1103,4.1109,4.1109,4.1109,4.1109,4.1109,0.0,0.0,0.0,0.0,0.0,0.0,4.0783,4.07,4.0605,4.0605,4.0563,4.0516,4.0516,4.0743,4.1281,4.2213,4.2338,4.2012,4.374,0.0,0.0,0.0,0.0,0.0,0.0,0.0,0.0,0.0,0.0,0.0,0.0,0.0,0.0,0.0,0.0,0.0,0.0,0.0,0.0,0.0,0.0,0.0,0.0,0.0,0.0,0.0,0.0,0.0,0.0,0.0,0.0,0.0,0.0,0.0,0.0,0.0,0.0,0.0,4.6281,4.6272,4.6213,4.6083,4.6017,0.0,0.0,0.0,0.0,0.0,0.0,0.0,0.0,0.0,4.5997,4.6058,4.6087,4.6153,4.6233,4.6518,4.6987,4.7031,4.7305,4.7773,4.7773,4.7773,4.7773,4.8164,4.8125,4.7773,4.7732,4.7683,4.7668,0.0,0.0,0.0,0.0,4.7295,4.7156,0.0,0.0,0.0,0.0,0.0,0.0,0.0,0.0,0.0,0.0,0.0,0.0,4.1748,4.1764,4.1772,4.1772,4.1772,4.1655,4.146,4.1421,0.0,0.0,0.0,0.0,4.0866,4.0802,4.0791,4.0745,4.0745,4.0755,4.0846,4.0846,4.132,4.2158,4.3047,4.3047,4.2543,4.4008,4.4628,0.0,0.0,0.0,0.0,0.0,0.0,0.0,0.0,0.0,0.0,0.0,0.0,0.0,0.0,0.0,0.0,0.0,0.0,0.0,0.0,0.0,0.0,0.0,0.0,0.0,0.0,0.0,0.0,0.0,0.0,0.0,0.0,0.0,0.0,0.0,0.0,0.0,0.0,4.6313,4.6258,4.6128,4.607,4.5978,0.0,0.0,0.0,0.0,0.0,0.0,4.5754,4.5777,4.5852,4.5941,4.6226,4.6388,4.646,4.6737,4.7221,4.7928,4.7929,4.8281,4.8906,4.8906,4.8906,4.8906,4.9141,4.9219,4.9219,4.8984,4.8865,4.8813,4.8813,4.873,4.8571,4.8543,4.8496,4.841,0.0,0.0,0.0,0.0,0.0,0.0,0.0,0.0,0.0,0.0,0.0,4.3504,4.3565,4.3567,4.3568,4.3568,4.3568,4.3217,4.2395,4.2317,4.1967,4.1147,4.1026,4.099,4.0986,4.0874,4.0786,4.0781,4.0781,4.1153,4.1845,4.1845,4.2268,4.3085,4.3893,4.4201,4.4239,4.5167,4.5513,4.5556,0.0,0.0,0.0,0.0,0.0,0.0,0.0,0.0,0.0,0.0,0.0,0.0,0.0,0.0,0.0,0.0,0.0,0.0,0.0,0.0,0.0,0.0,0.0,0.0,0.0,0.0,0.0,0.0,0.0,0.0,0.0,0.0,0.0,0.0,0.0,0.0,0.0,0.0,0.0,4.611,4.6098,0.0,0.0,0.0,0.0,4.5612,4.568,4.5705,4.5705,4.5785,4.5792,4.5803,4.6616,4.7098,4.7155,4.8022,4.856,4.8726,4.8787,4.8867,4.8906,4.8906,4.8906,4.8945,4.9766,5.0117,5.0078,4.9258,4.8906,4.8906,4.8906,4.8861,4.8751,4.8654,4.8532,4.8505,0.0,0.0,0.0,0.0,0.0,0.0,0.0,0.0,0.0,4.3154,4.343,4.3636,4.3704,4.3718,4.3685,4.3685,4.3685,4.3568,4.3255,4.2708,4.2278,4.1967,4.1369,4.1321,4.1906,4.2357,4.2593,4.2593,4.2531,4.256,4.2747,4.2686,4.3103,4.3893,4.4162,4.4628,4.5167,4.5475,4.5594,4.5594,4.5594,4.5594,0.0,0.0,0.0,0.0,0.0,0.0,0.0,0.0,0.0,0.0,0.0,0.0,0.0,0.0,0.0,0.0,0.0,0.0,0.0,0.0,0.0,0.0,0.0,0.0,0.0,0.0,0.0,0.0,0.0,0.0,0.0,0.0,0.0,0.0,0.0,0.0,0.0,4.6109,4.61,0.0,4.5875,4.5858,4.5845,4.5734,4.6229,4.6511,4.6463,4.7105,4.7471,4.7556,4.7955,4.8201,4.8242,4.8602,4.9091,4.9684,4.9726,5.0,5.0508,5.0508,5.0508,5.0547,5.0859,5.0976,5.0937,5.0625,5.0508,5.0508,5.0508,5.0455,5.0344,5.0277,5.0166,5.0051,0.0,0.0,0.0,0.0,0.0,0.0,0.0,0.0,4.3971,4.4018,4.4256,4.4468,4.4578,4.459,4.4592,4.4584,4.4583,4.4466,4.4153,4.3606,4.3137,4.2864,4.228,4.2241,4.2825,4.3345,4.3639,4.3639,4.3553,4.3544,4.3665,4.3645,4.4002,4.4744,4.4744,4.5051,4.5594,4.5594,4.5594,4.5594,4.5594,4.5594,4.5556,0.0,0.0,0.0,0.0,0.0,0.0,0.0,0.0,0.0,0.0,0.0,0.0,0.0,0.0,0.0,0.0,0.0,0.0,0.0,0.0,0.0,0.0,0.0,0.0,0.0,0.0,0.0,0.0,0.0,0.0,0.0,0.0,0.0,0.0,4.6301,4.6246,4.6109,4.6394,4.6527,4.6364,4.6657,4.6792,4.671,4.7198,4.7471,4.7437,4.8099,4.8484,4.8513,4.8933,4.9161,4.9187,4.9558,4.9997,5.0586,5.0586,5.0898,5.1406,5.1406,5.1406,5.1406,5.1406,5.1406,5.1406,5.1406,5.1406,5.1406,5.1406,5.1313,5.1237,5.1213,5.1097,5.0974,0.0,0.0,0.0,0.0,0.0,0.0,0.0,4.4312,4.4877,4.4918,4.5624,4.6146,4.6286,4.6288,4.6284,4.6305,4.6303,4.5951,4.509,4.5012,4.4622,4.3724,4.3725,4.3725,4.3724,4.3763,4.3763,4.3763,4.3762,4.4061,4.4632,4.4626,4.5005,4.5612,4.5612,4.5612,4.5607,4.5603,4.5603,4.5599,4.5594,4.5594,4.5594,0.0,0.0,0.0,0.0,0.0,0.0,0.0,0.0,0.0,0.0,0.0,0.0,0.0,0.0,0.0,0.0,0.0,0.0,0.0,0.0,0.0,0.0,0.0,0.0,0.0,0.0,0.0,0.0,0.0,0.0,0.0,0.0,0.0,4.634,4.634,4.6285,4.619,4.7054,4.755,4.7276,4.8126,4.8649,4.8515,4.8546,4.8546,4.8543,4.8633,4.8688,4.8667,4.9491,4.9978,5.0036,5.0894,5.1347,5.1406,5.1406,5.1406,5.1406,5.1406,5.1406,5.1406,5.1406,5.1406,5.1406,5.1406,5.1406,5.1406,5.1406,5.1361,5.1288,5.1227,5.1138,5.1098,0.0,0.0,0.0,0.0,0.0,0.0,0.0,4.5593,4.5757,4.5811,4.6047,4.6208,4.6209,4.6247,4.6248,4.6211,4.6211,4.6133,4.5971,4.5345,4.4599,4.3725,4.4325,4.4638,4.4621,4.5246,4.5598,4.5598,4.5486,4.5524,4.5675,4.5604,4.5651,4.5821,4.5821,4.5821,4.5815,4.5789,4.5742,4.5731,4.5646,4.5594,4.5594,0.0,0.0,0.0,0.0,0.0,0.0,0.0,0.0,0.0,0.0,0.0,0.0,0.0,0.0,0.0,0.0,0.0,0.0,0.0,0.0,0.0,0.0,0.0,0.0,0.0,0.0,0.0,0.0,0.0,0.0,0.0,4.7744,4.79,4.7314,4.7236,4.7466,4.8002,4.8284,4.8438,4.8371,4.8617,4.8721,4.8651,4.9188,4.9476,4.9461,5.0123,5.0485,5.0506,5.0816,5.0998,5.1012,5.1244,5.1364,5.1406,5.1406,5.1406,5.1406,5.1406,5.1406,5.1406,5.1406,5.1406,5.1406,5.1358,5.1311,5.1311,5.1311,5.1287,5.1225,5.1135,5.1053,5.0959,0.0,0.0,0.0,0.0,0.0,0.0,0.0,4.6129,4.617,4.6172,4.621,4.6208,4.6194,4.6192,4.6196,4.6203,4.6204,4.6207,4.625,4.5781,4.5273,4.4763,4.5234,4.5508,4.5504,4.6012,4.6283,4.6315,4.6218,4.6147,4.6098,4.6011,4.5964,4.5883,4.5883,4.5883,4.5916,4.5849,4.5854,4.5848,4.5765,4.5684,4.5594,4.5594,4.5642,4.5665,4.5665,4.5712,4.5729,4.5729,0.0,0.0,0.0,0.0,0.0,0.0,0.0,0.0,0.0,0.0,0.0,0.0,0.0,0.0,0.0,0.0,0.0,0.0,0.0,0.0,0.0,0.0,0.0,0.0,4.8486,4.8759,4.8641,4.8329,4.829,4.8759,4.9111,4.9344,4.9344,4.9661,4.985,4.9824,5.0249,5.0512,5.0452,5.0993,5.1288,5.1261,5.1357,5.1403,5.1406,5.1405,5.1406,5.1406,5.1406,5.1406,5.1406,5.1406,5.1406,5.1406,5.1406,5.1366,5.1361,5.1306,5.1285,5.1265,0.0,0.0,0.0,0.0,5.0981,5.0898,0.0,0.0,0.0,0.0,0.0,0.0,0.0,4.6208,4.6205,4.62,4.6194,4.6184,4.6204,4.62,4.6213,4.6197,4.6199,4.6199,4.6201,4.6201,4.6202,4.6204,4.6202,4.6202,4.6204,4.6204,4.6248,4.6288,4.6288,4.6233,4.612,4.6115,4.6076,4.5957,4.5957,4.5957,4.5957,4.5944,4.5901,4.5939,4.5927,4.5787,4.5616,4.5616,4.5712,4.5792,4.5792,4.5869,4.5883,4.5883,0.0,0.0,0.0,0.0,0.0,0.0,0.0,0.0,0.0,0.0,0.0,0.0,0.0,0.0,0.0,0.0,0.0,0.0,0.0,0.0,0.0,0.0,0.0,0.0,4.9032,4.9345,5.0124,4.9578,4.9072,4.9072,4.9773,5.0241,5.0241,5.0954,5.139,5.139,5.1313,5.1315,5.1399,5.1321,0.0,0.0,0.0,5.1405,5.1405,5.1405,5.1406,5.1406,5.1406,5.1406,5.1406,5.1406,5.1366,5.1366,5.1366,5.1357,5.1288,5.1283,5.1245,5.1172,5.1183,5.1128,5.1046,5.0955,5.0898,5.0898,0.0,0.0,0.0,0.0,0.0,0.0,0.0,4.6193,4.619,4.6188,4.6185,4.6215,4.6196,4.6193,4.6198,4.6207,4.6209,4.6184,4.6214,4.6216,4.6187,4.6203,4.6189,4.6188,4.6204,4.6204,4.6205,4.6207,4.6289,4.6285,4.6279,4.6261,4.6245,4.6236,4.6236,4.6236,4.6233,4.6103,4.6078,4.6033,4.5957,4.5895,4.5852,4.5852,4.5866,4.5889,4.5889,4.5903,4.5883,4.5883,4.5883,4.5883,4.5883,0.0,0.0,0.0,0.0,0.0,0.0,0.0,0.0,0.0,0.0,0.0,0.0,0.0,0.0,0.0,0.0,0.0,0.0,0.0,0.0,4.9811,5.0437,5.0945,5.1102,5.0984,5.0906,5.0906,5.1063,5.1141,5.1141,5.1307,5.139,5.139,5.0769,5.0657,5.1365,5.0779,5.0741,5.1367,5.1405,5.1405,5.1406,5.1405,5.1406,5.1406,5.1406,0.0,5.1307,5.1307,5.129,5.1245,5.1245,5.1237,5.122,5.1147,5.108,5.0967,5.108,5.104,5.0944,5.091,5.0898,5.0898,0.0,0.0,0.0,0.0,0.0,0.0,0.0,4.601,4.6019,4.6103,4.6022,4.6015,4.6171,4.6142,4.6134,4.6174,4.6142,4.6148,4.6212,4.6146,4.6115,4.6205,4.6188,4.6187,4.6206,4.6207,4.6214,4.6189,4.6239,4.6246,4.625,4.6285,4.6317,4.6317,4.6306,4.6301,4.6299,4.6238,4.6188,4.6185,4.6115,4.61,4.6091,4.5962,4.5954,4.5998,4.5998,4.6027,4.61,4.61,4.61,4.61,4.61,4.61,4.6107,0.0,0.0,0.0,0.0,0.0,0.0,0.0,0.0,0.0,0.0,0.0,0.0,0.0,0.0,4.8446,4.9305,0.0,5.0246,5.0689,5.1121,5.1397,5.1404,5.1756,5.1831,5.1464,5.1417,5.1418,5.1388,5.1754,5.1991,5.2064,5.2031,5.2226,5.2695,5.2304,5.2222,5.2647,5.2596,5.2547,5.2542,5.2547,5.2547,5.2542,5.2542,5.2529,5.2501,5.2501,5.2482,5.2444,5.2444,5.2418,5.2402,5.2318,5.2256,5.2229,5.227,5.1748,5.0898,5.0898,5.0898,5.0898,0.0,0.0,0.0,0.0,0.0,0.0,0.0,0.0,4.5809,4.5911,4.5815,4.5812,4.6076,4.6022,4.6004,4.6085,4.602,4.6007,4.6087,4.6017,4.6007,4.6089,4.6091,4.6091,4.6091,4.6148,4.6178,4.6141,4.6199,4.6181,4.62,4.6249,4.6289,4.6289,4.6278,4.6308,4.6307,4.6302,4.6301,4.6301,4.6301,4.6301,4.6293,4.6076,4.6027,4.612,4.612,4.619,4.6301,4.6301,4.6301,4.6301,4.6301,4.6301,4.6301,4.6301,4.6301,0.0,0.0,0.0,0.0,0.0,0.0,0.0,0.0,4.7826,4.8064,4.8885,4.9045,4.9321,5.0179,5.0336,5.0576,5.1288,5.1523,5.164,5.1634,5.2335,5.2613,5.1951,5.1868,5.1869,5.1835,5.2414,5.2837,5.2889,5.3342,5.3726,5.3939,5.3728,5.371,5.3855,5.3761,5.3686,5.3686,5.3686,5.3686,5.3686,5.3686,5.3678,5.3699,5.3699,5.3689,5.367,5.367,5.3619,5.3595,5.3515,5.3502,5.3502,5.3502,5.263,5.1364,5.1393,5.1405,5.1401,0.0,0.0,0.0,0.0,0.0,0.0,0.0,0.0,0.0,4.5715,4.5701,4.5701,4.5731,4.5721,4.5757,4.5735,4.5721,4.5757,4.5735,4.5721,4.5757,4.5773,4.5773,4.5773,4.5773,4.5928,4.6022,4.6032,4.6125,4.6209,4.6213,4.6199,4.6206,4.6207,4.6289,4.6286,4.6285,4.631,4.6301,4.6301,4.6301,4.6301,4.63,4.6251,4.625,4.6294,4.6294,4.6297,4.6301,4.6301,4.6301,4.6301,4.6301,4.6301,4.6301,4.6301,0.0,4.6301,4.6301,4.6301,4.6495,4.7275,4.7431,4.7665,0.0,4.866,4.8903,4.9763,4.9961,5.0231,5.109,5.1247,5.1285,5.1362,5.1986,5.2453,5.2452,5.3193,5.3694,5.3557,5.3523,5.3521,5.3457,5.3511,5.3577,5.3584,5.3015,5.2964,5.3678,5.3044,5.2999,5.3701,5.3693,5.3686,5.3686,5.3686,5.3686,5.3686,5.3686,5.3682,5.3626,5.3626,5.3563,5.3515,5.3515,5.3507,5.3526,5.351,5.3502,5.3502,5.3502,5.3267,5.2964,5.3142,5.3227,5.3172,0.0,0.0,0.0,0.0,0.0,0.0,0.0,0.0,0.0,0.0,4.5535,4.5509,4.5666,4.5687,4.5687,4.5687,4.5642,4.5627,4.568,4.5642,4.5631,4.5684,4.5687,4.5687,4.5687,4.5787,4.5815,4.5815,4.6008,4.6068,4.607,4.616,4.6187,4.6188,4.6245,4.6249,4.6249,4.625,4.6249,4.6249,4.6249,4.6249,4.6249,4.6249,4.6286,4.6318,4.6306,4.6301,0.0,0.0,4.6301,4.6301,4.6301,4.6301,4.6301,4.6301,4.6301,0.0,4.6301,4.6624,4.7101,4.7453,4.7921,4.8509,4.9374,4.957,4.9803,5.0663,5.0855,5.0969,5.132,5.1788,5.2097,5.2084,5.2771,5.3296,5.3306,5.4023,5.4533,5.4466,5.4855,5.4775,5.3785,5.4132,5.4392,5.4439,5.4575,5.4835,5.5171,5.4842,5.4805,5.5158,5.5084,5.5038,5.5038,5.5038,5.5038,5.5038,5.5038,5.501,5.499,5.499,5.499,5.4967,5.4967,5.4967,5.4959,5.488,5.4843,5.4838,5.4703,5.4615,5.4457,5.362,5.3234,5.3146,0.0,0.0,0.0,0.0,0.0,0.0,0.0,0.0,0.0,0.0,4.5341,4.5366,4.5567,4.5595,4.5595,4.5595,4.5513,4.5491,4.5587,4.5513,4.5496,4.5587,4.5595,4.5595,4.5595,4.5638,4.5622,4.5622,4.5848,4.5914,4.5917,4.6074,4.6128,4.6131,4.6183,4.6197,4.6198,4.6202,4.6204,4.6204,4.6204,4.6204,4.6204,4.6204,4.6248,4.6289,4.6278,4.6306,0.0,0.0,4.6301,4.6301,4.6301,4.6306,4.6311,4.6311,4.6471,4.6632,4.6632,4.7224,4.793,4.8164,4.8672,4.9375,5.0267,5.0457,5.0609,5.1234,5.1541,5.1731,5.1731,5.2394,5.2971,5.2944,5.3648,5.407,5.382,5.4505,5.4906,5.4597,5.5288,5.5303,5.4139,5.4744,5.5239,5.5278,5.5822,5.6162,5.622,5.6172,5.6153,5.6153,5.604,5.6008,5.6008,5.6008,5.6008,5.6008,5.6008,5.6008,5.6008,5.5968,5.595,5.595,5.5909,5.5851,5.5842,5.5771,5.5724,5.5708,5.5575,5.5449,5.5266,5.4167,5.3695,5.3621,0.0,0.0,0.0,0.0,0.0,0.0,0.0,0.0,0.0,0.0,0.0,0.0,0.0,4.5304,4.5304,4.5304,4.5298,4.5298,4.5304,4.5298,4.5298,4.5304,4.5304,4.5304,4.5304,4.5428,4.5522,4.5522,4.5657,4.5694,4.5698,4.5914,4.601,4.6017,4.6126,4.6208,4.621,4.6197,4.6204,4.6204,4.6204,4.6204,4.6204,4.6204,4.6204,4.6206,4.6289,0.0,0.0,0.0,4.6301,4.6301,4.6301,4.6316,0.0,4.6287,4.6836,0.0,4.7454,4.8117,4.8975,4.9797,5.0031,5.0305,5.1164,5.1304,5.1283,5.1283,5.1988,5.2571,5.2571,5.3272,5.3855,5.3855,5.4555,5.4757,5.3934,5.4472,5.4644,5.3755,5.4403,5.4878,5.4799,5.5479,5.5982,5.5986,5.5982,5.602,5.6025,5.602,5.6016,5.6016,5.6012,5.6008,5.6008,5.6008,5.6008,5.6008,5.6008,5.6008,5.6003,5.5866,5.5802,5.5792,5.5615,5.5541,5.5502,5.5497,5.5491,5.5529,5.5485,5.537,5.5203,5.5165,5.5256,5.5379,0.0,0.0,0.0,0.0,0.0,0.0,0.0,0.0,0.0,0.0,0.0,0.0,0.0,0.0,0.0,0.0,4.5283,4.5283,4.5283,4.5283,4.5283,4.5283,4.5283,4.5283,4.5283,4.5355,4.5356,4.5356,4.5513,4.5563,4.5567,4.5729,4.5885,4.6002,4.6065,4.6121,4.6206,4.6182,4.6188,4.6188,4.6188,4.6188,4.6188,4.6188,4.6204,4.6184,0.0,0.0,0.0,0.0,0.0,0.0,4.6211,0.0,0.0,4.6912,0.0,0.0,4.8347,4.9004,4.9733,5.0045,5.0515,5.0979,5.1265,5.1323,5.1466,5.2051,5.2362,5.2709,5.3293,5.4082,5.4641,5.4641,5.5252,5.5478,5.4666,5.4721,5.4739,5.4436,5.4664,5.5039,5.5548,5.5853,5.6008,5.6008,5.6008,5.6008,5.6008,5.6008,5.6008,5.6008,5.6008,5.6008,5.6008,5.6008,5.5964,5.5866,5.5717,5.5665,5.5659,5.5605,5.5615,5.5615,5.5514,5.5485,5.5473,5.5345,5.5295,5.5275,5.5136,5.5064,5.5,5.5,5.505,5.5099,0.0,0.0,0.0,0.0,0.0,0.0,0.0,0.0,0.0,0.0,0.0,0.0,0.0,0.0,0.0,0.0,0.0,4.5283,4.5283,4.5283,4.5283,4.5283,4.5283,4.5283,4.5283,4.5283,4.5283,4.5283,4.5386,4.5448,4.5414,4.5563,4.5698,4.5829,4.5879,4.5963,4.6134,4.6134,4.6152,4.6217,4.6217,4.6217,4.6217,4.6217,4.62,0.0,0.0,0.0,0.0,0.0,0.0,0.0,0.0,0.0,0.0,0.0,4.8544,4.9231,4.9215,4.9869,5.0514,5.0511,5.0904,5.1366,5.1678,5.1747,5.2019,5.2877,5.3266,5.3618,5.4163,5.4893,5.5437,5.5437,5.5804,5.5831,5.502,5.4831,5.4697,5.4387,5.4619,5.5006,5.5505,5.577,5.5955,5.6003,5.6008,5.6008,5.6008,5.6008,5.5986,5.5937,5.5937,5.5909,5.5813,5.5813,5.5763,5.5698,5.5543,5.5485,5.5479,5.5413,5.5382,5.5376,5.5301,5.5307,5.5262,5.5168,5.5106,5.5092,5.4941,5.492,5.492,5.492,5.492,5.492,0.0,0.0,0.0,0.0,0.0,0.0,0.0,0.0,0.0,0.0,0.0,0.0,0.0,0.0,0.0,0.0,0.0,0.0,4.5283,4.5283,4.5283,4.5316,4.5277,4.5277,4.5272,4.5272,4.5277,4.5277,4.5277,4.5321,4.5288,4.5414,4.5504,4.5522,4.5646,4.5799,4.5999,4.5999,4.606,4.6217,4.6217,4.6217,4.6217,4.6217,0.0,0.0,0.0,0.0,0.0,0.0,0.0,4.628,4.6319,4.6929,4.7795,4.8608,4.941,5.0073,5.0073,5.0657,5.132,5.1359,5.1359,5.1591,5.2487,5.2682,5.2916,5.3771,5.4551,5.5099,5.5133,5.5704,5.6204,5.6204,5.6139,5.5816,5.5005,5.4811,5.4444,5.3632,5.425,5.4792,5.483,5.5403,5.5842,5.5977,5.5986,5.5986,5.5986,5.5986,5.5927,5.5787,5.5782,5.5703,5.5485,5.5473,5.5467,5.5467,5.5461,5.5455,5.5449,5.5262,5.5177,5.5163,5.4978,5.492,5.492,5.492,5.492,5.492,5.492,5.492,5.492,5.492,5.492,5.492,0.0,0.0,0.0,0.0,0.0,0.0,0.0,0.0,0.0,0.0,0.0,0.0,0.0,0.0,0.0,0.0,0.0,0.0,4.5283,4.5283,4.5267,4.5219,4.5219,4.5197,0.0,0.0,0.0,4.5219,4.5219,4.524,4.5283,4.5339,4.541,4.5513,4.5522,4.5705,4.5999,4.5999,4.606,4.6217,0.0,4.6217,4.6217,0.0,0.0,0.0,0.0,0.0,0.0,4.6404,4.6645,4.7269,4.793,4.8701,4.9429,4.9648,5.0307,5.0969,5.0969,5.1125,5.1476,5.2097,5.2253,5.2487,5.3383,5.3578,5.3803,5.4624,5.4922,5.5174,5.5743,5.5978,5.604,5.604,5.5938,5.5581,5.4723,5.4447,5.4271,5.404,5.4232,5.4616,5.5275,5.5467,5.5571,5.5616,5.5621,5.5621,5.5621,5.5621,5.5599,5.5598,5.5593,5.5531,5.5485,5.5345,5.5269,5.5269,5.5102,5.5057,5.5057,5.5,5.4971,5.4971,5.4905,5.492,5.492,5.492,5.492,5.492,5.492,5.492,5.492,5.492,5.492,5.492,0.0,0.0,0.0,0.0,0.0,0.0,0.0,0.0,0.0,0.0,0.0,0.0,0.0,0.0,0.0,0.0,0.0,0.0,0.0,4.5219,4.5192,4.5159,4.5153,4.5142,0.0,0.0,0.0,0.0,0.0,0.0,4.5246,4.5246,4.5324,4.5424,4.5424,4.5552,4.5792,4.5792,0.0,0.0,0.0,0.0,0.0,0.0,0.0,0.0,0.0,0.0,4.8048,4.7893,4.7971,4.8204,4.906,4.9644,5.0073,5.0463,5.093,5.1398,5.1785,5.1863,5.2097,5.2954,5.3188,5.337,5.4129,5.4272,5.4516,5.5225,5.5373,5.5533,5.5954,5.5994,5.599,5.5927,5.5847,5.5612,5.5022,5.4852,5.4789,5.4789,5.4789,5.4942,5.5446,5.5407,5.5358,5.5358,5.5437,5.5485,5.5485,5.5485,5.5443,5.5364,5.5358,5.5314,5.5261,5.5102,5.5078,5.5078,5.4949,5.492,5.492,5.492,5.492,5.492,5.492,5.492,5.492,5.492,5.492,5.492,5.492,5.4791,5.4621,5.4621,5.4533,5.4364,0.0,0.0,0.0,0.0,0.0,0.0,0.0,0.0,0.0,0.0,0.0,0.0,0.0,0.0,0.0,0.0,0.0,0.0,0.0,0.0,0.0,0.0,4.5091,4.5091,4.508,4.508,4.5085,4.5091,4.5091,0.0,0.0,0.0,0.0,0.0,0.0,0.0,0.0,0.0,0.0,0.0,0.0,0.0,0.0,0.0,0.0,0.0,0.0,4.8245,4.9026,4.9856,4.9635,4.9099,4.9917,5.0151,5.0307,5.1086,5.1398,5.163,5.237,5.2682,5.2993,5.3851,5.408,5.42,5.4835,5.4982,5.5114,5.5591,5.5769,5.5875,5.5861,5.5889,5.5913,5.5782,5.574,5.5671,5.5473,5.5425,5.5407,5.5407,5.5407,5.5407,5.5407,5.5249,5.515,5.515,5.5314,5.5407,5.5407,5.5407,5.5326,5.5157,5.515,5.5092,5.4882,5.492,5.492,5.492,5.492,5.492,5.492,5.492,5.492,5.492,5.492,5.492,5.492,5.492,5.4852,5.4814,5.4814,5.4573,5.4219,5.4219,5.3979,5.3692,0.0,0.0,0.0,0.0,0.0,0.0,0.0,0.0,0.0,0.0,4.5957,4.5283,0.0,0.0,0.0,0.0,0.0,0.0,0.0,0.0,0.0,0.0,4.5028,4.5004,4.495,4.4944,4.4974,4.5028,4.5028,0.0,0.0,0.0,0.0,0.0,0.0,0.0,0.0,0.0,0.0,0.0,0.0,0.0,0.0,0.0,0.0,0.0,4.8917,4.9266,4.9523,5.0572,5.0398,4.9956,5.0813,5.1086,5.1086,5.1242,5.1824,5.2409,5.2565,5.311,5.389,5.4747,5.4913,5.5052,5.5721,5.5834,5.5762,5.5638,5.5625,5.5642,5.5582,5.5571,5.5566,5.5575,5.5407,5.5288,5.5249,5.5127,5.5,5.5,5.5,5.5,5.5,5.4963,5.4941,5.4941,5.4978,5.5,5.5,5.5,5.4985,5.4949,5.4941,5.4927,5.492,5.492,5.492,5.492,5.492,5.492,5.492,5.492,5.492,5.492,5.492,5.492,5.492,5.492,5.4722,5.438,5.438,5.4167,5.3796,5.3796,5.3758,5.3692,0.0,0.0,0.0,0.0,0.0,0.0,0.0,4.6465,4.6814,4.7146,4.6776,4.6483,4.6483,4.646,4.6291,0.0,0.0,0.0,0.0,0.0,0.0,0.0,0.0,0.0,0.0,4.4914,4.4926,4.4962,0.0,4.5057,4.5148,4.5181,4.523,4.5283,4.5283,4.5345,0.0,0.0,0.0,0.0,0.0,0.0,0.0,0.0,0.0,0.0,0.0,5.0163,5.0256,5.0763,5.0714,5.0506,5.1032,5.1206,5.1206,5.1206,5.1828,5.2606,5.2993,5.3722,5.4549,5.534,5.5476,5.5467,5.5624,5.5653,5.5572,5.5301,5.5319,5.5375,5.5345,5.5419,5.5449,5.5351,5.5256,5.515,5.5071,5.4956,5.492,5.492,5.492,5.492,5.492,5.492,5.492,5.492,5.492,5.492,5.492,5.492,5.492,5.492,5.492,5.492,5.492,5.492,5.492,5.492,5.492,5.492,5.492,5.492,5.492,5.492,5.492,5.4784,5.4581,5.4581,5.4338,5.4007,5.4007,5.373,5.3407,5.3407,5.3265,5.3093,0.0,0.0,0.0,0.0,0.0,0.0,0.0,4.7139,4.7394,4.7437,4.7831,4.8099,4.7979,4.7738,4.7324,0.0,0.0,0.0,0.0,0.0,0.0,0.0,0.0,0.0,0.0,0.0,0.0,4.4914,4.4962,0.0,0.0,0.0,0.0,0.0,4.5262,4.5267,4.5305,4.5468,0.0,0.0,0.0,4.7506,0.0,0.0,0.0,0.0,0.0,5.0657,5.0671,5.07,5.0709,5.0734,5.09,5.1008,5.1079,5.1215,5.1923,5.2787,5.3539,5.4375,5.5145,5.5659,5.5731,5.5612,5.5373,5.5281,5.5211,5.4956,5.5028,5.5161,5.5161,5.5249,5.5307,5.515,5.5161,5.5092,5.4905,5.492,5.492,5.492,5.492,5.492,5.492,5.492,5.492,5.492,5.492,5.492,5.492,5.492,5.492,5.492,5.492,5.492,5.492,5.492,5.492,5.492,5.492,5.492,5.492,5.492,5.492,5.4913,5.4807,5.4581,5.4279,5.421,5.3915,5.3567,5.3567,5.3336,5.2976,5.2976,5.2772,5.248,0.0,0.0,0.0,0.0,0.0,0.0,0.0,4.7504,4.8026,4.8262,4.9168,4.9638,4.9288,4.8201,4.7485,0.0,0.0,0.0,0.0,0.0,0.0,0.0,0.0,0.0,0.0,0.0,0.0,4.4914,4.492,0.0,0.0,0.0,0.0,0.0,0.0,4.5203,4.5246,4.6058,0.0,0.0,0.0,0.0,0.0,0.0,0.0,0.0,0.0,5.0218,5.0262,5.038,5.0432,5.0432,5.0453,5.0617,5.0956,5.1636,5.2524,5.3463,5.4146,5.5005,5.5723,5.5702,5.5648,5.5555,5.5349,5.5256,5.5143,5.4934,5.4897,5.4912,5.4912,5.4934,5.4941,5.4919,5.4912,5.4905,5.4882,5.492,5.492,5.492,5.492,5.492,5.492,5.492,5.492,5.492,5.492,5.492,5.492,5.492,5.492,5.492,5.492,5.492,5.492,5.492,5.492,5.492,5.492,5.492,5.492,5.492,5.492,5.4867,5.4517,5.4322,5.4262,5.3897,5.3509,5.3151,5.3151,5.29,5.2549,5.2549,5.2526,5.248,0.0,0.0,0.0,0.0,0.0,0.0,4.7979,4.8376,4.8605,4.8431,4.8898,4.9214,4.9081,4.8792,4.851,4.8244,0.0,0.0,0.0,0.0,0.0,0.0,0.0,0.0,0.0,0.0,4.6392,4.6392,4.6436,0.0,0.0,0.0,0.0,0.0,0.0,4.6734,4.6806,4.71,0.0,0.0,0.0,0.0,0.0,0.0,0.0,0.0,0.0,0.0,5.0139,5.0212,5.0203,5.0312,5.0804,5.1038,5.1239,5.1593,5.2731,5.3877,5.4161,5.4836,5.5456,5.5318,5.5237,5.5139,5.5088,5.5026,5.5,5.4935,5.492,5.492,5.492,5.492,5.492,5.492,5.492,5.492,5.492,5.492,5.492,5.492,5.492,5.492,5.492,5.492,5.492,5.492,5.492,5.492,5.492,5.492,5.492,5.492,5.492,5.492,5.492,5.492,5.492,5.492,5.492,5.4776,5.4541,5.4541,5.4426,5.4184,5.3997,5.3786,5.3585,5.3417,5.3088,5.2739,5.2739,5.2663,5.248,5.248,5.248,5.248,0.0,0.0,0.0,0.0,0.0,4.8936,4.8816,4.9052,4.9077,4.8586,4.8885,4.9085,4.8978,4.9323,4.9421,4.907,4.9052,0.0,0.0,0.0,0.0,0.0,0.0,0.0,0.0,0.0,4.7384,4.7384,4.7467,4.7486,0.0,0.0,4.7609,4.765,0.0,0.0,0.0,0.0,0.0,0.0,0.0,0.0,0.0,0.0,0.0,0.0,0.0,0.0,0.0,0.0,0.0,5.017,5.0998,5.1467,5.1769,5.2106,5.3076,5.4095,5.4263,5.4772,5.5172,5.5021,5.4919,5.492,5.492,5.492,5.492,5.492,5.492,5.492,5.492,5.492,5.492,5.492,5.492,5.492,5.492,5.492,5.492,5.492,5.492,5.492,5.492,5.492,5.492,5.492,5.492,5.4837,5.4737,5.4737,5.4776,5.4913,5.492,5.483,5.4737,5.4737,5.4645,5.4557,5.4557,5.4389,5.4132,5.4132,5.3989,5.3692,5.3567,5.3377,5.3078,5.2976,5.2761,5.248,5.248,5.248,5.248,5.248,5.248,5.248,0.0,0.0,0.0,0.0,0.0,0.0,4.911,4.937,4.9401,4.8876,4.9416,4.9762,4.9438,4.9698,4.9886,4.9886,4.9886,0.0,0.0,0.0,0.0,0.0,0.0,0.0,0.0,0.0,4.7384,4.7384,4.7384,4.7384,4.7384,4.7486,4.7485,4.7485,0.0,0.0,0.0,0.0,0.0,0.0,0.0,0.0,0.0,0.0,0.0,0.0,0.0,0.0,0.0,0.0,0.0,0.0,0.0,5.1767,5.2563,0.0,5.3777,5.4044,5.4699,5.4949,5.4985,5.4905,5.492,5.492,5.492,5.492,5.492,5.492,5.492,5.492,5.492,5.492,5.492,5.492,5.492,5.492,5.492,5.492,5.492,5.492,5.492,5.492,5.492,5.492,5.492,5.492,5.492,5.4737,5.4313,5.4296,5.4492,5.4905,5.492,5.4722,5.4296,5.4296,5.4114,5.3711,5.3711,5.3711,5.3702,5.3702,5.3702,5.3673,5.3285,5.3088,5.3083,5.266,5.2491,5.248,5.248,5.248,5.248,5.248,5.248,5.248,0.0,0.0,0.0,0.0,0.0,0.0,0.0,4.9513,4.9401,4.8876,4.9011,4.911,4.8986,4.9331,4.9566,4.9566,4.9769,0.0,0.0,0.0,0.0,0.0,0.0,0.0,0.0,0.0,4.909,4.909,4.909,4.9116,4.9194,4.9136,4.9207,4.929,4.9265,4.9277,0.0,0.0,0.0,0.0,0.0,0.0,5.0018,0.0,0.0,0.0,0.0,0.0,0.0,0.0,0.0,0.0,0.0,0.0,0.0,5.4079,5.4533,5.4638,5.4852,5.4935,5.4912,5.4928,5.492,5.492,5.492,5.492,5.492,5.492,5.492,5.492,5.492,5.492,5.492,5.492,5.492,5.492,5.492,5.492,5.492,5.492,5.4645,5.4492,5.4492,5.4245,5.4059,5.4059,5.4059,5.4015,5.3888,5.3879,5.3934,5.4097,5.4059,5.4006,5.3879,5.3879,5.3823,5.3692,5.3692,5.3548,5.3296,5.3296,5.313,5.2857,5.275,5.2683,5.2672,5.2549,5.248,5.248,5.248,5.248,5.248,5.248,5.248,5.248,0.0,0.0,0.0,0.0,0.0,0.0,0.0,4.978,4.966,4.9262,4.9214,4.9214,4.9214,4.9439,4.9596,4.9596,4.9783,0.0,0.0,0.0,0.0,0.0,0.0,0.0,0.0,4.9886,4.9886,4.9886,4.9886,4.9913,4.9953,4.9933,4.9973,5.0044,5.0069,5.0057,0.0,0.0,0.0,0.0,0.0,0.0,4.9953,0.0,0.0,0.0,0.0,0.0,0.0,0.0,0.0,0.0,0.0,0.0,0.0,0.0,5.492,5.492,5.492,5.492,5.492,5.492,5.492,5.492,5.492,5.492,5.492,5.492,5.492,5.492,5.492,5.492,5.492,5.492,5.4776,5.4737,5.486,5.4629,5.4581,5.4865,5.4669,5.4668,5.4958,5.4745,5.4602,5.4602,5.4602,5.4533,5.4374,5.4364,5.433,5.4154,5.4148,5.4088,5.3931,5.4216,5.432,5.4154,5.4154,5.4006,5.377,5.377,5.3638,5.3422,5.3422,5.3422,0.0,5.3422,5.3422,5.3422,5.3422,5.3422,5.3422,5.3422,5.3422,5.3422,0.0,0.0,0.0,0.0,0.0,0.0,0.0,5.0082,5.0038,4.9906,4.9886,4.9886,4.9886,4.9886,4.9886,4.9886,0.0,0.0,0.0,0.0,0.0,0.0,0.0,0.0,0.0,4.9886,4.9886,4.9886,4.9886,4.9893,4.9899,4.9953,4.9979,4.9986,5.0044,5.0038,0.0,0.0,0.0,0.0,0.0,0.0,0.0,0.0,0.0,0.0,0.0,0.0,0.0,0.0,0.0,0.0,0.0,0.0,0.0,0.0,0.0,0.0,0.0,5.492,5.492,5.492,5.492,5.492,5.492,5.492,0.0,5.492,5.486,5.4845,5.4845,5.4822,5.4814,5.4814,5.4509,5.441,5.4844,5.4297,5.4166,5.4889,5.4971,5.5248,5.597,5.6014,5.5994,5.5994,5.5994,5.5855,5.5482,5.546,5.5293,5.4919,5.4959,5.4757,5.4345,5.5093,5.527,5.4894,5.4894,5.4894,5.4894,5.4894,5.4894,5.4894,5.4894,5.4894,5.4894,5.4894,5.4894,5.4894,5.4894,5.4894,5.4894,5.4894,5.4894,5.4894,0.0,0.0,0.0,0.0,0.0,0.0,0.0,0.0,0.0,0.0,4.9886,4.9886,4.9886,4.9886,4.9886,0.0,0.0,0.0,0.0,0.0,0.0,0.0,0.0,0.0,0.0,4.9886,4.9886,4.9886,4.9886,4.9913,4.9966,4.9926,4.994,4.9986,4.9953,4.9953,0.0,0.0,0.0,0.0,0.0,0.0,0.0,0.0,0.0,0.0,4.9886,4.9886,0.0,0.0,0.0,0.0,0.0,0.0,0.0,0.0,5.492,5.492,5.492,0.0,5.492,5.492,5.492,5.492,0.0,5.492,5.492,5.492,5.4675,5.4451,5.4451,5.4193,5.397,5.397,5.3897,5.4084,5.4792,5.5266,5.5612,5.5798,5.5549,5.5448,5.5621,5.5347,5.5166,5.5166,5.5166,5.5156,5.5038,5.5038,5.499,5.4907,5.5461,5.5411,5.4784,5.4965,5.4978,5.4894,5.4894,5.4894,5.4894,5.4894,5.4894,5.4894,5.4894,5.4894,5.4894,5.4894,5.4894,5.4894,5.4894,5.4894,5.4894,5.4894,5.4894,5.4894,0.0,0.0,0.0,0.0,0.0,0.0,0.0,0.0,0.0,0.0,0.0,4.9886,4.9886,4.9886,0.0,0.0,0.0,0.0,0.0,0.0,0.0,0.0,0.0,4.9886,4.9886,4.9886,4.9886,4.9886,4.9886,4.9906,4.994,4.9906,4.9906,4.994,4.9906,4.9926,0.0,0.0,0.0,0.0,4.9906,0.0,0.0,0.0,0.0,0.0,4.9886,4.9886,0.0,4.9886,5.0151,5.0713,0.0,0.0,0.0,0.0,5.492,5.492,5.492,5.492,5.492,5.492,5.492,5.492,5.492,0.0,5.4613,5.4613,5.4296,5.4006,5.4006,5.3842,5.3804,5.4203,5.4111,5.4205,5.4795,5.5449,5.5871,5.6033,5.5848,5.5881,5.6245,5.6079,5.5957,5.5957,5.5957,5.5957,5.5957,5.5957,5.5957,5.5957,5.6319,5.6174,5.5414,5.5776,5.5957,5.5957,5.5957,5.5957,5.5957,5.5957,5.5957,5.5957,5.5957,5.5957,5.5957,5.5957,5.5957,5.5957,5.5957,5.5957,5.5957,5.5957,5.5957,5.5957,0.0,0.0,0.0,0.0,0.0,0.0,0.0,0.0,0.0,0.0,0.0,0.0,0.0,0.0,0.0,0.0,0.0,0.0,0.0,0.0,0.0,0.0,0.0,4.9886,4.9886,4.9886,4.9886,4.9886,4.9886,4.9886,4.9886,4.9886,4.9886,4.9886,4.9886,4.992,0.0,0.0,0.0,0.0,4.9886,0.0,0.0,0.0,0.0,0.0,0.0,0.0,0.0,4.9886,5.0486,5.135,5.2146,0.0,0.0,0.0,0.0,0.0,5.4822,5.4807,5.4807,5.4807,5.4807,5.4791,5.4745,0.0,5.421,5.421,5.3981,5.3782,5.3782,5.3834,5.4118,5.4812,5.4712,5.4683,5.5039,5.5469,5.5877,5.6163,5.6187,5.6428,5.7116,5.7188,5.7188,5.7188,5.7188,5.7188,5.7188,5.7188,5.7188,5.7188,5.7188,5.6862,5.6187,5.6862,5.7188,5.7188,5.7188,5.7188,5.7188,5.7188,5.7188,5.7188,5.7188,5.7188,5.7188,5.7188,5.7188,5.7188,5.7188,5.7188,5.7188,5.7188,5.7188,5.7188,0.0,0.0,0.0,0.0,0.0,0.0,0.0,0.0,0.0,0.0,0.0,0.0,0.0,0.0,0.0,0.0,0.0,0.0,0.0,0.0,0.0,4.9973,4.992,4.9886,4.9886,4.9886,4.9886,4.9886,4.9886,4.9886,4.9886,4.9886,4.9886,4.9886,4.9886,4.9893,4.9906,0.0,0.0,0.0,4.9886,0.0,0.0,0.0,0.0,0.0,0.0,0.0,0.0,4.9886,5.0486,5.135,5.2146,0.0,0.0,0.0,0.0,0.0,5.4492,5.4372,5.4372,5.4372,5.4372,5.4296,5.3952,0.0,5.3786,5.3786,5.4004,5.4202,5.4202,5.4498,5.477,5.4879,5.5365,5.5765,5.5824,5.6466,5.695,5.702,5.7007,5.7043,5.7188,5.7188,5.7188,5.7188,5.7188,5.7188,5.7188,5.7188,5.7188,5.7188,5.7188,5.7152,5.7007,5.7152,5.7188,5.7188,5.7188,5.7188,5.7188,5.7188,5.7188,5.7188,5.7188,5.7188,5.7188,5.7188,5.7188,5.7188,5.7188,5.7188,5.7188,5.7188,5.7188,5.7188,0.0,0.0,0.0,0.0,0.0,0.0,0.0,0.0,0.0,0.0,0.0,0.0,0.0,0.0,0.0,0.0,0.0,0.0,0.0,0.0,0.0,4.9986,4.9959,4.994,4.994,4.9906,4.9886,4.9886,4.9886,4.9886,4.9886,4.9886,4.9886,4.9886,4.9886,4.9886,4.9886,4.9886,0.0,0.0,0.0,0.0,0.0,0.0,0.0,0.0,0.0,0.0,0.0,0.0,5.1126,5.225,5.2597,0.0,0.0,0.0,0.0,0.0,5.4043,5.3998,5.3906,5.3729,5.3842,5.3915,5.3739,0.0,5.4004,5.4004,5.4334,5.4619,5.4619,5.476,5.5051,5.5414,5.6138,5.6657,5.6657,5.6971,5.7188,5.7188,5.7188,5.7188,5.7188,5.7188,5.7188,5.7188,5.7188,5.7188,5.7188,5.7188,5.7188,5.7188,5.7188,5.7188,5.7188,5.7188,5.7188,5.7188,5.7188,5.7188,5.7188,5.7188,5.7188,5.7188,5.7188,5.7188,5.7188,5.7188,5.7188,5.7188,5.7188,5.7188,5.7188,5.7188,5.7188,5.7188,0.0,0.0,0.0,0.0,0.0,0.0,0.0,0.0,0.0,0.0,0.0,0.0,0.0,0.0,0.0,0.0,0.0,0.0,0.0,0.0,4.9992,5.0005,4.9979,4.9973,4.9986,4.9926,4.9886,4.9886,4.9886,4.9886,4.9886,4.9886,4.9886,4.9886,4.9886,4.9886,4.9886,4.9886,4.9886,0.0,0.0,0.0,0.0,0.0,0.0,0.0,0.0,0.0,0.0,0.0,0.0,0.0,0.0,0.0,0.0,5.4105,5.3924,5.3673,5.3577,5.3696,5.3736,5.3329,0.0,0.0,0.0,0.0,0.0,5.4444,5.4805,5.516,5.516,5.5305,5.5631,5.6187,5.6802,5.7188,5.7188,5.7188,5.7188,5.7188,5.7188,5.7188,5.7188,5.7188,5.7188,5.7188,5.7188,5.7188,5.7188,5.7188,5.7188,5.7188,5.7369,5.7478,5.7478,5.7659,5.7587,5.7188,5.7188,5.7188,5.7188,5.7188,5.7188,5.7188,5.7188,5.7188,5.7188,5.7188,5.7188,5.7188,5.7188,5.7188,5.7188,5.7188,5.7188,5.7188,0.0,0.0,0.0,0.0,0.0,0.0,0.0,0.0,0.0,0.0,0.0,0.0,0.0,0.0,0.0,0.0,0.0,0.0,0.0,0.0,5.0012,5.007,4.9959,4.9926,4.9986,4.9926,4.9886,4.9886,4.9886,4.9886,4.9886,4.9886,4.9886,4.9886,4.9886,4.9886,4.9886,4.9886,4.9886,4.9962,0.0,0.0,0.0,0.0,0.0,0.0,0.0,0.0,0.0,0.0,0.0,0.0,0.0,0.0,5.4193,5.3833,5.372,5.3616,5.3244,5.3681,5.4151,5.3742,5.3945,0.0,5.3776,5.429,0.0,5.4846,5.5402,5.5933,5.5933,5.6536,5.7043,5.7116,5.7152,5.7188,5.7188,5.7188,5.7188,5.7188,5.7188,5.7188,5.7188,5.7188,5.7188,5.7188,5.7188,5.7188,5.7188,5.7188,5.7188,5.7188,5.7913,5.8311,5.8311,5.9072,5.8673,5.7188,5.7188,5.7188,5.7188,5.7188,5.7188,5.7188,5.7188,5.7188,5.7188,5.7188,5.7188,5.7188,5.7188,5.7188,5.7188,5.7188,5.7188,5.7188,0.0,0.0,0.0,0.0,0.0,0.0,0.0,0.0,0.0,0.0,0.0,0.0,0.0,0.0,0.0,0.0,0.0,0.0,0.0,5.0044,5.0057,5.0082,4.9999,4.9959,4.9986,4.9926,4.9886,4.9886,4.9886,4.9886,4.9886,4.9886,4.9886,4.9886,4.9886,5.0189,5.0713,5.0713,5.1016,5.1471,5.1805,0.0,0.0,0.0,0.0,0.0,0.0,0.0,0.0,0.0,5.2351,5.3045,5.2897,5.2987,5.3182,5.3306,5.3508,5.3679,5.349,5.4052,5.4624,5.4484,5.4905,0.0,0.0,5.5051,5.5595,5.5595,5.621,5.6766,5.6766,5.6971,5.7188,5.7188,5.7188,5.7188,5.7188,5.7188,5.7188,5.7188,5.7188,5.7188,5.7188,5.7188,5.7188,5.7188,5.7659,5.7949,5.7949,5.842,5.8709,5.8709,5.8999,5.9144,5.9144,5.9457,5.9289,5.8709,5.8709,5.8709,5.8709,5.8709,5.8709,5.8709,5.8709,5.8709,5.8709,5.8709,5.8709,5.8709,5.8709,5.8709,5.8709,5.8709,5.8709,5.8709,0.0,0.0,0.0,0.0,0.0,0.0,0.0,0.0,0.0,0.0,0.0,0.0,0.0,0.0,0.0,0.0,0.0,0.0,5.0114,5.0095,5.0095,5.0114,5.0031,4.9986,4.9986,4.9946,4.9906,4.9886,4.9886,4.9886,4.9931,5.0189,5.0296,5.0341,5.0568,5.1016,5.1578,5.1578,5.1881,5.2411,5.2715,5.2725,0.0,0.0,0.0,0.0,0.0,0.0,0.0,0.0,5.2627,5.3057,5.2955,5.2828,5.2789,5.3186,5.347,5.3748,5.4001,5.4653,5.5269,5.5269,0.0,0.0,5.574,5.6029,5.6368,5.6368,5.6826,5.7188,5.7188,5.7188,5.7188,5.7188,5.7188,5.7188,5.7188,5.7188,5.7297,5.755,5.7587,5.7695,5.7949,5.7949,5.7949,5.7949,5.8456,5.8782,5.8782,5.9312,5.9602,5.9602,5.9855,5.9964,5.9964,6.0217,6.0362,6.0362,6.0362,6.0072,5.9602,5.9602,5.9602,5.9602,5.9602,5.9602,5.9602,5.9602,5.9602,5.9602,5.9602,5.9602,5.9602,5.9602,5.9602,5.9602,0.0,0.0,0.0,0.0,0.0,0.0,0.0,0.0,0.0,0.0,0.0,0.0,0.0,0.0,0.0,0.0,0.0,0.0,5.02,5.0126,5.0114,5.0188,5.0063,4.9986,4.9986,4.9986,4.9953,4.9886,4.9931,4.9931,4.9924,5.0789,5.1199,5.1237,5.2032,5.2411,5.2411,5.2411,5.2411,5.248,5.3359,5.3466,0.0,0.0,0.0,0.0,0.0,0.0,0.0,0.0,5.3078,5.304,5.264,5.2783,5.3202,5.3598,5.3711,5.3892,5.4689,5.545,5.6005,5.6005,5.6621,5.7188,5.7188,5.7188,5.7188,5.7188,5.7188,5.7188,5.7188,5.7188,5.7188,5.7188,5.7188,5.7224,5.7224,5.7224,5.7514,5.8311,5.842,5.8709,5.9529,5.9602,5.9602,5.9602,5.9615,5.9615,5.9615,5.9602,5.9602,5.9602,6.0398,6.0797,6.0797,6.1593,6.1992,6.1992,6.1992,6.1159,5.9602,5.9602,5.9602,5.9602,5.9602,5.9602,5.9602,5.9602,5.9602,5.9602,5.9602,5.9602,5.9602,5.9602,5.9602,5.9602,0.0,0.0,0.0,0.0,0.0,0.0,0.0,0.0,0.0,0.0,0.0,0.0,0.0,0.0,0.0,0.0,0.0,0.0,5.0194,5.0126,5.007,5.005,4.9966,4.992,4.992,4.992,4.9906,4.9886,5.0523,5.0827,5.082,5.1654,5.2032,5.2032,5.2298,5.2753,5.3321,5.3321,5.349,5.3785,5.433,5.4124,0.0,0.0,0.0,0.0,0.0,0.0,0.0,0.0,0.0,0.0,5.3215,5.3418,5.3644,5.4327,5.4907,5.539,5.5607,5.6247,5.6826,5.6826,5.7007,5.7188,5.7188,5.7188,5.7188,5.7188,5.7188,5.7188,5.7188,5.7188,5.7369,5.7949,5.8058,5.8239,5.8818,5.8891,5.8999,5.9216,5.9253,5.9361,5.9579,5.9602,5.9602,5.9602,6.0109,6.0435,6.0435,6.0978,6.1304,6.1304,6.1521,6.163,6.163,6.1883,6.1992,6.1992,6.1992,6.1738,6.1304,6.1304,6.1304,6.1304,6.1304,6.1304,6.1304,6.1304,6.1304,6.1304,6.1304,6.1304,6.1304,6.1304,6.1304,6.1304,0.0,0.0,0.0,0.0,0.0,0.0,0.0,0.0,0.0,0.0,0.0,0.0,0.0,0.0,0.0,0.0,0.0,0.0,0.0,5.0139,5.0076,5.007,5.0005,4.9953,4.9926,5.0241,5.041,5.041,5.0933,5.135,5.1691,5.2525,5.2904,5.2942,5.3245,5.3596,5.3935,5.4103,5.4121,5.4105,5.4509,5.4184,5.3469,0.0,0.0,0.0,0.0,0.0,0.0,0.0,0.0,0.0,5.3929,5.4182,5.4327,5.5124,5.5631,5.6078,5.6404,5.6826,5.7188,5.7188,5.7188,5.7188,5.7188,5.7188,5.7188,5.7188,5.7442,5.7695,5.7695,5.7949,5.8311,5.8818,5.8891,5.9072,5.9542,5.9602,5.971,6.0036,6.0072,6.0181,6.0507,6.0543,6.0543,6.0543,6.1014,6.1267,6.1267,6.1738,6.1992,6.1992,6.1992,6.1992,6.1992,6.1992,6.1992,6.1992,6.1992,6.1992,6.1992,6.1992,6.1992,6.1992,6.1992,6.1992,6.1992,6.1992,6.1992,6.1992,6.1992,6.1992,6.1992,6.1992,6.1992,6.1992,0.0,0.0,0.0,0.0,0.0,0.0,0.0,0.0,0.0,0.0,0.0,0.0,0.0,0.0,0.0,0.0,0.0,0.0,0.0,0.0,5.0114,5.0175,5.0101,5.0038,4.9979,5.0778,5.1237,5.1312,5.1388,5.1805,5.2525,5.3397,5.3821,5.3852,5.4579,5.4714,5.4393,5.4722,5.4389,5.373,5.4105,5.3749,5.3062,5.3067,0.0,0.0,0.0,0.0,0.0,0.0,0.0,0.0,5.4762,5.5003,5.516,5.5884,5.6114,5.6259,5.7007,5.7188,5.7188,5.7188,5.7261,5.7297,5.7297,5.7369,5.7406,5.7333,5.7949,5.8528,5.8528,5.9108,5.9602,5.971,5.971,5.971,5.9819,5.9819,6.0072,6.0833,6.0905,6.1195,6.1919,6.1992,6.1992,6.1992,6.1992,6.1992,6.1992,6.1992,6.1992,6.1992,6.1992,6.1992,6.1992,6.1992,6.1992,6.1992,6.1992,6.1992,6.1992,6.1992,6.1992,6.1992,6.1992,6.1992,6.1992,6.1992,6.1992,6.1992,6.1992,6.1992,6.1992,6.1992,6.1992,6.1992,0.0,0.0,0.0,0.0,0.0,0.0,0.0,0.0,0.0,0.0,0.0,0.0,0.0,0.0,0.0,0.0,0.0,0.0,0.0,0.0,5.007,5.0031,4.9966,4.9926,4.9913,5.0758,5.1502,5.2146,5.2828,5.3252,5.3435,5.4276,5.4647,5.4655,5.4806,5.4845,5.4761,5.4533,5.4158,5.3702,5.3786,5.3357,5.2649,5.2987,0.0,0.0,0.0,0.0,0.0,0.0,0.0,0.0,5.5522,5.5752,5.5921,5.6717,5.6935,5.6971,5.7152,5.7188,5.7188,5.7188,5.7659,5.813,5.813,5.8637,5.8891,5.8275,5.8782,5.9361,5.9361,5.947,5.9819,6.0435,6.0543,6.076,6.1412,6.1485,6.1557,6.1738,6.1738,6.1811,6.1992,6.1992,6.1992,6.1992,6.1992,6.1992,6.1992,6.1992,6.1992,6.1992,6.1992,6.1992,6.1992,6.1992,6.1992,6.1992,6.1992,6.1992,6.1992,6.1992,6.1992,6.1992,6.1992,6.1992,6.1992,6.1992,6.1992,6.1992,6.1992,6.1992,6.1992,6.1992,6.1992,6.1992,0.0,0.0,0.0,0.0,0.0,0.0,0.0,0.0,0.0,0.0,0.0,0.0,0.0,0.0,0.0,0.0,0.0,0.0,0.0,0.0,5.005,4.9986,4.9926,5.0113,5.0523,5.135,5.2184,5.3018,5.3852,5.4276,5.4268,5.4693,5.492,5.492,5.492,5.4706,5.4322,5.4296,5.3861,5.313,5.3346,5.3062,0.0,0.0,0.0,0.0,0.0,0.0,0.0,0.0,0.0,0.0,0.0,0.0,5.6657,5.708,5.7188,5.7188,5.7188,5.7188,5.7297,5.7695,5.8094,5.8492,5.8891,5.9602,6.0072,5.9651,5.9891,6.0181,6.0181,6.0471,6.0905,6.1304,6.1376,6.1521,6.1955,6.1992,6.1992,6.1992,6.1992,6.1992,6.1992,6.1992,6.1992,6.1992,6.1992,6.1992,6.1992,6.1992,6.1992,6.1992,6.1992,6.1992,6.1992,6.1992,6.1992,6.1992,6.1992,6.1992,6.1992,6.1992,6.1992,6.1992,6.1992,6.1992,6.1992,6.1992,6.1992,6.1992,6.1992,6.1992,6.1992,6.1992,6.1992,6.1992,0.0,0.0,0.0,0.0,0.0,0.0,0.0,0.0,0.0,0.0,0.0,0.0,0.0,0.0,0.0,0.0,0.0,0.0,0.0,0.0,0.0,4.9973,5.0078,5.0468,5.1199,5.2146,5.298,5.3707,5.4503,5.492,0.0,5.492,5.492,5.4913,5.4822,5.4451,5.3814,5.4025,5.3526,5.264,5.2879,0.0,0.0,0.0,0.0,0.0,0.0,0.0,0.0,0.0,0.0,0.0,0.0,0.0,5.7188,5.7188,5.7188,5.7188,5.7188,5.7297,5.755,5.8239,5.8601,5.8999,5.9651,6.0435,6.1014,6.1014,6.1014,6.1014,6.1014,6.1557,6.1992,6.1992,6.1992,6.1992,6.1992,6.1992,6.1992,6.1992,6.1992,6.1992,6.1992,6.1992,6.1992,6.1992,6.1992,6.1992,6.1992,6.1992,6.1992,6.1992,6.1992,6.1992,6.1992,6.1992,6.1992,6.1992,6.1992,6.1992,6.1992,6.1992,6.1992,6.1992,6.1992,6.1992,6.1992,6.1992,6.1992,6.1992,6.1992,6.1992,6.1992,6.1992,6.1992,6.1992,0.0,0.0,0.0,0.0,0.0,0.0,0.0,0.0,0.0,0.0,0.0,0.0,0.0,0.0,0.0,0.0,0.0,0.0,0.0,0.0,0.0,4.9906,5.0667,5.1154,5.1199,5.2715,5.3594,5.3707,5.4503,0.0,0.0,0.0,0.0,5.4867,0.0,5.4305,5.4176,5.3509,5.3162,5.2998,0.0,0.0,0.0,0.0,0.0,0.0,0.0,0.0,0.0,0.0,5.6476,0.0,0.0,0.0,5.7188,5.7188,5.7188,5.7188,5.7188,5.7695,5.8275,5.8383,5.9457,6.0507,6.0616,6.1267,6.1847,6.1847,6.1847,6.1847,6.1847,6.1919,6.1992,6.1992,6.1992,6.1992,6.1992,6.1992,6.1992,6.1992,6.1992,6.1992,6.1992,6.1992,6.1992,6.1992,6.1992,6.1992,6.1992,6.1992,6.1992,6.1992,6.1992,6.1992,6.1992,6.1992,6.1992,6.1992,6.1992,6.1992,6.1992,6.1992,6.1992,6.1992,6.1992,6.1992,6.1992,6.1992,6.1992,6.1992,6.1992,6.1992,6.1992,6.1992,6.1992,6.1992,0.0,0.0,0.0,0.0,0.0,0.0,0.0,0.0,0.0,0.0,0.0,0.0,0.0,0.0,0.0,0.0,0.0,0.0,0.0,0.0,0.0,5.0667,5.1033,5.1651,5.2563,5.3321,5.3927,5.4389,0.0,0.0,0.0,5.4565,5.4565,0.0,0.0,0.0,0.0,0.0,0.0,0.0,0.0,0.0,0.0,0.0,0.0,0.0,0.0,0.0,0.0,0.0,5.6899,5.7188,5.7188,0.0,0.0,0.0,5.7188,5.7297,5.7732,5.813,5.8637,5.9529,6.029,6.0905,6.1376,6.1738,6.1992,6.1992,6.1992,6.1992,6.1992,6.1992,6.1992,6.1992,6.1992,6.1992,6.1992,6.1992,6.1992,6.1992,6.1992,6.1992,6.1992,6.1992,6.1992,6.1992,6.1992,6.1992,6.1992,6.1992,6.1992,6.1992,6.1992,6.1992,6.1992,6.1992,6.1992,6.1992,6.1992,6.1992,6.1992,6.1992,6.1992,6.1992,6.1992,6.1992,6.1992,6.1992,6.1992,6.1992,6.1992,6.1992,6.1992,6.1992,6.1992,6.1992,0.0,0.0,0.0,0.0,0.0,0.0,0.0,0.0,0.0,0.0,0.0,0.0,0.0,0.0,0.0,0.0,0.0,0.0,0.0,0.0,0.0,5.1588,5.1754,5.2447,5.3698,5.3904,5.4314,5.492,0.0,0.0,5.4288,5.4097,5.4007,0.0,5.3673,5.3397,0.0,0.0,0.0,0.0,0.0,0.0,0.0,0.0,0.0,0.0,0.0,0.0,0.0,0.0,0.0,5.7188,5.7188,5.7188,0.0,0.0,0.0,5.7623,5.8239,5.8709,5.9289,6.0507,6.0942,6.1267,6.1847,6.1992,6.1992,6.1992,6.1992,6.1992,6.1992,6.1992,6.1992,6.1992,6.1992,6.1992,6.1992,6.1992,6.1992,6.1992,6.1992,6.1992,6.1992,6.1992,6.1992,6.1992,6.1992,6.1992,6.1992,6.2173,6.2281,6.2281,6.2499,6.2607,6.2607,6.2607,6.2607,6.2607,6.2607,6.2607,6.2607,6.2607,6.2607,6.2571,6.2173,6.1992,6.1992,6.1992,6.1992,6.2028,6.2245,6.2281,6.2317,6.2535,6.2607,6.2607,0.0,0.0,0.0,0.0,0.0,0.0,0.0,0.0,0.0,0.0,0.0,0.0,0.0,0.0,5.0259,5.02,5.02,5.0488,5.1183,5.1306,5.1648,5.2424,5.3214,0.0,5.3777,5.4464,5.4844,0.0,0.0,0.0,5.4271,5.3536,5.3151,5.3151,5.313,5.3109,5.313,0.0,0.0,0.0,0.0,0.0,0.0,0.0,0.0,0.0,0.0,0.0,0.0,0.0,0.0,0.0,0.0,5.7188,5.7188,0.0,0.0,0.0,5.8383,5.9506,6.0688,6.076,6.1376,6.1955,6.1992,6.1992,6.1992,6.1992,6.1992,6.1992,6.1992,6.1992,6.1992,6.1992,6.1992,6.1992,6.1992,6.1992,6.1992,6.1992,6.1992,6.1992,6.1992,6.1992,6.1992,6.1992,6.1992,6.1992,6.1992,6.273,6.3142,6.3142,6.3889,6.4301,6.4301,6.4301,6.4301,6.4301,6.4301,6.4301,6.4301,6.4301,6.4301,6.4178,6.2643,6.1992,6.1992,6.1992,6.1992,6.21,6.2838,6.3142,6.3251,6.3997,6.4301,6.4301,0.0,0.0,0.0,0.0,0.0,0.0,0.0,0.0,0.0,0.0,0.0,0.0,0.0,5.0283,5.0271,5.0253,5.0703,5.132,5.2203,5.2129,5.2448,5.3352,5.3611,5.3978,5.4509,5.4494,5.4517,0.0,0.0,5.3768,5.3499,5.3234,5.3258,5.347,5.296,5.2997,5.3495,5.3637,0.0,0.0,0.0,0.0,0.0,0.0,0.0,0.0,0.0,0.0,0.0,0.0,0.0,0.0,0.0,0.0,0.0,5.7188,5.7768,5.8528,5.9035,5.9964,6.0905,6.1448,6.1774,6.1992,6.1992,6.1992,6.1992,6.1992,6.1992,6.1992,6.1992,6.1992,6.1992,6.1992,6.1992,6.1992,6.1992,6.1992,6.2173,6.2693,6.2766,6.2983,6.349,6.3526,6.3526,6.3526,6.3526,6.3526,6.3526,6.3816,6.3975,6.3975,6.4251,6.4396,6.4396,6.4396,6.4396,6.4396,6.4396,6.4396,6.4396,6.4396,6.4396,6.4359,6.378,6.3526,6.3526,6.3526,6.3526,6.3563,6.3866,6.3975,6.4011,6.4287,6.4396,6.4396,0.0,0.0,0.0,0.0,0.0,0.0,0.0,0.0,0.0,0.0,0.0,0.0,0.0,0.0,5.0844,5.1088,5.1542,5.2196,5.3086,5.3031,5.3342,5.4227,5.4173,5.4337,5.4723,5.4468,5.4228,0.0,0.0,0.0,0.0,5.3258,5.3442,5.3675,5.3422,5.3603,0.0,0.0,0.0,5.6042,0.0,0.0,5.7188,0.0,0.0,0.0,0.0,0.0,0.0,0.0,0.0,0.0,0.0,0.0,0.0,0.0,0.0,5.8999,5.9783,6.0579,6.134,6.1883,6.1992,6.1992,6.1992,6.1992,6.1992,6.1992,6.1992,6.21,6.2354,6.2404,6.2404,6.2404,6.2607,6.2788,6.2788,6.2788,6.3019,6.354,6.3613,6.383,6.4359,6.4396,6.4396,6.4396,6.4396,6.4396,6.4396,6.4649,6.4939,6.5192,6.5192,6.5192,6.5192,6.5192,6.5192,6.5192,6.5192,6.5192,6.5192,6.5192,6.5192,6.5192,6.5192,6.4903,6.4396,6.4396,6.4396,6.4446,6.4685,6.4794,6.483,6.512,6.5192,6.5192,0.0,0.0,0.0,0.0,0.0,0.0,0.0,0.0,0.0,0.0,0.0,0.0,0.0,0.0,0.0,5.2673,5.2705,5.3028,5.3805,5.396,5.4309,5.4976,5.5,5.4807,5.4401,5.433,5.4097,5.3673,5.3285,5.3104,5.313,0.0,5.3711,5.3784,5.4569,5.4931,5.5015,0.0,5.6005,5.6114,0.0,5.7188,5.7188,0.0,0.0,0.0,5.7188,5.7188,0.0,5.7188,0.0,0.0,0.0,0.0,0.0,0.0,0.0,0.0,0.0,0.0,0.0,6.1992,6.1992,6.1992,6.1992,6.1992,6.1992,6.1992,6.2028,6.2281,6.3069,6.3251,6.3287,6.3287,6.3903,6.4396,6.4396,6.4396,6.441,6.4446,6.4446,6.4432,6.4468,6.4468,6.4468,6.4468,6.4468,6.4468,6.4468,6.5192,6.5989,6.6786,6.6786,6.6786,6.6786,6.6786,6.6786,6.6786,6.6786,6.6786,6.6786,6.6786,6.6786,6.6786,6.6786,6.5917,6.4468,6.4468,6.4468,6.4541,6.5337,6.5627,6.5736,6.6496,6.6786,6.6786,0.0,0.0,0.0,0.0,0.0,0.0,0.0,0.0,0.0,0.0,0.0,0.0,0.0,0.0,5.2798,5.3658,5.3073,5.3353,5.4853,5.4258,5.4262,5.513,5.5007,5.4754,5.4392,5.405,5.3654,5.3275,5.2846,5.2976,5.3547,5.3662,0.0,0.0,5.5595,5.6029,5.6536,5.615,0.0,5.6899,5.7116,5.7188,0.0,0.0,0.0,0.0,0.0,5.7188,5.7188,0.0,5.7188,5.7297,0.0,0.0,0.0,0.0,0.0,0.0,6.0724,0.0,0.0,0.0,0.0,0.0,6.1992,6.1992,6.1992,6.1992,6.2476,6.2947,6.3178,6.4142,6.4939,6.4939,6.4613,6.4396,6.4396,6.4396,6.4613,6.5192,6.5265,6.5482,6.6098,6.6134,6.6134,6.6134,6.6134,6.6134,6.6134,6.6351,6.6569,6.6786,6.6786,6.6786,6.6786,6.6786,6.6786,6.6786,6.6786,6.6786,6.6786,6.6786,6.6786,6.6786,6.6786,6.6533,6.6134,6.6134,6.6134,6.617,6.6388,6.646,6.6496,6.6714,6.6786,6.6786,0.0,0.0,0.0,0.0,0.0,0.0,0.0,0.0,0.0,0.0,0.0,0.0,0.0,0.0,0.0,5.4562,5.4142,5.4237,5.5243,5.471,5.4618,5.5095,5.4837,5.4503,5.4121,5.3673,5.3439,5.3335,5.3137,5.3422,5.4218,5.4508,0.0,0.0,0.0,0.0,0.0,0.0,0.0,0.0,5.7188,0.0,0.0,5.7188,5.7188,0.0,0.0,0.0,5.7732,5.8094,5.8202,0.0,0.0,0.0,0.0,0.0,0.0,0.0,0.0,0.0,0.0,0.0,0.0,0.0,6.1992,6.1992,6.21,6.244,6.2875,6.3432,6.407,6.4975,6.57,6.6062,6.57,6.541,6.541,6.541,6.5591,6.6025,6.6098,6.6279,6.675,6.6786,6.6786,6.6786,6.6786,6.6786,6.6786,6.6786,6.6786,6.6786,6.6786,6.6786,6.6786,6.6786,6.6786,6.6786,6.6786,6.6786,6.6786,6.6786,6.6786,6.6786,6.6786,6.6786,6.6786,6.6786,6.6786,6.6786,6.6786,6.6786,6.6786,6.6786,6.6786,6.6786,0.0,0.0,0.0,0.0,0.0,0.0,0.0,0.0,0.0,0.0,0.0,0.0,0.0,0.0,0.0,0.0,5.532,5.5262,5.5203,5.5114,5.5047,5.5035,5.4646,5.4253,5.3832,5.3477,5.3493,5.382,5.382,5.4255,5.5051,5.5703,0.0,0.0,0.0,0.0,0.0,0.0,0.0,5.7188,5.7188,5.7188,5.7188,5.7188,5.7261,5.7442,5.813,5.8456,5.8637,5.9361,5.9651,0.0,0.0,0.0,0.0,0.0,6.0942,0.0,0.0,0.0,0.0,0.0,6.1992,0.0,6.1992,6.1937,6.2112,6.2922,6.3096,6.3545,6.5098,6.5423,6.5762,6.6559,6.6683,6.6697,6.6771,6.6786,6.6786,6.6786,6.6786,6.6786,6.6786,6.6786,6.6786,6.6786,6.6786,6.6786,6.6786,6.6786,6.6786,6.6786,6.6786,6.6786,6.6786,6.6786,6.6786,6.6786,6.6786,6.6786,6.6786,6.6786,6.6786,6.6786,6.6786,6.6786,6.6786,6.6786,6.6786,6.6786,6.6786,6.6786,6.6786,6.6786,6.6786,6.6786,0.0,0.0,0.0,0.0,0.0,0.0,0.0,0.0,0.0,0.0,0.0,0.0,0.0,0.0,0.0,0.0,5.4753,5.4632,5.5307,5.4585,5.4462,5.5143,5.4949,5.4764,5.4736,5.4637,5.4601,5.4689,5.4689,5.5051,5.5788,0.0,0.0,0.0,0.0,0.0,0.0,0.0,5.7188,5.7188,5.7188,5.7188,5.7188,5.7188,5.7587,5.8202,5.8347,5.8818,5.9398,5.9529,6.0036,6.0579,0.0,0.0,0.0,6.1738,0.0,0.0,0.0,0.0,0.0,0.0,6.1992,0.0,6.1992,6.1594,6.1428,6.2171,6.2402,6.2746,6.3665,6.4372,6.503,6.5788,6.5902,6.6125,6.6712,6.6786,6.6786,6.6786,6.6786,6.6786,6.6786,6.6786,6.6786,6.6786,6.6786,6.6786,6.6786,6.6786,6.6786,6.6786,6.6786,6.6786,6.6786,6.6786,6.6786,6.6786,6.6786,6.6786,6.6786,6.6786,6.6786,6.6786,6.6786,6.6786,6.6786,6.6786,6.6786,6.6786,6.6786,6.6786,6.6786,6.6786,6.6786,6.6786,0.0,0.0,0.0,0.0,0.0,0.0,0.0,0.0,0.0,0.0,0.0,0.0,0.0,0.0,0.0,0.0,0.0,0.0,0.0,5.6137,5.6006,5.6387,5.5848,5.5533,5.5544,5.5123,5.506,5.545,5.545,5.5848,5.6609,5.6609,0.0,0.0,0.0,0.0,0.0,0.0,5.7188,5.7188,5.7188,5.7442,5.7804,5.7804,5.8311,5.9072,5.9457,6.0109,6.0797,6.0797,6.105,0.0,6.1412,6.1666,6.1992,0.0,6.1992,6.1992,0.0,0.0,0.0,6.1992,0.0,0.0,0.0,6.1472,6.1322,6.2439,6.2493,6.267,6.3776,6.432,6.4839,6.5565,6.5713,6.5949,6.6697,6.6786,6.6786,6.6786,6.6786,6.6786,6.6786,6.6786,6.6786,6.6786,6.6786,6.6786,6.6786,6.6786,6.6786,6.6786,6.6786,6.6786,6.6786,6.6786,6.6786,6.6786,6.6786,6.6786,6.6786,6.6786,6.6786,6.6786,6.6786,6.6786,6.6786,6.6786,6.6786,6.6786,6.6786,6.6786,6.6786,6.6786,6.6786,6.6786,0.0,0.0,0.0,0.0,0.0,0.0,0.0,0.0,0.0,0.0,0.0,0.0,0.0,0.0,0.0,0.0,0.0,0.0,0.0,5.7625,5.7544,5.743,5.6682,5.6241,5.6236,5.5567,5.5583,5.6223,5.6223,5.6549,5.7188,5.7188,5.7188,0.0,0.0,0.0,0.0,0.0,5.7442,5.7442,5.7587,5.7949,5.842,5.8565,5.9144,5.9928,6.0724,6.1448,6.1992,6.1992,6.1992,6.1992,6.1992,6.1992,0.0,0.0,0.0,0.0,0.0,0.0,0.0,0.0,0.0,6.1964,0.0,0.0,0.0,6.2596,6.235,6.2352,6.3886,6.4183,6.4357,6.4948,6.5306,6.5685,6.6249,6.6605,6.6786,6.6786,6.6786,6.6786,6.6786,6.6786,6.6786,6.6786,6.6786,6.6786,6.6786,6.6786,6.6786,6.6786,6.6786,6.6786,6.6786,6.6786,6.6786,6.6786,6.6786,6.6786,6.6786,6.6786,6.6786,6.6786,6.6786,6.6786,6.6786,6.6786,6.6786,6.6786,6.6786,6.6786,6.6786,6.6786,6.6786,6.6786,0.0,0.0,0.0,0.0,0.0,0.0,0.0,0.0,0.0,0.0,0.0,0.0,0.0,0.0,0.0,0.0,0.0,0.0,5.7275,0.0,0.0,5.6873,5.65,5.6395,5.6646,5.6534,5.667,5.7043,5.7043,5.7116,5.7188,5.7188,5.7188,5.7188,5.7188,0.0,0.0,5.7949,5.8275,5.8347,5.9035,5.8963,5.8492,5.918,5.9964,6.076,6.1557,6.1919,6.1992,6.1992,6.1992,6.1992,0.0,6.1992,6.1992,6.1992,0.0,0.0,0.0,0.0,0.0,0.0,6.1992,6.1854,6.1235,0.0,6.0374,6.1276,0.0,6.0838,6.2367,0.0,0.0,6.2589,6.3789,6.4694,6.4672,6.5917,6.6786,6.6786,6.6786,6.6786,6.6786,6.6786,6.6786,6.6786,6.6786,6.6786,6.6786,6.6786,6.6786,6.6786,6.6786,6.6786,6.6786,6.6786,6.6786,6.6786,6.6786,6.6786,6.6786,6.6786,6.6786,6.6786,6.6786,6.6786,6.6786,6.6786,6.6786,6.6786,6.6786,6.6786,6.6786,6.6786,6.6786,6.6786,0.0,0.0,0.0,0.0,0.0,0.0,0.0,0.0,0.0,0.0,0.0,0.0,0.0,0.0,0.0,0.0,0.0,5.8667,5.8722,0.0,0.0,5.7997,5.7567,5.7331,5.7386,5.7132,5.7073,5.7188,5.7188,5.7188,5.7188,5.7188,5.7442,5.7913,5.7913,5.8166,5.8601,5.8963,5.9108,5.918,5.9964,6.0072,5.9819,6.0181,6.0797,6.1557,6.1883,6.1992,6.1992,6.1992,6.1992,6.1992,6.1992,0.0,0.0,6.1992,0.0,0.0,0.0,0.0,0.0,6.1016,6.1447,6.1893,6.1222,6.087,6.0912,6.1686,0.0,0.0,0.0,0.0,0.0,0.0,6.445,6.4895,6.5669,6.6388,6.6786,6.6786,6.6786,6.6786,6.6786,6.6786,6.6786,6.6786,6.6786,6.6786,6.6786,6.6786,6.6786,6.6786,6.6786,6.6786,6.6786,6.6786,6.6786,6.6786,6.6786,6.6786,6.6786,6.6786,6.6786,6.6786,6.6786,6.6786,6.6786,6.6786,6.6786,6.6786,6.6786,6.6786,6.6786,6.6786,6.6786,6.6786,0.0,0.0,0.0,0.0,0.0,0.0,0.0,0.0,0.0,0.0,0.0,0.0,5.9713,5.979,0.0,0.0,6.0379,6.01,6.0066,0.0,5.9197,0.0,0.0,0.0,5.8372,5.8029,5.784,5.784,5.784,5.784,5.784,5.784,5.8166,5.8746,5.8746,5.9072,5.9602,5.9819,5.9928,6.0,6.0797,6.1123,6.1123,6.1123,6.1485,6.1992,6.1992,6.1992,6.1992,6.1992,6.1992,6.1992,6.1992,6.1992,6.2028,0.0,0.0,0.0,6.1946,6.212,6.2184,6.1402,6.1981,6.25,6.162,6.1631,6.1849,6.1984,6.1969,0.0,0.0,0.0,6.3468,6.4818,0.0,6.5196,6.6009,6.6533,6.6786,6.6786,6.6786,6.6786,6.6786,6.6786,6.6786,6.6786,6.6786,6.6786,6.6786,6.6786,6.6786,6.6786,6.6786,6.6786,6.6786,6.6786,6.6786,6.6786,6.6786,6.6786,6.6786,6.6786,6.6786,6.6786,6.6786,6.6786,6.6786,6.6786,6.6786,6.6786,6.6786,6.6683,6.6512,6.6727,6.6786,6.6786,0.0,5.7848,0.0,0.0,0.0,0.0,0.0,5.9797,6.03,6.03,6.03,6.0644,0.0,0.0,0.0,0.0,0.0,6.1222,6.0714,6.0237,6.0054,0.0,0.0,5.9662,0.0,5.9542,5.9529,5.9529,5.9529,5.9529,5.9529,5.9529,5.9542,5.9579,5.9579,5.9579,5.9638,6.0435,6.076,6.0833,6.163,6.1955,6.1955,6.1955,6.1992,6.1992,6.1992,6.1992,6.1992,6.1992,6.1992,6.1992,6.1992,6.1992,6.2136,6.2911,6.2652,6.2427,6.3885,6.3788,6.3408,6.4087,6.4281,6.3978,6.2595,6.282,6.2955,6.1608,6.2465,6.3449,6.3486,0.0,0.0,0.0,0.0,0.0,0.0,6.5808,6.6786,6.6786,6.6786,6.6786,6.6786,6.6786,6.6786,6.6786,6.6786,6.6786,6.6786,6.6786,6.6786,6.6786,6.6786,6.6786,6.6786,6.6786,6.6786,6.6786,6.6786,6.6786,6.6786,6.6786,6.6786,6.6786,6.6786,6.6786,6.6786,6.6786,6.6786,6.6786,6.6786,6.6376,6.5824,6.6527,6.6786,6.6786,0.0,0.0,0.0,0.0,0.0,5.9651,5.9911,6.0676,6.1172,6.1172,6.1707,6.2166,6.2426,6.2231,6.2012,6.1917,6.129,6.0837,6.066,6.0065,5.9823,0.0,0.0,5.9654,0.0,0.0,0.0,5.9602,5.9602,5.9602,5.9602,5.9602,5.9891,6.0398,6.0398,6.0688,6.1195,6.1485,6.1593,6.163,6.1883,6.1992,6.1992,6.1992,6.1992,6.1992,6.1992,6.1992,6.21,6.2621,6.2802,6.2875,6.3418,6.3599,6.3551,6.3334,6.3086,6.28,6.2394,6.2432,6.2546,6.2331,6.3032,6.3631,6.3173,6.3643,6.4068,6.3588,6.3869,6.437,6.4888,0.0,0.0,0.0,0.0,0.0,0.0,6.646,6.6786,6.6786,6.6786,6.6786,6.6786,6.6786,6.6786,6.6786,6.6786,6.6786,6.6786,6.6786,6.6786,6.6786,6.6786,6.6786,6.6786,6.6786,6.6786,6.6786,6.6786,6.6786,6.6786,6.6786,6.6786,6.6786,6.6786,6.6786,6.6786,6.6786,6.6786,6.6742,6.6248,6.5918,6.5744,6.5965,6.576,6.5322,6.1294,0.0,0.0,0.0,6.0255,6.095,6.1249,6.1745,6.2044,6.2044,6.2541,6.2947,6.3023,6.2837,6.2676,6.2464,6.1851,6.1428,6.1238,6.0739,6.0475,6.0567,6.0488,6.0435,0.0,0.0,0.0,0.0,0.0,6.0435,6.0435,6.0435,6.0724,6.1231,6.1231,6.1521,6.1992,6.1992,6.1992,6.1992,6.1992,6.2173,6.244,6.244,6.2245,6.2028,6.2317,6.244,6.2549,6.3345,6.3649,6.3722,6.4229,6.4396,6.4361,6.419,6.3754,6.3268,6.2886,6.2717,6.2614,6.244,6.3136,6.3778,6.3537,6.406,6.4463,6.3916,6.4236,6.4669,6.489,6.4957,0.0,0.0,0.0,0.0,0.0,6.6786,6.6786,6.6786,6.6786,6.6786,6.6786,6.6786,6.6786,6.6786,6.6786,6.6786,6.6786,6.6786,6.6786,6.6786,6.6786,6.6786,6.6786,6.6786,6.6786,6.6786,6.6786,6.6786,6.6786,6.6786,6.6786,6.6786,6.6786,6.6786,6.6786,6.6786,6.6786,6.6742,6.6264,6.5918,6.5681,6.5403,6.5008,6.4601,6.2884,6.2884,6.2395,6.0874,6.1172,6.1936,6.277,6.2923,6.2961,6.2961,6.2984,6.3092,6.3361,6.3419,6.3445,6.3314,6.3168,6.2868,6.2397,6.2141,6.1992,0.0,6.1992,6.1992,6.1992,0.0,0.0,0.0,0.0,6.1992,6.1992,6.1992,6.1992,6.1992,6.1992,6.1992,6.1992,6.1992,6.2028,6.2064,6.2064,6.2549,6.3251,6.3251,6.2766,6.2209,6.2983,6.3251,6.3396,6.4192,6.4482,6.4468,6.4519,6.4504,6.4649,6.5381,6.4602,6.3838,6.5239,6.4635,6.3716,6.4428,6.4601,6.441,6.3716,6.4094,6.42,6.2813,6.3625,6.4393,6.3734,6.4755,0.0,0.0,0.0,0.0,0.0,6.6786,6.6786,6.6786,6.6786,6.6786,6.6786,6.6786,6.6786,6.6786,6.6786,6.6786,6.6786,6.6786,6.6786,6.6786,6.6786,6.6786,6.6786,6.6786,6.6786,6.6786,6.6786,6.6786,6.6786,6.6786,6.6786,6.6786,6.6786,6.6786,6.6786,6.6786,6.6786,6.6822,6.6742,6.6279,6.5549,6.4856,6.4583,6.4549,6.2884,6.2884,6.2968,6.3205,6.2853,6.2655,6.2884,6.3465,6.3854,6.3854,6.4135,6.4348,6.4416,6.3776,6.3308,6.3166,6.2694,6.2344,6.2114,6.2033,6.1992,6.1992,6.1992,6.1992,6.1992,6.1992,0.0,6.1992,0.0,6.1992,6.1992,6.1992,6.1992,6.1992,6.1992,6.1992,6.1992,6.1992,6.2354,6.2875,6.2875,6.3382,6.4084,6.4084,6.3961,6.3816,6.3997,6.4084,6.4229,6.5011,6.5301,6.541,6.5989,6.617,6.6119,6.5782,6.5391,6.509,6.492,6.4618,6.4358,6.4549,6.4601,6.4549,6.4358,6.4463,6.4497,6.4112,6.4341,6.472,6.5074,6.5436,6.5871,0.0,0.0,0.0,0.0,6.6786,6.6786,6.6786,6.6786,6.6786,6.6786,6.6786,6.6786,6.6786,6.6786,6.6786,6.6786,6.6786,6.6786,6.6786,6.6786,6.6786,6.6786,6.6786,6.6786,6.6786,6.6786,6.6786,6.6786,6.6786,6.6786,6.6786,6.6786,6.6786,6.6786,6.6786,6.6786,6.6742,6.6187,6.5517,6.4856,6.4669,6.4253,6.3788,6.3992,6.3992,6.4153,6.4657,6.4305,6.3992,6.3992,6.442,6.4733,6.4733,6.4915,6.4888,6.4436,6.3944,6.3419,6.2831,6.2464,6.2248,6.21,6.2033,6.1992,6.1992,6.1992,6.1992,6.1992,6.1992,0.0,6.1992,0.0,6.1992,6.1992,6.1992,6.1992,6.1992,6.1992,6.1992,6.2028,6.239,6.2983,6.3722,6.3722,6.4229,0.0,6.4903,6.512,6.5446,6.5446,6.5229,6.5048,6.5844,6.6134,6.6207,6.6677,6.6786,6.6712,6.6294,6.5949,6.5597,6.519,6.4856,6.4601,6.4601,6.4601,6.4601,6.4601,6.4341,6.4112,6.4112,6.3844,6.3788,6.4183,6.477,6.5584,0.0,0.0,0.0,0.0,6.6786,6.6786,6.6786,6.6786,6.6786,6.6786,6.6786,6.6786,6.6786,6.6786,6.6786,6.6786,6.6786,6.6786,6.6786,6.6482,6.6467,6.6822,6.6482,6.6482,6.6786,6.6786,6.6786,6.6786,6.6786,6.6786,6.6786,6.6786,6.6786,6.6786,6.6786,6.6786,6.6727,6.5981,6.5256,6.4601,6.4601,6.4341,6.3916,6.5413,6.5413,6.5413,6.5413,6.5413,6.5413,6.5413,6.5413,6.5413,6.5413,6.5298,6.4905,6.4019,6.3913,6.3472,6.2488,6.2381,6.2315,6.2158,6.206,6.1992,6.1992,6.1992,6.1992,6.1992,6.1992,6.1992,0.0,0.0,6.1992,6.1992,6.1992,6.2064,6.2173,6.2173,6.2209,6.2354,6.3056,6.383,6.4541,6.4541,6.5048,6.5772,6.5772,6.6207,6.6786,6.6786,6.6351,6.5844,6.6569,6.6786,6.6786,6.6786,6.6786,6.6771,6.6683,6.6202,6.5697,6.5565,6.5091,6.4601,6.4601,6.4532,6.448,6.4583,6.4023,6.3549,6.3606,6.314,6.2717,6.2832,6.3952,6.5289,6.6608,6.6786,6.6786,6.6786,6.6786,6.6786,6.6786,6.6786,0.0,6.6786,6.6786,6.6786,6.6786,6.6786,6.6786,6.6786,6.6786,6.6786,6.6786,6.6187,6.6156,6.6771,6.6172,6.6172,6.6786,6.6786,6.6742,6.6668,6.6668,6.6608,6.6497,6.6497,6.6497,6.6497,6.6497,6.6497,6.6437,6.5808,6.5157,6.4601,6.4601,6.4601,6.4497,6.5413,6.5413,6.5413,6.5413,6.5413,6.5413,6.5413,6.5413,6.5413,6.5413,6.4754,6.4245,6.4086,6.3259,6.2605,6.241,6.2208,6.206,6.2033,6.2005,6.1992,6.1992,6.1992,6.1992,6.1992,6.1992,6.1992,0.0,0.0,6.1992,6.1992,6.1992,6.2354,6.2983,6.2983,6.3345,6.3997,6.4106,6.4649,6.5374,6.5374,6.5881,6.6605,6.6605,6.6677,6.6786,6.6786,6.6714,6.6605,6.675,6.6786,6.6786,6.6786,6.6786,6.6683,6.6079,6.5808,6.5549,6.4957,6.4703,6.4601,6.4601,6.413,6.3861,6.4463,6.4023,6.3661,6.4271,6.4306,6.441,6.5024,6.5824,6.6482,6.6742,6.6786,6.6786,6.6786,6.6786,6.6786,6.6786,6.6786,6.6786,6.6786,6.6786,6.6786,6.6786,6.6786,6.6786,6.6786,6.6786,6.6786,6.6786,6.6683,6.6668,6.6786,6.6668,6.6668,6.6786,6.6786,6.6482,6.5887,6.5887,6.5584,6.4991,6.4991,6.4991,6.4991,6.4991,6.4991,6.4974,6.4839,6.472,6.4601,6.4601,6.4601,6.4497,6.5413,6.5413,6.5413,6.5413,6.5413,6.5322,6.5109,6.5085,6.5085,6.5085,6.4648,6.4176,6.375,6.3119,6.2643,6.2318,6.2195,6.2073,6.1992,6.1992,6.1992,6.1992,6.1992,6.1992,6.1992,6.1992,6.2209,6.2621,6.2621,6.2838,6.3237,6.2838,6.3056,6.383,6.383,6.4251,6.5011,6.5011,6.5482,6.6207,6.6207,6.646,6.6786,6.6786,6.6786,6.6786,6.6786,6.6786,6.6786,6.6786,6.6786,6.6786,6.6786,6.6527,6.6156,6.5808,6.542,6.5058,6.4703,6.4601,6.4601,6.4601,6.4323,6.4253,6.5008,6.4601,6.4271,6.5024,6.4873,6.4839,6.5549,6.5981,6.6361,6.6727,6.6786,6.6786,6.6786,6.6786,6.6786,6.6786,6.6786,6.6786,6.6786,6.6786,6.6786,6.6786,6.6452,6.6406,6.6771,6.6437,6.6406,6.6771,6.6437,6.6421,6.6822,6.6048,6.5839,6.6218,6.5824,6.5488,6.5141,6.5141,6.4941,6.4601,6.4601,6.4601,6.4601,6.4601,6.4376,6.4023,6.4023,6.3807,6.3459,6.3459,6.3459,6.3459,6.5413,6.5413,6.5413,6.5413,6.5322,6.5188,6.4836,6.4721,6.4659,6.4659,6.4483,6.4076,6.3388,6.3097,6.2744,6.2238,6.2158,6.2114,6.1992,6.2173,6.2245,6.2245,6.2426,6.2499,6.2499,6.2499,6.2838,6.3468,6.3468,6.3794,6.441,6.3758,6.3889,6.4649,6.483,6.5265,6.5844,6.5844,6.6207,6.6786,6.6786,6.6786,6.6786,6.6786,6.6786,6.6786,6.6786,6.6786,6.6786,6.6786,6.6786,6.6786,6.6786,6.6406,6.5902,6.576,6.5289,6.4772,6.4445,6.4358,6.4358,6.4358,6.4358,6.4601,6.5484,6.5256,6.5041,6.5792,6.5452,6.524,6.5824,6.5934,6.6125,6.6697,6.6786,6.6786,6.6786,6.6786,6.6786,6.6786,6.6786,6.6786,6.6786,6.6786,6.6786,6.6786,6.6248,6.6187,6.6757,6.6248,6.6202,6.6771,6.6094,6.5965,6.6542,6.5256,6.489,6.5452,6.489,6.4515,6.4358,6.4358,6.4271,6.413,6.413,6.413,6.413,6.413,6.3807,6.3271,6.3271,6.2928,6.24,6.24,6.24,6.2479,6.5413,6.5413,6.5413,6.5413,6.5093,6.4827,6.4792,6.4436,6.4156,6.4156,6.3846,6.3535,6.3319,6.2806,6.2384,6.2199,6.21,6.2005,6.1992,6.2693,6.3106,6.3106,6.3794,6.4178,6.4178,6.4178,6.4215,6.4301,6.4301,6.4337,6.4396,6.4323,6.4722,6.5518,6.6243,6.6605,6.6677,6.6677,6.675,6.6786,6.6786,6.6786,6.6786,6.6786,6.6786,6.6786,6.6786,6.6786,6.6786,6.6786,6.6786,6.6786,6.6786,6.6742,6.6578,6.5887,6.5629,6.5305,6.3986,6.3588,6.3588,6.3588,6.3588,6.3952,6.5371,6.5665,6.5808,6.6527,6.6653,6.6623,6.6683,6.6697,6.6712,6.6771,6.6786,6.6786,6.6786,6.6786,6.6786,6.6786,6.6786,6.6786,6.6786,6.6786,6.6786,6.6786,6.6727,6.6727,6.6822,6.6727,6.6727,6.6786,6.6094,6.5744,6.5808,6.5008,6.4635,6.4703,6.4635,6.4253,6.3588,6.3588,6.3252,6.2635,6.2635,6.2635,6.2635,6.2635,6.2576,6.2498,6.2498,6.2459,6.24,6.24,6.24,6.24,6.5413,6.5413,6.5566,6.6101,6.6068,6.5944,6.5889,6.5649,6.5314,6.4872,6.3926,6.3109,6.2693,6.2795,6.2844,6.279,6.3206,6.3454,6.3454,6.3744,6.3939,6.3939,6.4229,6.4396,6.4396,6.4396,6.4649,6.512,6.512,6.5374,6.5844,6.5337,6.5301,6.5627,6.646,6.6786,6.6786,6.6786,6.6786,6.6786,6.6786,6.6786,6.6786,6.6786,6.6786,6.6786,6.6786,6.6786,6.6786,6.6786,6.6786,6.6786,6.6786,6.6482,6.6094,6.5792,6.5387,6.4924,6.4323,6.4147,6.4147,6.4147,6.4147,6.4428,6.5452,6.5713,6.5902,6.6653,6.6786,6.6786,6.6786,6.6786,6.6786,6.6786,6.6786,6.6786,6.6786,6.6786,6.6786,6.6786,6.6786,6.6786,6.6786,6.6786,6.6786,6.6786,6.6391,6.6309,6.6757,6.597,6.5681,6.6125,6.542,6.5041,6.5041,6.4306,6.3951,6.3916,6.3496,6.314,6.2851,6.2851,6.2678,6.24,6.24,6.24,6.24,6.24,6.24,6.24,6.24,6.24,6.24,6.24,6.24,6.24,6.6139,6.6139,6.633,6.6942,6.6842,6.6639,6.6592,6.6313,6.586,6.5238,6.4238,6.3441,6.2997,6.3353,6.3619,6.3577,6.4084,6.4396,6.4396,6.4613,6.4758,6.4758,6.4975,6.512,6.512,6.512,6.5374,6.5953,6.5953,6.6243,6.6786,6.6207,6.5953,6.5989,6.6533,6.6786,6.6786,6.6786,6.6786,6.6786,6.6786,6.6786,6.6786,6.6786,6.6786,6.6786,6.6786,6.6786,6.6786,6.6786,6.6786,6.6786,6.6786,6.6452,6.6012,6.6012,6.5665,6.519,6.4991,6.4924,6.4873,6.4652,6.4772,6.5058,6.5565,6.5871,6.6172,6.6697,6.6786,6.6786,6.6786,6.6786,6.6786,6.6786,6.6786,6.6786,6.6786,6.6786,6.6786,6.6786,6.6786,6.6786,6.6786,6.6786,6.6786,6.6786,6.633,6.6156,6.6452,6.5504,6.5074,6.5354,6.4669,6.4271,6.4271,6.3533,6.3177,6.3158,6.2639,6.24,6.24,6.24,6.24,6.24,6.24,6.24,6.24,6.24,6.24,6.24,6.24,6.24,6.24,6.24,6.24,6.24,6.7867,6.7867,6.7867,6.7867,6.7183,6.6585,6.6612,6.5873,6.521,6.4844,6.4803,6.4767,6.4753,6.4653,6.4514,6.441,6.4396,6.4396,6.4396,6.512,6.5591,6.5591,6.6351,6.6786,6.6786,6.6786,6.6786,6.6786,6.6786,6.6786,6.6786,6.6786,6.6786,6.6786,6.6786,6.6786,6.6786,6.6786,6.6786,6.6786,6.6786,6.6786,6.6786,6.6786,6.6786,6.6786,6.6786,6.6786,6.6786,6.6786,6.6786,6.6786,6.6786,6.6771,6.6808,6.6808,6.6771,6.6623,6.5887,6.5697,6.5501,6.4789,6.5157,6.5713,6.5713,6.6248,6.6771,6.6786,6.6786,6.6786,6.6786,6.6786,6.6786,6.6786,6.6786,6.6786,6.6786,6.6786,6.6786,6.6786,6.6786,6.6786,6.6786,6.6786,6.6786,6.6786,6.6771,6.6467,6.576,6.5713,6.5354,6.4635,6.3915,6.3496,6.3496,6.2774,6.24,6.24,6.24,6.24,6.24,6.24,6.24,6.24,6.24,6.24,6.24,6.24,6.24,6.24,6.24,6.24,6.24,6.24,6.24,6.24,6.7905,6.7626,6.7598,6.8215,6.7815,6.7449,6.7594,6.7321,6.6912,6.65,6.6298,6.6199,6.6276,6.5676,6.525,6.5229,6.5736,6.6025,6.6025,6.6279,6.6424,6.6424,6.6677,6.6786,6.6786,6.6786,6.6786,6.6786,6.6786,6.6786,6.6786,6.6786,6.6786,6.6786,6.6786,6.6786,6.6786,6.6786,6.6786,6.6786,6.6786,6.6786,6.6786,6.6786,6.6786,6.6786,6.6786,6.6786,6.6786,6.6786,6.6786,6.6786,6.6786,6.6786,6.6786,6.6786,6.6786,6.6742,6.6512,6.6452,6.6391,6.6156,6.63,6.6452,6.6452,6.6638,6.6786,6.6786,6.6786,6.6786,6.6786,6.6786,6.6786,6.6786,6.6786,6.6786,6.6786,6.6786,6.6786,6.6786,6.6786,6.6786,6.6786,6.6786,6.6786,6.6786,6.6309,6.6172,6.6437,6.552,6.4856,6.4618,6.3385,6.2736,6.2736,6.2518,6.24,6.24,6.24,6.24,6.24,6.24,6.24,6.24,6.24,6.24,6.24,6.24,6.24,6.24,6.24,6.24,6.24,6.24,6.24,6.24,6.8617,6.8223,6.8089,6.8628,6.8345,6.8054,6.8185,6.7946,6.7617,6.7266,6.7033,6.6889,6.6918,6.641,6.6062,6.6062,6.6496,6.6786,6.6786,6.6786,6.6786,6.6786,6.6786,6.6786,6.6786,6.6786,6.6786,6.6786,6.6786,6.6786,6.6786,6.6786,6.6786,6.6786,6.6786,6.6786,6.6786,6.6786,6.6786,6.6786,6.6786,6.6786,6.6786,6.6786,6.6786,6.6786,6.6786,6.6786,6.6786,6.6786,6.6786,6.6786,6.6786,6.6786,6.6786,6.6786,6.6786,6.6786,6.6786,6.6786,6.6786,6.6786,6.6786,6.6786,6.6786,6.6786,6.6786,6.6786,6.6786,6.6786,6.6786,6.6786,6.6786,6.6786,6.6786,6.6786,6.6786,6.6786,6.6786,6.6786,6.6786,6.6786,6.6786,6.6542,6.6391,6.6391,6.5713,6.5468,6.597,6.4839,6.4041,6.3772,6.2889,6.24,6.24,6.24,6.24,6.24,6.24,6.24,6.24,6.24,6.24,6.24,6.24,6.24,6.24,6.24,6.24,6.24,6.24,6.24,6.24,6.24,6.24,6.24,6.9825,6.9443,6.908,6.9047,6.8642,6.8346,6.8321,6.7899,6.7474,6.7269,6.72,6.7128,6.6982,6.6967,6.6967,6.6967,6.6858,6.6786,6.6786,6.6786,6.6786,6.6786,6.6786,6.6786,6.6786,6.6786,6.6786,6.6786,6.6786,6.6786,6.6786,6.6786,6.6786,6.6786,6.6786,6.6786,6.6786,6.6786,6.6786,6.6786,6.6786,6.6786,6.6786,6.6786,6.6786,6.6786,6.6786,6.6786,6.6786,6.6786,6.6786,6.6786,6.6786,6.6786,6.6786,6.6786,6.6786,6.6786,6.6786,6.6786,6.6786,6.6786,6.6786,6.6786,6.6786,6.6858,6.6895,6.6895,6.6931,6.6967,6.6967,6.6967,6.6967,6.6967,6.6967,6.6967,6.6967,6.6967,6.6967,6.6967,6.6967,6.6938,6.6893,6.6253,6.5839,6.5775,6.5082,6.4672,6.4672,6.3963,6.3224,6.2498,6.242,6.24,6.24,6.24,6.24,6.24,6.24,6.24,6.24,6.24,6.24,6.24,6.24,6.24,6.24,6.24,6.24,6.24,6.24,6.24,6.24,6.24,6.24,6.24,6.9872,6.9443,6.8981,6.8644,6.8185,6.7784,6.7519,6.7876,6.8116,6.784,6.8325,6.8657,6.8648,6.8648,6.8648,6.8648,6.751,6.6786,6.6786,6.6786,6.6786,6.6786,6.6786,6.6786,6.6786,6.6786,6.6786,6.6786,6.6786,6.6786,6.6786,6.6786,6.6786,6.6786,6.6786,6.6786,6.6786,6.6786,6.6786,6.6786,6.6786,6.6786,6.6786,6.6786,6.6786,6.6786,6.6786,6.6786,6.6786,6.6786,6.6786,6.6786,6.6786,6.6786,6.6786,6.6786,6.6786,6.6786,6.6786,6.6786,6.6786,6.6786,6.6786,6.6786,6.6786,6.7293,6.7728,6.7728,6.8199,6.8648,6.8648,6.8648,6.8648,6.8648,6.8648,6.8648,6.8648,6.8648,6.8648,6.8648,6.8648,6.8399,6.7776,6.7546,6.7216,6.6601,6.5872,6.5449,6.5449,6.4757,6.3991,6.3249,6.2678,6.24,6.24,6.24,6.24,6.24,6.24,6.24,6.24,6.24,6.24,6.24,6.24,6.24,6.24,6.24,6.24,6.24,6.24,6.24,6.24,6.24,6.24,6.24,6.9574,6.9101,6.8595,6.8084,6.777,6.7524,6.7238,6.7504,6.7695,6.7556,6.7881,6.8105,6.8105,6.8105,6.8105,6.8105,6.7996,6.7924,6.7924,6.7924,6.7924,6.7924,6.7924,6.7924,6.7924,6.7924,6.7924,6.7924,6.7924,6.7924,6.7924,6.7924,6.7924,6.7924,6.7924,6.7924,6.7924,6.7924,6.7924,6.7924,6.7924,6.7924,6.7924,6.7924,6.7655,6.7366,6.7366,6.7112,6.6786,6.6786,6.6786,6.6786,6.6786,6.6786,6.6786,6.6786,6.6786,6.6786,6.6786,6.6786,6.6895,6.7257,6.7366,6.7438,6.78,6.8235,6.8561,6.8561,6.8902,6.9192,6.9192,6.9192,6.9192,6.9192,6.9192,6.9192,6.9192,6.9192,6.9192,6.9192,6.9192,6.8878,6.8085,6.7682,6.7147,6.6358,6.5604,6.5192,6.5192,6.4822,6.4273,6.3531,6.3124,6.2753,6.24,6.24,6.24,6.24,6.24,6.24,6.24,6.24,6.24,6.24,6.24,6.24,6.24,6.24,6.24,6.24,6.24,6.24,6.24,6.24,6.24,6.24,6.9091,6.8642,6.8173,6.7606,6.7456,6.7387,6.7196,6.7178,6.7186,6.7157,6.7164,6.7148,6.7148,6.7148,6.7221,6.7329,6.8576,6.9228,6.8866,6.8938,6.9011,6.9011,6.9119,6.9192,6.9192,6.9192,6.9192,6.9192,6.9192,6.9192,6.9192,6.9192,6.9192,6.9192,6.9192,6.9192,6.9192,6.9192,6.9192,6.9192,6.9192,6.9192,6.9192,6.9192,6.8793,6.8199,6.8199,6.7728,6.7148,6.7148,6.7148,6.7148,6.7148,6.7148,6.7148,6.7148,6.7148,6.7148,6.7003,6.7076,6.7329,6.8017,6.8199,6.8343,6.9047,6.93,6.9373,6.9373,6.9481,6.9554,6.9554,6.9554,6.9554,6.9554,6.9554,6.9554,6.9554,6.9554,6.9554,6.9554,6.9554,6.9239,6.8442,6.7814,6.709,6.6277,6.5533,6.5121,6.5121,6.5,6.4613,6.3869,6.3714,6.3362,6.2739,6.2618,6.255,6.255,6.2468,6.24,6.24,6.24,6.24,6.24,6.24,6.24,6.24,6.24,6.24,6.24,6.24,6.24,6.24,6.24,6.24,6.24,6.8665,6.8321,6.8023,6.7593,6.7373,6.7196,6.704,6.7579,6.7978,6.7845,6.8431,6.8829,6.8829,6.8829,6.9083,6.9771,7.0061,6.9373,6.7293,6.78,6.8199,6.8199,6.8829,6.9192,6.9192,6.9192,6.9192,6.9192,6.9192,6.9192,6.9192,6.9192,6.9192,6.9192,6.9192,6.9192,6.9192,6.9192,6.9192,6.9192,6.9192,6.9192,6.9192,6.9192,6.9119,6.9011,6.9011,6.8938,6.8829,6.8829,6.8829,6.8829,6.8829,6.8829,6.8829,6.8829,6.8829,6.8685,6.8017,6.8307,6.8866,6.8974,6.9011,6.9047,6.9155,6.9735,7.0206,7.0206,7.0698,7.1132,7.1132,7.1132,7.1132,7.1132,7.1132,7.1132,7.1132,7.1132,7.1132,7.1132,7.1132,7.0863,7.0099,6.9929,6.9512,6.8704,6.7908,6.7472,6.7472,6.6834,6.6136,6.5358,6.4749,6.4377,6.4275,6.3632,6.3308,6.3308,6.2685,6.24,6.24,6.24,6.24,6.24,6.24,6.24,6.24,6.24,6.24,6.24,6.24,6.24,6.24,6.24,6.24,6.24,6.9694,6.9445,6.9213,6.8637,6.8437,6.8335,6.8188,6.85,6.8724,6.8648,6.8974,6.9192,6.9192,6.9192,6.9337,6.9735,6.9735,6.9264,6.8177,6.885,6.9285,6.9285,6.9228,6.9192,6.9192,6.9626,6.9844,6.9844,7.0242,7.0444,7.0444,7.0444,7.0444,7.0444,7.0444,7.0444,7.0444,7.0444,7.0444,7.0444,7.0444,7.0444,7.0444,7.0444,7.0206,6.9844,6.9844,6.9554,6.9192,6.9192,6.9192,6.9192,6.9192,6.9192,6.9192,6.9192,6.9192,6.9119,6.8757,6.8938,6.93,6.9735,6.9844,6.9952,7.0351,7.0734,7.0987,7.0987,7.1277,7.1494,7.1494,7.1494,7.1494,7.1494,7.1494,7.1494,7.1494,7.1494,7.1494,7.1494,7.1494,7.1042,6.9867,6.9761,6.9255,6.8014,6.7569,6.7346,6.7346,6.6988,6.6622,6.6305,6.5189,6.4613,6.4613,6.4275,6.4106,6.4086,6.3328,6.299,6.299,6.2584,6.24,6.24,6.24,6.24,6.24,6.24,6.24,6.24,6.24,6.24,6.24,6.24,6.24,6.24,7.0478,7.0293,7.0073,6.9485,6.9373,6.9313,6.9207,6.9192,6.9192,6.9192,6.9192,6.9192,6.9192,6.9192,6.9264,6.9445,6.9481,6.9554,6.9735,7.0134,7.0387,7.0387,6.9989,6.9735,6.9735,7.017,7.0387,7.0387,7.077,7.106,7.1241,7.1241,7.135,7.1494,7.1494,7.1494,7.1494,7.1494,7.1494,7.1494,7.1494,7.1494,7.1494,7.1494,7.1132,7.0677,7.0677,7.0278,6.9735,6.9735,6.9735,6.9735,6.9735,6.9735,6.9735,6.9735,6.9735,6.9699,6.9518,6.959,6.988,7.0496,7.0677,7.0822,7.1386,7.1494,7.1494,7.1494,7.1494,7.1494,7.1494,7.1494,7.1494,7.1494,7.1494,7.1494,7.1494,7.1494,7.1431,7.1272,7.1256,7.0709,6.9311,6.9183,6.8695,6.7448,6.7195,6.7071,6.7071,6.6917,6.6791,6.6791,6.5696,6.5121,6.5121,6.4952,6.485,6.485,6.4106,6.3748,6.3714,6.299,6.2651,6.2651,6.2448,6.24,6.24,6.24,6.24,6.24,6.24,6.24,6.24,6.24,6.24,6.24,7.0031,6.9675,6.9477,6.9403,6.9298,6.9207,6.9192,6.9192,6.9192,6.9192,6.9192,6.9192,6.9192,6.9192,6.9481,7.0242,7.0315,7.0604,7.1277,7.0749,7.0387,7.0387,7.0987,7.135,7.135,7.0713,7.0387,7.0387,6.9699,6.9735,7.0496,7.0496,7.0858,7.1494,7.1494,7.1494,7.1494,7.1494,7.1494,7.1494,7.1494,7.1494,7.1494,7.1494,7.1458,7.1422,7.1422,7.1386,7.135,7.135,7.135,7.135,7.135,7.135,7.135,7.135,7.135,7.1168,7.0496,7.0806,7.135,7.1422,7.1422,7.1422,7.1494,7.1494,7.1494,7.1494,7.1494,7.1494,7.1494,7.1494,7.1494,7.1494,7.1494,7.1494,7.1494,7.1494,7.1256,7.0541,7.0474,7.0165,6.9275,6.9183,6.9128,6.9017,6.8312,6.7896,6.7896,6.7216,6.6791,6.6791,6.669,6.6622,6.6622,6.5967,6.5615,6.5615,6.4884,6.4512,6.4478,6.3768,6.3409,6.3376,6.2685,6.24,6.24,6.24,6.24,6.24,6.24,6.24,6.24,6.24,6.24,6.24,7.1253,7.1112,7.0962,7.0749,7.0656,7.0625,7.0625,7.0625,7.0625,7.0625,7.0625,7.0625,7.0625,7.0625,7.0734,7.106,7.106,7.1205,7.1494,7.1241,7.0677,6.9699,6.9916,7.0061,7.0061,7.0278,7.0387,7.0387,7.0568,7.0568,7.0387,7.0387,7.0278,7.0061,7.0061,7.0061,7.0097,7.0604,7.0822,7.0842,7.1313,7.1494,7.1494,7.1494,7.1494,7.1494,7.1494,7.1494,7.1494,7.1494,7.1494,7.1494,7.1494,7.1494,7.1494,7.1494,7.1494,7.1458,7.1168,7.1277,7.1494,7.1494,7.1494,7.1494,7.1494,7.1494,7.1494,7.1494,7.1494,7.1494,7.1494,7.1494,7.1494,7.1494,7.1494,7.1494,7.1494,7.109,7.0728,7.0423,6.9955,6.9347,6.8524,6.8447,6.8234,6.7756,6.7427,6.7277,6.7277,6.698,6.6791,6.6791,6.6791,6.6791,6.6791,6.6542,6.6373,6.6373,6.5628,6.5256,6.5256,6.4512,6.4174,6.414,6.3396,6.3091,6.3057,6.2584,6.24,6.24,6.24,6.24,6.24,6.24,6.24,6.24,7.2048,7.1957,7.1821,7.1542,7.1494,7.1494,7.1494,7.1494,7.1494,7.1494,7.1494,7.1494,7.1494,7.1494,7.1494,7.1494,7.1494,7.1494,7.1494,7.1494,7.1024,6.9989,6.9916,6.9916,6.9916,7.0242,7.0387,7.0387,7.0641,7.0641,7.0387,7.0387,7.0097,6.959,6.959,6.9445,6.9228,6.9771,7.0025,7.0061,7.0553,7.0915,7.1132,7.1132,7.1313,7.1494,7.1494,7.1494,7.1494,7.1494,7.1494,7.1494,7.1494,7.1494,7.1494,7.1494,7.1494,7.1494,7.1494,7.1494,7.1494,7.1494,7.1494,7.1494,7.1494,7.1494,7.1494,7.1494,7.1494,7.1494,7.1494,7.1494,7.1494,7.1494,7.1494,7.1415,7.1207,7.0728,7.0217,6.9689,6.9163,6.8505,6.7676,6.763,6.7387,6.6833,6.6791,6.6791,6.6791,6.6791,6.6791,6.6791,6.6791,6.6791,6.6791,6.6791,6.6791,6.6791,6.6305,6.6034,6.6,6.529,6.4952,6.4884,6.4174,6.3849,6.3802,6.3057,6.2753,6.2719,6.2482,6.24,6.24,6.24,6.24,6.24,7.2033,7.1888,7.1718,7.1562,7.1494,7.1494,7.1494,7.1494,7.1494,7.1494,7.1494,7.1494,7.1494,7.1494,7.1494,7.1494,7.1494,7.1494,7.1494,7.1494,7.1494,7.1494,7.1494,7.1494,7.1494,7.0786,7.0423,7.0423,6.959,6.9626,7.0387,7.0387,7.0387,7.0387,7.0387,6.9952,6.9192,6.9192,6.9192,6.9192,6.9192,6.9663,7.0387,7.0387,7.0842,7.1494,7.1494,7.1494,7.1494,7.1494,7.1494,7.1494,7.1494,7.1494,7.1494,7.1494,7.1494,7.1494,7.1494,7.1494,7.1494,7.1494,7.1494,7.1494,7.1494,7.1494,7.1494,7.1494,7.1494,7.1494,7.1494,7.1494,7.1494,7.1494,7.1494,7.1256,7.049,7.0388,6.9796,6.8211,6.8014,6.769,6.6896,6.6812,6.6791,6.6791,6.6791,6.6791,6.6791,6.6791,6.6791,6.6791,6.6791,6.6791,6.6791,6.6791,6.6791,6.6791,6.6791,6.6791,6.6757,6.6034,6.5717,6.5683,6.4918,6.4613,6.4546,6.3815,6.3511,6.3409,6.2685,6.24,6.24,6.24,6.24,6.24,7.1903,7.1811,7.1718,7.1562,7.1494,7.1494,7.1494,7.1494,7.1494,7.1494,7.1494,7.1494,7.1494,7.1494,7.1494,7.1494,7.1494,7.1494,7.1494,7.1494,7.1494,7.1494,7.1494,7.1494,7.1494,7.1277,7.1168,7.1168,7.0915,7.0677,7.0387,7.0387,7.0097,6.9554,6.9554,6.9119,6.838,6.8974,6.8866,6.8416,6.8974,6.9337,6.9554,6.9554,6.9699,6.988,6.988,7.0242,7.0749,7.0749,7.106,7.1494,7.1494,7.1494,7.1494,7.1494,7.1494,7.1494,7.1494,7.1494,7.1494,7.1494,7.1494,7.1494,7.1494,7.1494,7.1494,7.1494,7.1494,7.1494,7.1494,7.1494,7.1494,7.1494,7.1494,7.1415,7.1187,7.0745,7.0217,6.9725,6.8676,6.7896,6.767,6.7133,6.6791,6.6791,6.6791,6.6791,6.6791,6.6791,6.6791,6.6791,6.6791,6.6791,6.6791,6.6791,6.6791,6.6791,6.6791,6.6791,6.6791,6.6555,6.6474,6.644,6.5696,6.5358,6.529,6.458,6.3971,6.3477,6.324,6.2854,6.24,6.24,6.24,6.24,7.1878,7.1816,7.1718,7.1562,7.1494,7.1494,7.1494,7.1494,7.1494,7.1494,7.1494,7.1494,7.1494,7.1494,7.1494,7.1494,7.1494,7.1494,7.1494,7.1494,7.1494,7.1494,7.1494,7.1494,7.1494,7.1494,7.1494,7.1494,7.1494,7.1277,7.0842,7.0842,7.0423,6.9663,6.9663,6.9228,6.8525,6.8974,6.8938,6.8488,6.8669,6.8938,6.9155,6.8866,6.8938,6.9192,6.9192,6.9518,6.9916,6.9916,7.0423,7.1132,7.1422,7.1494,7.1494,7.1494,7.1494,7.1494,7.1494,7.1494,7.1494,7.1494,7.1494,7.1494,7.1494,7.1494,7.1494,7.1494,7.1494,7.1494,7.1494,7.1494,7.1494,7.1494,7.1494,7.1399,7.109,7.0695,7.0165,6.9528,6.8581,6.7856,6.7549,6.7092,6.6791,6.6791,6.6791,6.6791,6.6791,6.6791,6.6791,6.6791,6.6791,6.6791,6.6791,6.6791,6.6791,6.6791,6.6791,6.6791,6.6791,6.6791,6.6791,6.6757,6.6339,6.6136,6.6068,6.5324,6.4783,6.4343,6.4072,6.3497,6.2854,6.2854,6.2651,6.24,7.1847,7.1749,7.1703,7.151,7.1494,7.1494,7.1494,7.1494,7.1494,7.1494,7.1494,7.1494,7.1494,7.1494,7.1494,7.1494,7.1494,7.1494,7.1494,7.1494,7.1494,7.1494,7.1494,7.1494,7.1494,7.1494,7.1494,7.1494,7.1494,7.1494,7.1494,7.1494,7.1132,7.0496,7.0496,7.0061,6.93,6.93,6.9264,6.9119,6.8416,6.8561,6.9119,6.838,6.8561,6.9192,6.9119,6.9119,6.9192,6.9192,6.9699,7.0423,7.1168,7.1422,7.1422,7.1494,7.1494,7.1494,7.1494,7.1494,7.1494,7.1494,7.1494,7.1494,7.1494,7.1494,7.1494,7.1494,7.1494,7.1494,7.1494,7.1494,7.1494,7.1494,7.1447,7.1191,7.0474,7.0337,6.9743,6.8289,6.8034,6.7731,6.6967,6.6833,6.6791,6.6791,6.6791,6.6791,6.6791,6.6791,6.6791,6.6791,6.6791,6.6791,6.6791,6.6791,6.6791,6.6791,6.6791,6.6791,6.6791,6.6791,6.6791,6.6791,6.6791,6.6791,6.6757,6.6068,6.5784,6.5649,6.4952,6.4241,6.3579,6.3511,6.3091,6.2482,7.1625,7.1578,7.1526,7.1494,7.1494,7.1494,7.1494,7.1494,7.1494,7.1494,7.1494,7.1494,7.1494,7.1494,7.1494,7.1494,7.1494,7.1494,7.1494,7.1494,7.1494,7.1494,7.1494,7.1494,7.1494,7.1494,7.1494,7.1494,7.1494,7.1494,7.1494,7.1494,7.1422,7.1277,7.1277,7.0842,7.0134,7.0134,6.9771,6.9192,6.9011,6.9047,6.9192,6.9011,6.9047,6.9119,6.8488,6.8685,6.9192,6.9192,6.93,6.959,7.0387,7.0641,7.0749,7.1313,7.1494,7.1494,7.1494,7.1494,7.1494,7.1494,7.1494,7.1494,7.1494,7.1494,7.1494,7.1494,7.1494,7.1494,7.1494,7.1494,7.1494,7.1494,7.1009,7.0558,7.0406,6.9849,6.9347,6.8996,6.837,6.7916,6.7771,6.7174,6.6791,6.6791,6.6791,6.6791,6.6791,6.6791,6.6791,6.6791,6.6791,6.6791,6.6791,6.6791,6.6791,6.6791,6.6791,6.6791,6.6791,6.6791,6.6791,6.6791,6.6791,6.6791,6.6791,6.6643,6.6203,6.5683,6.5514,6.5019,6.4309,6.3714,6.3409,6.3173,7.1526,7.1494,7.1494,7.1494,7.1494,7.1494,7.1494,7.1494,7.1494,7.1494,7.1494,7.1494,7.1494,7.1494,7.1494,7.1494,7.1494,7.1494,7.1494,7.1494,7.1494,7.1494,7.1494,7.1494,7.1494,7.1494,7.1494,7.1494,7.1494,7.1494,7.1494,7.1494,7.1494,7.1494,7.1494,7.1277,7.0915,7.0915,7.0661,7.0278,6.9916,6.9771,6.9735,6.9337,6.9192,6.9119,6.8721,6.8829,6.9264,6.9626,6.9771,6.9916,7.0677,7.0915,7.0987,7.1386,7.1494,7.1494,7.1494,7.1494,7.1494,7.1494,7.1494,7.1494,7.1494,7.1494,7.1494,7.1494,7.1494,7.1494,7.1494,7.1494,7.1494,7.1494,7.0878,7.0388,7.0388,6.9707,6.9071,6.8676,6.8269,6.7836,6.7468,6.7029,6.6791,6.6791,6.6791,6.6791,6.6791,6.6791,6.6791,6.6791,6.6791,6.6791,6.6791,6.6791,6.6791,6.6791,6.6791,6.6791,6.6791,6.6791,6.6791,6.6791,6.6791,6.6791,6.6791,6.6791,6.6555,6.6203,6.6203,6.5764,6.5087,6.4681,6.4106,6.3376,7.1526,7.1494,7.1494,7.1494,7.1494,7.1494,7.1494,7.1494,7.1494,7.1494,7.1494,7.1494,7.1494,7.1494,7.1494,7.1494,7.1494,7.1494,7.1494,7.1494,7.1494,7.1494,7.1494,7.1494,7.1494,7.1494,7.1494,7.1494,7.1494,7.1494,7.1494,7.1494,7.1494,7.1494,7.1494,7.1494,7.1494,7.1494,7.1494,7.1458,7.0806,7.0604,7.0532,6.9844,6.959,6.959,6.9445,6.93,6.93,6.9952,7.0206,7.0315,7.106,7.1313,7.135,7.1458,7.1494,7.1494,7.1494,7.1494,7.1494,7.1494,7.1494,7.1494,7.1494,7.1494,7.1494,7.1494,7.1494,7.1463,7.1336,7.132,7.1288,7.1123,7.049,7.0008,7.0008,6.931,6.8543,6.7876,6.7776,6.7529,6.6875,6.6791,6.6791,6.6791,6.6791,6.6791,6.6791,6.6791,6.6791,6.6791,6.6791,6.6791,6.6791,6.6791,6.6791,6.6791,6.6791,6.6791,6.6791,6.6791,6.6791,6.6791,6.6791,6.6791,6.6791,6.6791,6.6791,6.6791,6.6791,6.644,6.5886,6.5615,6.4647,6.3376,7.1494,7.1494,7.1494,7.1494,7.1494,7.1494,7.1494,7.1494,7.1494,7.1494,7.1494,7.1494,7.1494,7.1494,7.1494,7.1494,7.1494,7.1494,7.1494,7.1494,7.1494,7.1494,7.1494,7.1494,7.1494,7.1494,7.1494,7.1494,7.1494,7.1494,7.1494,7.1494,7.1494,7.1494,7.1494,7.1494,7.1494,7.1494,7.1494,7.1494,7.1386,7.135,7.135,7.1241,7.1205,7.1096,7.046,6.9771,6.9228,6.9337,6.9373,6.9481,7.0315,7.0568,7.0677,7.1313,7.1494,7.1494,7.1494,7.1494,7.1494,7.1494,7.1494,7.1494,7.1494,7.1494,7.1494,7.1494,7.1494,7.132,7.0678,7.056,7.032,6.96,6.8846,6.8312,6.8312,6.765,6.7092,6.7001,6.698,6.6938,6.6812,6.6791,6.6791,6.6791,6.6791,6.6791,6.6791,6.6791,6.6791,6.6791,6.6791,6.6791,6.6791,6.6791,6.6791,6.6791,6.6791,6.6791,6.6791,6.6791,6.6791,6.6791,6.6791,6.6791,6.6791,6.6791,6.6791,6.6791,6.6791,6.6724,6.6508,6.5222,6.4241,6.3376,7.1494,7.1494,7.1494,7.1494,7.1494,7.1494,7.1494,7.1494,7.1494,7.1494,7.1494,7.1494,7.1494,7.1494,7.1494,7.1494,7.1494,7.1494,7.1494,7.1494,7.1494,7.1494,7.1494,7.1494,7.1494,7.1494,7.1494,7.1494,7.1494,7.1494,7.1494,7.1494,7.1494,7.1494,7.1494,7.1494,7.1494,7.1494,7.1494,7.1494,7.1494,7.1494,7.1494,7.1494,7.1494,7.1458,7.1132,7.077,7.048,7.048,7.048,7.0568,7.0879,7.1024,7.106,7.1422,7.1494,7.1494,7.1494,7.1494,7.1494,7.1494,7.1494,7.1494,7.1494,7.1494,7.1384,7.096,7.0894,7.0642,6.9867,6.9725,6.9618,6.9238,6.8524,6.7995,6.7995,6.7319,6.6791,6.6791,6.6791,6.6791,6.6791,6.6791,6.6791,6.6791,6.6791,6.6791,6.6791,6.6791,6.6791,6.6791,6.6791,6.6791,6.6791,6.6791,6.6791,6.6791,6.6791,6.6791,6.6791,6.6791,6.6791,6.6791,6.6791,6.6791,6.6791,6.6791,6.6791,6.6791,6.6791,6.6791,6.6656,6.5595,6.4749,6.4005]}]]